[[{"header":{"parameterUnit":"m.s-1","parameterCategory":1,"la1":30.6,"la2":29.2853,"lo1":-89.7004,"lo2":-87.6739,"dy":0.0162,"dx":0.0183,"nx":112,"ny":82,"refTime":"2026-05-21T12:00:00:Z","depth":0,"parameterNumber":2,"parameterNumberName":"U-component_of_WINDS"},"data":[0.0,0.0,0.0,0.0,0.0,0.0,0.0,0.0,0.0,0.0,0.0,0.0,0.0,0.0,0.0,0.0,0.0,0.0,0.0,0.0,0.0,0.0,0.0,0.0,0.0,0.0,0.0,0.0,0.0,0.0,0.0,0.0,0.0,0.0,0.0,0.0,0.0,0.0,0.0,0.0,0.0,0.0,0.0,0.0,0.0,0.0,0.0,0.0,0.0,0.0,0.0,0.0,0.0,0.0,0.0,0.0,0.0,0.0,0.0,0.0,0.0,0.0,0.0,0.0,0.0,0.0,0.0,0.0,0.0,0.0,0.0,0.0,0.0,0.0,0.0,0.0,0.0,0.0,0.0,0.0,0.0,0.0,0.0,0.0,0.0,0.0,0.0,0.0,0.0,0.0,-3.3255,-3.7545,-4.2987,-4.5516,-4.358,-4.2498,-3.9343,-3.3288,0.0,0.0,0.0,0.0,0.0,0.0,0.0,0.0,0.0,0.0,0.0,0.0,0.0,0.0,0.0,0.0,0.0,0.0,0.0,0.0,0.0,0.0,0.0,0.0,0.0,0.0,0.0,0.0,0.0,0.0,0.0,0.0,0.0,0.0,0.0,0.0,0.0,0.0,0.0,0.0,0.0,0.0,0.0,0.0,0.0,0.0,0.0,0.0,0.0,0.0,0.0,0.0,0.0,0.0,0.0,0.0,0.0,0.0,0.0,0.0,0.0,0.0,0.0,0.0,0.0,0.0,0.0,0.0,0.0,0.0,0.0,0.0,0.0,0.0,0.0,0.0,0.0,0.0,0.0,0.0,0.0,0.0,0.0,0.0,0.0,0.0,0.0,0.0,0.0,0.0,0.0,0.0,0.0,0.0,0.0,0.0,0.0,0.0,0.0,0.0,0.0,0.0,0.0,0.0,-3.2899,-4.0761,-4.4414,-4.5516,-4.358,-4.1979,-3.8749,-3.3249,0.0,0.0,0.0,0.0,0.0,0.0,0.0,0.0,0.0,0.0,0.0,0.0,0.0,0.0,0.0,0.0,0.0,0.0,0.0,0.0,0.0,0.0,0.0,0.0,0.0,0.0,0.0,0.0,0.0,0.0,0.0,0.0,0.0,0.0,0.0,0.0,0.0,0.0,0.0,0.0,0.0,0.0,0.0,0.0,0.0,0.0,0.0,0.0,0.0,0.0,0.0,0.0,0.0,0.0,0.0,0.0,0.0,0.0,0.0,0.0,0.0,0.0,0.0,0.0,0.0,0.0,0.0,0.0,0.0,0.0,0.0,0.0,0.0,0.0,0.0,0.0,0.0,0.0,0.0,0.0,0.0,0.0,0.0,0.0,0.0,0.0,0.0,0.0,0.0,0.0,0.0,0.0,0.0,0.0,0.0,0.0,0.0,0.0,0.0,0.0,0.0,0.0,0.0,-3.2986,-3.6327,-4.3086,-4.5249,-4.5434,-4.3553,-4.1803,-3.8529,-3.3237,-3.0102,0.0,0.0,0.0,0.0,0.0,0.0,0.0,0.0,0.0,0.0,0.0,0.0,0.0,0.0,0.0,0.0,0.0,0.0,0.0,0.0,0.0,0.0,0.0,0.0,0.0,0.0,0.0,0.0,0.0,0.0,0.0,0.0,0.0,0.0,0.0,0.0,0.0,0.0,0.0,0.0,0.0,0.0,0.0,0.0,0.0,0.0,0.0,0.0,0.0,0.0,0.0,0.0,0.0,0.0,0.0,0.0,0.0,0.0,0.0,0.0,0.0,0.0,0.0,0.0,0.0,0.0,0.0,0.0,0.0,0.0,0.0,0.0,0.0,0.0,0.0,0.0,0.0,0.0,0.0,0.0,0.0,0.0,0.0,0.0,0.0,0.0,0.0,0.0,0.0,0.0,0.0,0.0,0.0,0.0,0.0,0.0,0.0,0.0,0.0,0.0,0.0,0.0,-3.7519,-4.0097,-4.4236,-4.5526,-4.5357,-4.3512,-4.1359,-3.8042,-3.3211,-2.9329,0.0,0.0,0.0,0.0,0.0,0.0,0.0,0.0,0.0,0.0,0.0,0.0,0.0,0.0,0.0,0.0,0.0,0.0,0.0,0.0,0.0,0.0,0.0,0.0,0.0,0.0,0.0,0.0,0.0,0.0,0.0,0.0,0.0,0.0,0.0,0.0,0.0,0.0,0.0,0.0,0.0,0.0,0.0,0.0,0.0,0.0,0.0,0.0,0.0,0.0,0.0,0.0,0.0,0.0,0.0,0.0,0.0,0.0,0.0,0.0,0.0,0.0,0.0,0.0,0.0,0.0,0.0,0.0,0.0,0.0,0.0,0.0,0.0,0.0,0.0,0.0,0.0,0.0,0.0,0.0,0.0,0.0,0.0,0.0,0.0,0.0,0.0,0.0,0.0,0.0,0.0,0.0,0.0,0.0,0.0,0.0,0.0,0.0,0.0,0.0,0.0,0.0,-3.8105,-4.2478,-4.358,-4.5135,-4.5316,-4.3371,-4.0234,-3.6804,-3.3134,-2.8126,0.0,0.0,0.0,0.0,0.0,0.0,0.0,0.0,0.0,0.0,0.0,0.0,0.0,0.0,0.0,0.0,0.0,0.0,0.0,0.0,0.0,0.0,0.0,0.0,0.0,0.0,0.0,0.0,0.0,0.0,0.0,0.0,0.0,0.0,0.0,0.0,0.0,0.0,0.0,0.0,0.0,0.0,0.0,0.0,0.0,0.0,0.0,0.0,0.0,0.0,0.0,0.0,0.0,0.0,0.0,0.0,0.0,0.0,0.0,0.0,0.0,0.0,0.0,0.0,0.0,0.0,0.0,0.0,0.0,0.0,0.0,0.0,0.0,0.0,0.0,0.0,0.0,0.0,0.0,0.0,0.0,0.0,0.0,0.0,0.0,0.0,0.0,0.0,0.0,0.0,0.0,0.0,0.0,0.0,0.0,0.0,0.0,0.0,0.0,0.0,0.0,0.0,-3.8176,-4.1869,0.0,-4.5126,-4.4598,-4.3303,-4.0552,-3.6961,-3.2436,0.0,0.0,0.0,0.0,0.0,0.0,0.0,0.0,0.0,0.0,0.0,0.0,0.0,0.0,0.0,0.0,0.0,0.0,0.0,0.0,0.0,0.0,0.0,0.0,0.0,0.0,0.0,0.0,0.0,0.0,0.0,0.0,0.0,0.0,0.0,0.0,0.0,0.0,0.0,0.0,0.0,0.0,0.0,0.0,0.0,0.0,0.0,0.0,0.0,0.0,0.0,0.0,0.0,0.0,0.0,0.0,0.0,0.0,0.0,0.0,0.0,0.0,0.0,0.0,0.0,0.0,0.0,0.0,0.0,0.0,0.0,0.0,0.0,0.0,0.0,0.0,0.0,0.0,0.0,0.0,0.0,0.0,0.0,0.0,0.0,0.0,0.0,0.0,0.0,0.0,0.0,0.0,0.0,0.0,0.0,0.0,0.0,0.0,0.0,0.0,0.0,0.0,-3.4531,-3.8556,-4.2034,0.0,-4.4793,-4.4137,-4.3246,-4.0058,-3.6257,-3.1968,0.0,0.0,0.0,0.0,0.0,0.0,0.0,0.0,0.0,0.0,0.0,0.0,0.0,0.0,0.0,0.0,0.0,0.0,0.0,0.0,0.0,0.0,0.0,0.0,0.0,0.0,0.0,0.0,0.0,0.0,0.0,0.0,0.0,0.0,0.0,0.0,0.0,0.0,0.0,0.0,0.0,0.0,0.0,0.0,0.0,0.0,0.0,0.0,0.0,0.0,0.0,0.0,0.0,0.0,0.0,0.0,0.0,0.0,0.0,0.0,0.0,0.0,0.0,0.0,0.0,0.0,0.0,0.0,0.0,0.0,0.0,0.0,0.0,0.0,0.0,0.0,0.0,0.0,0.0,0.0,0.0,0.0,0.0,0.0,0.0,0.0,0.0,0.0,0.0,0.0,0.0,0.0,0.0,0.0,0.0,0.0,0.0,0.0,0.0,0.0,0.0,0.0,-3.3086,-3.9376,-4.354,-4.3424,-4.4065,-4.4103,-4.3179,-3.8442,-3.4423,0.0,0.0,0.0,0.0,0.0,0.0,0.0,0.0,0.0,0.0,0.0,0.0,0.0,0.0,0.0,0.0,0.0,0.0,0.0,0.0,0.0,0.0,0.0,0.0,0.0,0.0,0.0,0.0,0.0,0.0,0.0,0.0,0.0,0.0,0.0,0.0,0.0,0.0,0.0,0.0,0.0,0.0,0.0,0.0,0.0,0.0,0.0,0.0,0.0,0.0,0.0,0.0,0.0,0.0,0.0,0.0,0.0,0.0,0.0,0.0,0.0,0.0,0.0,0.0,0.0,0.0,0.0,0.0,0.0,0.0,0.0,0.0,0.0,0.0,0.0,0.0,0.0,0.0,0.0,0.0,0.0,0.0,0.0,0.0,0.0,0.0,0.0,0.0,0.0,0.0,0.0,0.0,0.0,0.0,0.0,0.0,0.0,0.0,0.0,0.0,0.0,0.0,0.0,-3.3828,-3.9128,-4.2996,-4.4197,-4.3834,-4.3408,-4.3132,-3.895,-3.475,-3.1019,0.0,0.0,0.0,0.0,0.0,0.0,0.0,0.0,0.0,0.0,0.0,0.0,0.0,0.0,0.0,0.0,0.0,0.0,0.0,0.0,0.0,0.0,0.0,0.0,0.0,0.0,0.0,0.0,0.0,0.0,0.0,0.0,0.0,0.0,0.0,0.0,0.0,0.0,0.0,0.0,0.0,0.0,0.0,0.0,0.0,0.0,0.0,0.0,0.0,0.0,0.0,0.0,0.0,0.0,0.0,0.0,0.0,0.0,0.0,0.0,0.0,0.0,0.0,0.0,0.0,0.0,0.0,0.0,0.0,0.0,0.0,0.0,0.0,0.0,0.0,0.0,0.0,0.0,0.0,0.0,0.0,0.0,0.0,0.0,0.0,0.0,0.0,0.0,0.0,0.0,0.0,0.0,0.0,0.0,0.0,0.0,0.0,0.0,0.0,0.0,0.0,0.0,-3.3633,-3.8817,-4.2624,-4.4038,-4.353,-4.3104,-4.3104,-3.9181,-3.5038,-3.1154,0.0,0.0,0.0,0.0,0.0,0.0,0.0,0.0,0.0,0.0,0.0,0.0,0.0,0.0,0.0,0.0,0.0,0.0,0.0,0.0,0.0,0.0,0.0,0.0,0.0,0.0,0.0,0.0,0.0,0.0,0.0,0.0,0.0,0.0,0.0,0.0,0.0,0.0,0.0,0.0,0.0,0.0,0.0,0.0,0.0,0.0,0.0,0.0,0.0,0.0,0.0,0.0,0.0,0.0,0.0,0.0,0.0,0.0,0.0,0.0,0.0,0.0,0.0,0.0,0.0,0.0,0.0,0.0,0.0,0.0,0.0,0.0,0.0,0.0,0.0,0.0,0.0,0.0,0.0,0.0,0.0,0.0,0.0,0.0,0.0,0.0,0.0,0.0,0.0,0.0,0.0,0.0,0.0,0.0,0.0,0.0,0.0,0.0,0.0,0.0,0.0,0.0,-3.2851,-3.8346,-4.2216,-4.3177,-4.3098,-4.2989,-4.2989,-3.9123,-3.5288,-3.2025,0.0,0.0,0.0,0.0,0.0,0.0,0.0,0.0,0.0,0.0,0.0,0.0,0.0,0.0,0.0,0.0,0.0,0.0,0.0,0.0,0.0,0.0,0.0,0.0,0.0,0.0,0.0,0.0,0.0,0.0,0.0,0.0,0.0,0.0,0.0,0.0,0.0,0.0,0.0,0.0,0.0,0.0,0.0,0.0,0.0,0.0,0.0,0.0,0.0,0.0,0.0,0.0,0.0,0.0,0.0,0.0,0.0,0.0,0.0,0.0,-3.0185,0.0,0.0,0.0,0.0,0.0,0.0,0.0,0.0,0.0,0.0,0.0,0.0,0.0,0.0,0.0,0.0,0.0,0.0,0.0,0.0,0.0,0.0,0.0,0.0,0.0,0.0,0.0,0.0,0.0,0.0,0.0,0.0,0.0,0.0,0.0,0.0,0.0,0.0,0.0,0.0,0.0,-3.2851,-3.7296,-4.066,-4.2209,-4.2189,-4.2085,-4.2085,-3.8769,-3.5538,-3.2814,-2.8492,0.0,0.0,0.0,0.0,0.0,0.0,0.0,0.0,0.0,0.0,0.0,0.0,0.0,0.0,0.0,0.0,0.0,0.0,0.0,0.0,0.0,0.0,0.0,0.0,0.0,0.0,0.0,0.0,0.0,0.0,0.0,0.0,0.0,0.0,0.0,0.0,0.0,0.0,0.0,0.0,0.0,0.0,0.0,0.0,0.0,0.0,0.0,0.0,0.0,0.0,0.0,0.0,0.0,0.0,0.0,0.0,0.0,0.0,0.0,0.0,-3.2786,0.0,0.0,0.0,0.0,0.0,0.0,0.0,0.0,0.0,0.0,0.0,0.0,0.0,0.0,0.0,0.0,0.0,0.0,0.0,0.0,0.0,0.0,0.0,0.0,0.0,0.0,0.0,0.0,0.0,0.0,0.0,0.0,0.0,0.0,0.0,0.0,0.0,0.0,0.0,0.0,-3.2862,-3.7314,-4.0624,-4.1917,-4.1891,-4.1788,-4.1788,-3.9046,-3.643,-3.4269,-3.0268,0.0,0.0,0.0,0.0,0.0,0.0,0.0,0.0,0.0,0.0,0.0,0.0,0.0,0.0,0.0,0.0,0.0,0.0,0.0,0.0,0.0,0.0,0.0,0.0,0.0,0.0,0.0,0.0,0.0,0.0,0.0,0.0,0.0,0.0,0.0,0.0,0.0,0.0,0.0,0.0,0.0,0.0,0.0,0.0,0.0,0.0,0.0,0.0,0.0,0.0,0.0,0.0,0.0,-4.082,-4.1664,-4.2109,-4.2837,-4.3114,-4.2818,-3.9945,-3.8239,-3.7356,0.0,0.0,0.0,0.0,0.0,0.0,0.0,0.0,0.0,0.0,0.0,0.0,0.0,0.0,0.0,0.0,0.0,0.0,0.0,0.0,0.0,0.0,0.0,0.0,0.0,-3.5307,-3.5017,0.0,0.0,0.0,0.0,0.0,0.0,0.0,0.0,0.0,0.0,0.0,0.0,-3.3317,-3.7721,-4.0869,-4.1697,-4.1641,-4.1527,-4.1393,-3.9296,-3.7276,-3.5615,-3.2218,-2.8867,0.0,0.0,0.0,0.0,0.0,0.0,0.0,0.0,0.0,0.0,0.0,0.0,0.0,0.0,0.0,0.0,0.0,0.0,0.0,0.0,0.0,0.0,0.0,0.0,0.0,0.0,0.0,0.0,0.0,0.0,0.0,0.0,-2.1169,-2.2262,0.0,0.0,0.0,0.0,0.0,0.0,0.0,0.0,0.0,0.0,0.0,0.0,0.0,-3.6503,-3.9023,-4.1347,-4.2676,-4.3066,-4.6099,-4.712,-4.6413,-4.7142,-4.741,-4.7267,-4.6806,0.0,-3.993,-3.8888,0.0,0.0,0.0,0.0,0.0,0.0,0.0,0.0,0.0,0.0,0.0,0.0,0.0,0.0,0.0,0.0,0.0,0.0,0.0,0.0,0.0,0.0,-3.9438,-3.8042,-3.8559,-3.8729,0.0,-3.3183,-2.9822,-2.682,-2.5869,0.0,0.0,0.0,0.0,0.0,0.0,0.0,-3.5112,-3.7918,-3.9929,-4.0775,-4.0742,-4.04,-3.9688,-3.8623,-3.7276,-3.5615,-3.3432,-3.0986,-2.8233,-2.5598,0.0,0.0,0.0,0.0,0.0,0.0,0.0,0.0,0.0,0.0,0.0,0.0,0.0,0.0,0.0,0.0,0.0,0.0,0.0,0.0,0.0,0.0,0.0,0.0,0.0,0.0,0.0,0.0,0.0,-2.0946,-2.3547,-2.4872,-2.59,-2.6139,0.0,0.0,0.0,0.0,0.0,0.0,0.0,0.0,0.0,-3.8926,-3.9394,-4.1094,-4.4199,-4.5332,-4.6387,-4.7363,-4.8844,-4.9503,-4.9455,-4.9784,-4.9886,-4.9781,-4.9781,-4.8203,-4.5394,-4.2591,-4.0258,-3.8257,0.0,0.0,0.0,0.0,-3.6214,-3.6678,-3.7586,-3.8208,0.0,0.0,0.0,0.0,0.0,0.0,0.0,0.0,0.0,0.0,0.0,0.0,0.0,-4.1273,-4.1286,-4.1017,-4.0171,-3.7803,-3.4785,0.0,-3.0617,-2.9414,-2.5343,0.0,0.0,0.0,0.0,-3.3488,-3.5485,-3.8311,-4.0249,-4.0551,-4.0549,-4.0169,-3.9381,-3.8507,-3.7488,-3.625,-3.4339,-3.2344,-3.0266,-2.7899,-2.519,0.0,0.0,0.0,0.0,0.0,0.0,0.0,0.0,0.0,0.0,0.0,0.0,0.0,0.0,0.0,0.0,0.0,0.0,0.0,0.0,0.0,0.0,0.0,0.0,0.0,0.0,0.0,0.0,-2.3463,-2.5977,-2.724,-2.8837,-2.931,0.0,0.0,0.0,0.0,0.0,0.0,-3.623,-3.7383,-3.9648,-4.3281,-4.3613,-4.5195,-4.8242,-4.8262,-4.9023,-5.0508,-5.0508,-5.0756,-5.1204,-5.1204,-5.1161,-5.1089,-5.1089,-5.0687,-4.9692,-4.5966,-4.3778,-4.2566,-4.0431,-3.9488,-3.9411,-4.0258,-4.0727,-4.1093,-4.2335,-4.2834,-4.271,-4.1414,0.0,-3.8749,-3.5887,0.0,0.0,0.0,0.0,-3.8261,-4.0981,-4.1854,-4.2283,-4.3378,-4.33,-4.2842,-4.229,-4.1241,-3.9224,0.0,-3.4898,-3.377,-2.9191,0.0,0.0,0.0,0.0,-3.515,-3.6411,-3.896,-4.061,-4.0512,-4.0323,-3.9861,-3.9034,-3.8161,-3.7296,-3.6442,-3.5047,-3.3463,-3.1782,-2.9899,-2.7341,-2.3982,0.0,0.0,0.0,0.0,0.0,0.0,0.0,0.0,0.0,0.0,0.0,0.0,0.0,0.0,0.0,0.0,0.0,0.0,0.0,0.0,0.0,0.0,0.0,0.0,0.0,0.0,0.0,0.0,0.0,-2.9257,-3.2233,0.0,0.0,0.0,0.0,-3.4316,-3.5996,-3.8125,-4.0723,-4.2422,-4.418,-4.6035,-4.6914,-4.8223,-5.0058,-5.0078,-5.0508,-5.1348,-5.1348,-5.1283,-5.1204,-5.1204,-5.1161,-5.1089,-5.1089,-5.1069,-5.0879,-4.8865,-4.6997,-4.5306,-4.4355,-4.3528,-4.2931,-4.3739,-4.4566,-4.5306,-4.5383,-4.5411,-4.5391,-4.5315,-4.3756,-4.1703,-4.0568,-3.9883,0.0,0.0,-4.1394,-4.2305,-4.3301,-4.4179,-4.4609,-4.3867,-4.4297,-4.4414,-4.2734,-4.2324,-4.1391,0.0,-3.7332,-3.6005,-3.3253,0.0,-3.3117,-3.3898,-3.4894,-3.6419,-3.8893,-3.997,-4.0504,-4.0496,-3.9823,-3.9015,-3.8142,-3.7276,-3.6423,-3.5615,-3.5474,-3.4558,-3.2627,-3.1455,-2.918,-2.5655,-2.3046,0.0,0.0,0.0,0.0,0.0,0.0,0.0,0.0,0.0,0.0,0.0,0.0,0.0,0.0,0.0,0.0,0.0,0.0,0.0,0.0,0.0,0.0,0.0,0.0,0.0,0.0,0.0,0.0,-3.4155,-3.6432,0.0,-3.5854,-3.6852,-3.7949,-3.8828,-4.0469,-4.2324,-4.4375,-4.5586,-4.7012,-4.875,-4.9101,-4.9824,-5.0957,-5.0976,-5.1113,-5.1406,-5.1406,-5.1366,-5.1322,-5.1322,-5.1317,-5.1283,-5.1283,-5.1245,-5.1099,-5.0447,-4.9379,-4.8087,-4.711,-4.6567,-4.6355,-4.6644,-4.6932,-4.7201,-4.7201,-4.7268,-4.7178,-4.6177,-4.5288,-4.4351,-4.2953,-4.24,-4.2466,-4.3332,-4.3826,-4.4277,-4.5156,-4.5605,-4.5762,-4.5449,-4.5176,-4.4824,-4.4148,-4.3068,-4.189,-4.0826,-3.9568,-3.7972,-3.5784,-3.5879,-3.6,-3.5209,-3.6749,-3.8316,-3.9217,-4.0015,-4.0496,-4.0496,-3.9785,-3.8957,-3.8065,-3.7199,-3.6122,-3.4757,-3.4661,-3.3865,-3.2096,-3.1361,-2.9647,-2.679,-2.5523,-2.3015,0.0,0.0,0.0,0.0,0.0,0.0,0.0,0.0,0.0,0.0,0.0,0.0,0.0,0.0,0.0,0.0,0.0,0.0,0.0,0.0,0.0,0.0,0.0,0.0,0.0,0.0,-3.5531,-3.6987,-3.9468,-4.0729,-3.9893,-4.0916,-4.2109,-4.3262,-4.4394,-4.5644,-4.7109,-4.8008,-4.9004,-5.0156,-5.0469,-5.0859,-5.1387,-5.1406,-5.1406,-5.1406,-5.1406,-5.1406,-5.1406,-5.1406,-5.1406,-5.1406,-5.1406,-5.1344,-5.1267,-5.121,-5.0789,-5.0062,-4.9384,-4.9056,-4.898,-4.9024,-4.9025,-4.8942,-4.8677,-4.8655,-4.8528,-4.7257,-4.668,-4.6261,-4.5156,-4.4666,-4.4634,-4.5208,-4.5409,-4.5566,-4.6152,-4.6308,-4.6308,-4.6308,-4.5859,-4.5351,-4.5008,-4.3717,-4.2486,-4.2116,-4.0888,-3.9409,-3.7839,-3.8065,-3.8065,-3.6949,-3.8219,-3.94,-3.9669,-4.0169,-4.0496,-4.0496,-3.9515,-3.8623,-3.8046,-3.668,-3.5507,-3.468,-3.4083,-3.3256,-3.216,-3.1134,-2.9549,-2.7335,-2.6043,-2.4052,-2.1336,0.0,0.0,0.0,0.0,0.0,0.0,0.0,0.0,0.0,0.0,0.0,0.0,0.0,0.0,0.0,0.0,0.0,0.0,0.0,0.0,0.0,0.0,0.0,-2.9883,-3.4897,-3.8312,-3.7617,-4.1269,-4.3496,-4.2637,-4.4101,-4.582,-4.7519,-4.7676,-4.8047,-4.8906,-4.9766,-5.0234,-5.0234,-5.0996,-5.1406,-5.1406,-5.1406,-5.1406,-5.1406,-5.1406,-5.1406,-5.1406,-5.1406,-5.1406,-5.1406,-5.1406,-5.1406,-5.1386,-5.1265,-5.1204,-5.1196,-5.112,-5.0945,-5.0721,-5.0867,-5.0811,-5.0615,-4.9896,-4.9651,-4.953,-4.8784,-4.8071,-4.747,-4.7295,-4.683,-4.6308,-4.6184,-4.6219,-4.6308,-4.6308,-4.6308,-4.6308,-4.6308,-4.6308,-4.6074,-4.5215,-4.4286,-4.3302,-4.2326,-4.1259,-4.0246,-3.9477,-3.9342,-3.9342,-3.9342,-3.9342,0.0,-4.04,-4.0496,-4.0496,-4.0477,-3.8988,-3.7988,-3.7969,-3.5641,-3.4545,-3.5365,-3.3814,-3.2852,-3.2814,-3.0872,-2.9036,-2.7387,-2.4548,-2.3061,-2.3061,0.0,0.0,0.0,0.0,0.0,0.0,0.0,0.0,0.0,0.0,0.0,0.0,0.0,0.0,0.0,0.0,0.0,0.0,0.0,0.0,0.0,-3.2793,-3.6133,-3.6133,-3.8632,-4.1054,-4.2695,-4.5039,-4.6426,-4.6191,-4.7187,-4.8027,-4.8516,-4.9121,-4.959,-4.9824,-5.0625,-5.1074,-5.1074,-5.1289,-5.1406,-5.1406,-5.1406,-5.1406,-5.1406,-5.1406,-5.1406,-5.1406,-5.1406,-5.1406,-5.1406,-5.1406,-5.1406,-5.1406,-5.1365,-5.1294,-5.1196,-5.112,-5.1047,-5.0997,-5.1039,-5.1027,-5.0977,-5.0804,-5.0766,-5.0644,-4.9955,-4.9602,-4.9312,-4.8642,-4.7887,-4.7226,-4.7205,-4.6757,-4.6308,-4.6308,-4.6308,-4.6308,-4.6308,-4.6308,-4.623,-4.5996,-4.4637,-4.3376,-4.3097,-4.1672,-4.0439,-4.0208,-4.0169,-4.0169,-4.0169,-4.0169,0.0,-4.0477,-4.0496,-4.0285,-3.9688,-3.8642,-3.7738,-3.7123,-3.5295,-3.4026,-3.3641,-3.2622,-3.1756,-3.1115,-3.0205,-2.9354,-2.854,-2.6043,-2.475,0.0,0.0,0.0,0.0,0.0,0.0,0.0,0.0,0.0,0.0,0.0,0.0,0.0,0.0,0.0,0.0,0.0,0.0,0.0,0.0,0.0,0.0,-3.6387,-3.9648,-4.1074,-4.2148,-4.334,-4.4824,-4.6543,-4.7734,-4.8105,-4.8926,-4.957,-4.9922,-5.043,-5.0703,-5.0703,-5.1152,-5.1406,-5.1406,-5.1406,-5.1406,-5.1406,-5.1406,-5.1406,-5.1406,-5.1406,-5.1406,-5.1406,-5.1406,-5.1406,0.0,-5.1406,-5.1406,-5.1406,-5.1406,-5.1345,0.0,0.0,0.0,0.0,0.0,-5.1089,-5.1108,-5.1177,-5.1204,-5.1154,-5.0818,-5.0469,-5.0117,-4.9609,-4.8574,-4.7598,-4.7598,-4.6973,-4.6308,-4.6308,-4.6308,-4.6308,-4.6308,-4.6308,-4.6289,-4.6225,-4.4726,-4.3374,-4.334,-4.1796,0.0,-4.0496,-4.0496,-4.0496,-4.0496,-4.0496,-4.0496,-4.0496,-4.0496,-4.0189,-3.94,-3.8527,-3.7642,-3.6769,-3.5161,0.0,0.0,0.0,-3.1066,-2.9657,-2.9225,0.0,0.0,0.0,0.0,0.0,0.0,0.0,0.0,-2.5613,-2.5364,0.0,0.0,0.0,0.0,0.0,0.0,0.0,0.0,0.0,0.0,0.0,0.0,0.0,0.0,0.0,0.0,-3.9062,-4.1426,-4.4551,-4.5078,-4.5156,-4.5156,-4.6699,-4.8047,-4.8828,-4.9766,-5.0625,-5.1348,-5.1406,-5.1406,-5.1406,0.0,0.0,0.0,0.0,-5.1406,-5.1406,-5.1406,-5.1406,-5.1406,-5.1406,-5.1406,-5.1406,-5.1406,-5.1406,-5.1406,-5.1406,-5.1406,-5.1406,-5.1406,-5.1406,-5.1406,-5.1406,-5.1283,-5.1135,-5.1135,-5.1135,-5.1148,-5.1194,0.0,0.0,-5.1365,-5.0918,-5.0332,-5.0332,-4.9121,-4.7754,-4.7754,-4.7051,-4.6308,-4.6308,-4.6308,-4.6308,-4.6308,-4.6289,-4.6247,-4.6138,-4.4666,-4.3335,-4.3224,-4.1735,-4.0496,-4.0496,-4.0496,-4.0496,-4.0496,-4.0496,-4.0496,-4.0496,-4.0496,-4.015,-3.9246,0.0,0.0,-3.6654,-3.5103,-3.4205,-3.4205,-3.268,-3.0941,-2.9009,-2.8652,-2.8417,-2.8202,-2.8906,-2.961,-3.0338,-3.1048,-3.1452,-3.1433,-2.7053,-2.6594,0.0,0.0,0.0,0.0,0.0,0.0,0.0,0.0,0.0,0.0,0.0,0.0,0.0,0.0,0.0,-3.7832,-4.0957,-4.3437,-4.4805,-4.5605,-4.6055,-4.6055,-4.7598,-4.8711,-4.8887,-5.0273,-5.123,-5.1387,-5.1406,-5.1406,-5.1406,-5.1406,-5.1406,-5.1406,-5.1406,-5.1406,-5.1406,-5.1406,-5.1406,-5.1406,0.0,0.0,-5.1406,-5.1406,-5.1406,-5.1406,-5.1406,-5.1406,-5.1406,-5.1406,-5.1406,-5.1406,-5.1406,-5.1386,-5.134,-5.134,-5.134,-5.1341,-5.1365,-5.1365,-5.1366,-5.1386,-5.1289,-5.1172,-5.1172,-4.998,0.0,-4.8652,-4.7519,-4.6308,-4.6308,-4.6308,-4.6308,-4.6308,-4.6223,-4.6122,-4.611,-4.4592,-4.323,-4.322,-4.1735,-4.0496,-4.0496,-4.0496,-4.0496,-4.0496,-4.0496,-4.0496,-4.0496,-4.0496,-3.9919,-3.8411,-3.8104,-3.7373,-3.5865,-3.4795,-3.4205,-3.4205,-3.3037,-3.2086,-3.1514,-3.1235,-3.0965,-3.0699,-3.0864,-3.0999,-3.1176,-3.1323,-3.1733,-3.2326,-3.0742,-3.0687,0.0,0.0,0.0,0.0,0.0,0.0,0.0,0.0,0.0,0.0,0.0,-3.0527,-3.3555,0.0,-3.8144,-4.0723,-4.2949,-4.4648,-4.5527,-4.6035,-4.6308,-4.6308,-4.7832,-4.8906,-4.8906,-5.043,-5.1406,-5.1406,-5.1406,-5.1406,-5.1406,-5.1406,-5.1406,-5.1406,-5.1406,-5.1406,-5.1406,-5.1406,-5.1406,-5.1406,-5.1406,-5.1406,-5.1406,-5.1406,-5.1406,-5.1406,-5.1406,-5.1406,-5.1406,-5.1406,-5.1406,-5.1406,-5.1406,-5.1406,-5.1406,-5.1406,-5.1406,-5.1406,-5.1406,-5.1406,-5.1406,-5.1406,-5.1406,-5.1406,-5.1406,-5.0234,-4.8906,-4.8906,-4.7637,-4.6308,-4.6308,-4.6308,-4.6289,-4.6222,-4.6147,-4.6072,-4.5963,-4.4505,-4.3189,-4.3153,-4.172,-4.0496,-4.0496,-4.0496,-4.0496,-4.0496,-4.0496,-4.0496,-4.0496,-4.015,-3.9419,-3.8142,-3.7603,-3.6853,-3.5615,-3.4699,-3.4146,-3.4009,-3.2967,-3.2231,-3.2008,-3.1749,-3.1543,-3.1397,-3.1788,-3.2008,-3.2008,-3.2394,-3.2816,-3.3201,-3.3201,-3.3408,0.0,0.0,0.0,0.0,0.0,0.0,0.0,-2.7051,-2.8184,-3.168,-3.2949,-3.4394,-3.748,-3.9219,-4.0996,-4.3535,-4.4531,-4.5293,-4.6172,-4.6308,-4.6308,-4.6308,-4.7695,-4.8711,-4.8887,-5.0273,-5.123,-5.1387,-5.1406,-5.1406,-5.1406,-5.1406,-5.1406,-5.1406,-5.1406,-5.1406,-5.1406,-5.1406,-5.1406,-5.1406,-5.1406,-5.1406,-5.1406,-5.1406,-5.1406,-5.1406,-5.1406,-5.1406,-5.1406,-5.1406,-5.1406,-5.1406,-5.1406,-5.1406,-5.1406,-5.1406,-5.1406,-5.1406,-5.1406,-5.1406,-5.1406,-5.1406,-5.1406,-5.1406,-5.1406,-5.0234,-4.8906,-4.8906,-4.7637,-4.6308,-4.6308,-4.6289,-4.6226,-4.6138,-4.6069,-4.601,-4.584,-4.4421,-4.3155,-4.3099,-4.1681,-4.0496,-4.0496,-4.0496,-4.0496,-4.0496,-4.0496,-4.0496,-4.0496,-3.9804,-3.8977,-3.8084,-3.7219,-3.6365,-3.5577,-3.4853,-3.4335,-3.4064,-3.3193,-3.2558,-3.2281,-3.2016,-3.1874,-3.1874,-3.2549,-3.2906,-3.2906,-3.3788,-3.4194,-3.4152,-3.5114,-3.5441,-2.3047,-2.2852,-2.3711,-2.6816,-2.6562,-2.7363,0.0,-3.4141,-3.3535,-3.7012,-3.7812,-3.8476,-4.041,-4.0918,-4.1894,-4.4433,-4.4941,-4.5293,-4.6172,-4.6308,-4.6308,-4.6308,-4.7168,-4.8047,-4.8828,-4.9766,-5.0625,-5.1348,-5.1406,-5.1406,-5.1406,-5.1406,-5.1406,-5.1406,-5.1406,-5.1406,-5.1406,-5.1406,-5.1406,-5.1406,-5.1406,-5.1406,-5.1406,-5.1406,-5.1406,-5.1406,-5.1406,-5.1406,-5.1406,-5.1406,-5.1406,-5.1406,-5.1406,-5.1406,-5.1406,-5.1406,-5.1406,-5.1406,-5.1406,-5.1406,-5.1406,-5.1406,-5.1406,-5.1406,-5.1406,-5.0234,-4.8906,-4.8906,-4.7637,-4.6308,-4.6308,-4.6202,-4.6117,-4.6091,-4.5955,-4.5828,-4.5809,-4.4375,-4.3118,-4.3113,-4.1681,-4.0496,-4.0496,-4.0496,-4.0496,-4.0496,-4.0496,-4.0496,-4.0496,-3.9804,-3.8977,-3.8084,-3.7219,-3.6365,-3.5577,-3.5404,-3.5249,-3.4961,-3.4614,-3.4269,-3.395,-3.3677,-3.3532,-3.3532,-3.3846,-3.401,-3.401,-3.5132,-3.5544,-3.5361,-3.6868,-3.7081,-2.6738,-2.7266,-2.8105,-3.0078,-3.1133,-3.2559,-3.5801,-3.6094,-3.6367,-3.8848,-3.9355,-3.9726,-4.0976,-4.1992,-4.3008,0.0,-4.5098,-4.5879,-4.625,-4.5859,-4.5547,-4.5547,-4.5879,-4.6836,-4.8711,-4.9687,-5.0527,-5.1348,-5.1406,-5.1406,-5.1406,-5.1406,-5.1406,-5.1406,-5.1406,-5.1406,-5.1406,-5.1406,-5.1406,-5.1406,-5.1406,-5.1406,-5.1406,-5.1406,-5.1406,-5.1406,-5.1406,-5.1406,-5.1406,-5.1406,-5.1406,-5.1406,-5.1406,-5.1406,-5.1406,-5.1406,-5.1406,-5.1406,-5.1406,-5.1406,-5.1406,-5.1406,-5.1406,-5.1406,-5.1406,-5.0234,-4.8906,-4.8906,-4.7637,-4.6289,-4.6201,-4.6145,-4.6069,-4.5942,-4.5861,-4.5769,-4.57,-4.4325,-4.3104,-4.3104,-4.1681,-4.0496,-4.0496,-4.0496,-4.0496,-4.0496,-4.0496,-4.0323,-3.9861,-3.9073,-3.8027,-3.6699,-3.6212,-3.5865,-3.5538,-3.55,-3.5312,-3.4879,-3.4754,-3.4475,-3.3986,-3.3868,-3.3807,-3.3807,-3.3915,-3.3974,-3.3974,-3.4909,-3.5323,-3.5254,-3.6893,-3.7432,-2.8885,-3.0192,-3.1461,-3.2575,-3.4606,-3.6443,-3.6953,-3.7559,-3.8437,-3.9941,-4.0254,-4.0527,-4.1367,-4.2519,-4.3496,-4.3984,-4.5117,-4.6035,-4.6269,-4.5547,-4.5098,-4.5332,-4.5156,-4.5937,-4.8301,-4.9336,-5.0176,-5.1016,-5.1269,-5.1406,-5.1406,-5.1406,-5.1406,-5.1406,-5.1406,-5.1406,-5.1406,-5.1406,-5.1406,-5.1406,-5.1406,-5.1406,-5.1406,-5.1406,-5.1406,-5.1406,-5.1406,-5.1406,-5.1406,-5.1406,-5.1406,-5.1406,-5.1406,-5.1406,-5.1406,-5.1406,-5.1406,-5.1406,-5.1406,-5.1406,-5.1406,-5.1406,-5.1406,-5.1367,-5.1133,-5.0058,-4.8848,-4.8613,-4.7421,-4.6224,-4.6138,-4.6061,-4.5975,-4.584,-4.5763,-4.5723,-4.5629,-4.4278,-4.3104,-4.3104,-4.1681,-4.0496,-4.0496,-4.0496,-4.0496,-4.0496,-4.0496,-4.0208,-3.94,-3.8334,-3.7084,-3.5654,-3.55,-3.55,-3.55,-3.55,-3.5273,-3.4724,-3.4694,-3.4439,-3.3815,-3.3807,-3.3807,-3.3807,-3.3863,-3.3915,-3.3915,-3.5021,-3.5539,-3.551,-3.7159,-3.7908,-2.8253,-3.0072,-3.2377,-3.4103,-3.5802,-3.7531,-3.9374,-3.9805,-4.0078,-4.0976,-4.1152,-4.1406,-4.2207,-4.2402,-4.2988,-4.4687,-4.5,-4.5332,-4.6172,-4.5547,-4.5312,-4.6152,-4.5508,-4.5703,-4.7461,-4.8437,-4.9297,-5.0176,-5.0957,-5.1406,-5.1406,-5.1406,-5.1406,-5.1406,-5.1406,-5.1406,-5.1406,-5.1406,-5.1406,-5.1406,-5.1406,-5.1406,-5.1406,-5.1406,-5.1406,-5.1406,-5.1406,-5.1406,-5.1406,-5.1406,-5.1406,-5.1406,-5.1406,-5.1406,-5.1406,-5.1406,-5.1406,-5.1406,-5.1406,-5.1406,-5.1406,-5.1406,-5.1406,-5.125,-5.0469,-4.9609,-4.8711,-4.7871,-4.6905,-4.611,-4.6108,-4.5966,-4.5816,-4.5803,-4.57,-4.5603,-4.5594,-4.4278,-4.3104,-4.3104,-4.1681,-4.0496,-4.0496,-4.0496,-4.0496,-4.0496,-4.0496,-4.0208,-3.94,-3.7796,-3.6423,-3.5596,-3.55,-3.55,-3.55,-3.55,-3.5273,-3.4724,-3.4694,-3.4439,-3.3815,-3.3807,-3.3807,-3.3807,-3.4056,-3.4195,-3.4188,-3.6107,-3.6911,-3.6682,-3.829,-3.891,-3.0983,-3.2627,-3.4269,-3.654,-3.7985,-3.9171,-4.0468,-4.0762,-4.0684,-4.0391,-4.0332,-4.0234,-3.9941,-4.082,-4.1973,-4.3086,-4.4258,-4.5293,-4.6172,-4.5547,-4.5117,-4.5391,-4.5176,-4.5234,-4.582,-4.7187,0.0,-5.0098,-5.0449,-5.084,-5.1367,-5.1406,-5.1406,-5.1406,-5.1406,-5.1406,-5.1406,-5.1406,-5.1406,-5.1406,-5.1406,-5.1406,-5.1406,-5.1406,-5.1406,-5.1406,-5.1406,-5.1406,-5.1406,-5.1406,-5.1406,-5.1406,-5.1406,-5.1406,-5.1406,-5.1406,-5.1406,-5.1406,-5.1406,-5.1406,-5.1406,-5.1406,-5.1406,-5.125,-5.0449,-4.959,-4.8691,-4.7741,-4.6807,-4.6069,-4.5944,-4.5844,-4.5769,-4.5696,-4.5627,-4.5441,-4.4855,-4.3874,-4.2931,-4.2354,-4.1296,-4.0496,-4.0496,-4.0496,-4.0496,-4.0496,-3.9554,-3.8738,-3.8469,-3.6949,-3.5808,-3.5538,-3.55,-3.55,-3.55,-3.55,-3.5273,-3.4724,-3.4694,-3.4439,-3.3815,-3.3807,-3.3807,-3.3807,-3.3889,-3.3923,-3.3941,-3.5716,-3.6517,-3.6468,-3.8091,-3.8788,-3.295,-3.4564,-3.5992,-3.8268,-3.948,-4.0281,-4.1033,-4.0957,-4.0488,-3.9629,-3.8945,-3.834,-3.7773,-3.832,-3.9453,-4.1211,-4.2715,-4.416,-4.5625,-4.5351,-4.5117,-4.543,-4.5469,-4.5586,-4.5898,-4.7226,0.0,-4.9648,-5.0293,-5.0859,-5.1367,-5.1406,-5.1406,-5.1406,-5.1406,-5.1406,-5.1406,-5.1406,-5.1406,-5.1406,-5.1406,-5.1406,-5.1406,-5.1406,-5.1406,-5.1406,-5.1406,-5.1406,-5.1406,-5.1344,-5.1365,-5.1406,-5.1344,-5.1365,-5.1406,-5.1406,-5.1406,-5.1406,-5.1406,-5.1406,-5.1406,-5.1406,-5.1211,-5.082,-4.998,-4.9121,-4.8222,-4.7219,-4.6504,-4.5981,-4.5832,-4.5749,-4.5708,-4.5629,-4.5594,-4.5364,-4.4489,-4.3662,-4.2835,-4.1962,-4.1104,-4.0496,-4.0496,-4.0496,-4.0496,-4.0496,-3.9342,-3.8354,-3.8046,-3.6538,-3.55,-3.55,-3.55,-3.55,-3.55,-3.5398,-3.5174,-3.4724,-3.4582,-3.4307,-3.3815,-3.3807,-3.3807,-3.3807,-3.4082,-3.4215,-3.4215,-3.5899,-3.674,-3.6762,-3.8083,-3.8707,-3.4188,-3.5834,-3.7557,-3.9259,-4.0248,-4.0874,-4.1071,-4.0469,-3.9551,-3.8594,-3.7051,-3.582,-3.5703,-3.5137,-3.5801,-3.916,-4.0586,-4.2148,-4.4648,-4.5039,-4.5391,0.0,-4.6367,-4.6719,-4.7578,-4.8457,0.0,-4.8965,0.0,-5.1367,-5.1406,-5.1406,-5.1406,-5.1406,-5.1406,-5.1406,-5.1406,-5.1406,-5.1406,-5.1406,-5.1406,-5.1406,-5.1406,-5.1406,-5.1406,-5.1406,-5.1406,-5.1406,-5.1386,-5.1267,-5.1292,-5.1386,-5.1265,-5.1294,-5.1406,-5.1406,-5.1406,-5.1406,-5.1406,-5.1406,-5.1406,-5.1406,-5.0859,-5.0039,-4.916,-4.8281,-4.7382,-4.6374,-4.5995,-4.5872,-4.5815,-4.5692,-4.5594,-4.5594,-4.5594,-4.5344,-4.4432,-4.3643,-4.2835,-4.1912,-4.1066,-4.0496,-4.0496,-4.0496,-4.0496,-4.0496,-3.9823,-3.8996,-3.8161,-3.6596,-3.5558,-3.5558,-3.5519,-3.55,-3.55,-3.5273,-3.4999,-3.4714,-3.4412,-3.4111,-3.3802,-3.3802,-3.3802,-3.3807,-3.4582,-3.5004,-3.5004,-3.667,-3.7492,-3.7529,-3.8322,-3.8707,-3.6772,-3.8176,-3.9273,-4.0369,-4.0799,-4.0816,-4.033,-3.9551,-3.832,-3.6133,-3.4824,-3.3476,-3.1582,-3.3125,-3.5195,-3.6738,-3.9863,0.0,-4.4726,-4.5566,0.0,-4.7168,-4.7266,-4.7617,-4.8476,-4.9355,0.0,0.0,-5.0254,-5.0762,-5.1367,-5.1406,-5.1406,-5.1406,-5.1406,-5.1406,-5.1406,-5.1406,-5.1406,-5.1406,-5.1406,-5.1406,-5.1406,-5.1406,-5.1406,-5.1406,-5.1406,-5.1406,-5.1406,-5.1366,-5.1366,-5.1406,-5.1366,-5.1366,-5.1406,-5.1406,-5.1406,-5.1406,-5.1406,-5.1406,-5.1406,-5.1406,-5.0859,-5.0039,-4.916,-4.8281,-4.7361,-4.6261,-4.5924,-4.5872,-4.5696,-4.5637,-4.5594,-4.5594,-4.5594,-4.521,-4.372,-4.3239,-4.2643,-4.1123,-4.065,-4.0496,-4.0496,-4.0496,-4.0496,-4.0496,-3.9823,-3.9227,-3.8996,-3.7469,-3.6385,-3.6385,-3.5865,-3.55,-3.55,-3.5439,-3.5198,-3.4724,-3.4813,-3.4542,-3.3829,-3.3999,-3.3993,-3.3788,-3.4582,-3.5004,-3.5004,-3.667,-3.7492,-3.7529,-3.8322,-3.8707,-3.8507,-3.9607,-4.0389,-4.0879,-4.0701,-4.0148,-3.9003,-3.748,-3.5586,-3.2988,-3.1152,-2.957,-2.8144,-3.0078,-3.2539,-3.4531,-3.8164,-4.1601,-4.4082,-4.5176,-4.6191,-4.7441,-4.7949,0.0,-4.9394,-5.0234,-5.0723,0.0,-5.0723,-5.0918,-5.1387,-5.1406,-5.1406,-5.1406,-5.1406,-5.1406,-5.1406,-5.1406,-5.1406,-5.1406,-5.1406,-5.1406,-5.1406,-5.1406,-5.1406,-5.1406,0.0,-5.1366,-5.1318,-5.1281,-5.1285,-5.1318,-5.1279,-5.1315,-5.1406,-5.1406,-5.1406,-5.1406,-5.1406,-5.1406,-5.1406,-5.1406,-5.0605,-4.9531,-4.9043,-4.8027,-4.6872,-4.6118,-4.5899,-4.5842,-4.5653,-4.5594,-4.5594,-4.5594,-4.5306,-4.4682,-4.3374,-4.2797,-4.2124,-4.0766,-4.0496,-4.0496,-4.0496,-4.0496,-4.0496,-4.0496,-4.0112,-3.9823,-3.9823,-3.8334,-3.7123,-3.6731,-3.6308,-3.5885,-3.5538,-3.5383,-3.5198,-3.4879,-3.4908,-3.4714,-3.422,-3.4195,-3.4123,-3.3986,-3.5032,-3.5573,-3.5573,-3.7221,-3.8028,-3.8043,-3.8487,-3.8707,-3.9666,-4.0459,-4.1025,-4.1025,-4.0281,-3.9139,-3.7499,-3.5019,-3.2344,-2.9785,-2.7266,-2.5488,-2.5371,-2.6875,-2.9258,-3.2676,-3.6152,-3.9668,-4.3203,-4.4453,-4.5683,-4.7558,-4.8437,-4.9277,-5.0254,-5.0996,-5.1406,-5.1406,-5.1406,-5.1406,-5.1406,-5.1406,-5.1406,-5.1406,-5.1406,-5.1406,-5.1406,-5.1406,-5.1406,-5.1406,-5.1406,-5.1406,-5.1406,-5.1406,-5.1406,-5.1406,0.0,0.0,-5.121,-5.116,-5.1174,-5.1228,-5.116,-5.1257,-5.1406,-5.1406,-5.1406,-5.1406,-5.1406,-5.1406,-5.1387,-5.1289,-5.0176,-4.8887,-4.8769,-4.7598,-4.6247,-4.5978,-4.5899,-4.5842,-4.5653,-4.5594,-4.5594,-4.5594,-4.4932,-4.4085,-4.3278,-4.2316,-4.1393,-4.065,-4.0496,-4.0496,-4.0496,-4.0496,-4.0496,-4.0496,-4.0496,-4.0496,-4.0496,-3.9142,-3.7834,-3.6962,-3.6769,-3.6365,-3.5577,-3.5289,-3.513,-3.5105,-3.4917,-3.4764,-3.4694,-3.4456,-3.4304,-3.4277,-3.5631,-3.6356,-3.6356,-3.7933,-3.8707,-3.8707,-3.8707,-3.8707,-4.0507,-4.1053,-4.1171,-4.1171,-3.9979,-3.8339,-3.6621,-3.3691,-3.0605,-2.7988,-2.5937,-2.4414,-2.3672,-2.5566,-2.8359,-3.1836,-3.5293,-3.8965,-4.3125,-4.4453,-4.5918,-4.8379,-4.8808,-4.9492,-5.1035,-5.1328,0.0,0.0,0.0,-5.1406,-5.1406,-5.1406,-5.1406,-5.1406,-5.1406,-5.1406,-5.1406,-5.1406,-5.1406,-5.1406,-5.1406,-5.1406,-5.1406,-5.1406,-5.1406,-5.1406,-5.1406,0.0,-5.1366,-5.1343,-5.1344,-5.1366,-5.1343,-5.1365,-5.1406,-5.1406,-5.1406,-5.1406,-5.1406,-5.1406,-5.1289,-5.0625,-4.9726,-4.8769,-4.8047,-4.7109,-4.6247,-4.5978,-4.5899,-4.5842,-4.5653,-4.5594,-4.5594,-4.5594,-4.4932,-4.4085,-4.3278,-4.1854,-4.0689,-4.0535,-4.0496,-4.0496,-4.0496,-4.0496,-4.0496,-4.0496,-4.0496,-4.0496,-4.0496,-3.9669,-3.8738,-3.7873,-3.7142,-3.6365,-3.5577,-3.5453,-3.5346,-3.5113,-3.5254,-3.5155,-3.4714,-3.486,-3.4841,-3.4622,-3.5925,-3.6636,-3.6636,-3.8015,-3.8707,-3.8707,-3.8707,-3.8707,-4.0859,-4.1191,-4.1094,-4.0644,-3.9219,-3.7129,-3.4043,-3.1016,-2.8008,-2.4961,-2.332,-2.2285,-2.1875,-2.3906,-2.6484,-2.9062,-3.2012,-3.5625,-4.0371,-4.1797,-4.3808,-4.7754,-4.8613,-4.9551,-5.123,-5.1406,-5.1406,-5.1406,0.0,-5.1406,-5.1406,-5.1406,-5.1406,-5.1406,-5.1406,-5.1406,-5.1406,-5.1406,-5.1406,-5.1406,-5.1406,-5.1406,-5.1406,-5.1406,-5.1406,-5.1406,-5.1406,0.0,-5.1296,-5.1296,-5.1296,-5.1296,-5.1296,-5.1343,-5.1406,-5.1406,-5.1406,-5.1406,-5.1406,-5.1133,-5.0644,-4.9805,-4.9238,-4.873,-4.7851,-4.6931,-4.6149,-4.5963,-4.5872,-4.5807,-4.564,-4.5594,-4.5594,-4.5594,-4.4605,-4.3451,-4.2604,-4.1412,-4.0496,-4.0496,-4.0496,-4.0496,-4.0496,-4.0496,-4.0496,-4.0496,-4.0496,-4.0496,-4.0496,-4.0169,-3.9438,-3.8142,-3.7219,-3.6365,-3.5577,-3.55,-3.5446,-3.5312,-3.5432,-3.5383,-3.5122,-3.5105,-3.5243,-3.5533,-3.6297,-3.6912,-3.7335,-3.8243,-3.8707,-3.8707,-3.8707,-3.8707,-4.0625,-4.1055,-4.0996,-4.0117,-3.8457,-3.5957,-3.1836,-2.873,-2.5801,-2.2578,-2.1211,-2.0664,-2.084,-2.2519,-2.4609,-2.6914,-2.916,-3.248,-3.7851,-3.9512,-4.1953,-4.6758,-4.8262,0.0,-5.0996,-5.1308,0.0,-5.1406,0.0,0.0,-5.1406,-5.1406,-5.1406,-5.1406,-5.1406,-5.1406,-5.1406,-5.1406,-5.1406,-5.1406,-5.1406,-5.1406,-5.1406,-5.1406,-5.1406,-5.1406,-5.1406,0.0,0.0,-5.124,-5.124,-5.124,-5.124,-5.1318,-5.1406,-5.1406,-5.1406,-5.1387,-5.1191,-5.0723,-5.0039,-4.8965,-4.8613,-4.8457,-4.7598,-4.6749,-4.6077,-4.5932,-4.5845,-4.5775,-4.5635,-4.5594,-4.5518,-4.5152,-4.4066,-4.2816,-4.1758,-4.0969,-4.0496,-4.0496,-4.0496,-4.0496,-4.0496,-4.0496,-4.0496,-4.0496,-4.0496,-4.0496,-4.0496,-4.0342,-3.9746,-3.8411,-3.768,-3.6846,-3.5846,-3.575,-3.5673,-3.5519,-3.55,-3.5577,-3.575,-3.5546,-3.5829,-3.6659,-3.6977,-3.7473,-3.8084,-3.8563,-3.8788,-3.8773,-3.8719,-3.8707,-3.957,-4.0605,-4.0996,-4.0117,-3.7988,-3.5195,-3.1699,-2.8262,-2.5078,-2.2441,-2.1211,-2.084,-2.1621,-2.1973,-2.3457,-2.7519,-2.9043,-3.1797,-3.7754,-4.0039,-4.2402,-4.5996,0.0,0.0,-5.0215,-5.0976,-5.1406,0.0,0.0,0.0,-5.1406,-5.1406,-5.1406,-5.1406,-5.1406,-5.1406,-5.1406,-5.1406,-5.1406,-5.1406,-5.1406,-5.1406,-5.1406,-5.1406,-5.1406,-5.1406,-5.1406,0.0,0.0,-5.1386,-5.1386,-5.1386,-5.1386,-5.1386,-5.1406,-5.1406,-5.1406,-5.1308,-5.0566,-5.0254,-4.9922,-4.8262,-4.7715,-4.7558,-4.668,-4.6279,-4.6077,-4.5932,-4.5845,-4.5775,-4.5635,-4.5594,-4.5229,-4.3682,-4.3201,-4.2643,-4.0977,-4.0554,-4.0496,-4.0496,-4.0496,-4.0496,-4.0496,-4.0496,-4.0496,-4.0496,-4.0496,-4.0496,-4.0496,-3.9861,-3.9361,-3.9207,-3.9111,-3.8392,-3.6731,-3.6596,-3.6269,-3.5558,-3.55,-3.5827,-3.6558,-3.6563,-3.6959,-3.7831,-3.8344,-3.8641,-3.8718,-3.8946,-3.9058,-3.9063,-3.88,-3.8707,-3.7851,-3.8965,-3.9434,-3.8555,-3.6367,-3.3535,-3.0117,-2.7031,-2.4199,-2.1641,-2.084,-2.0703,-2.1055,-2.1113,-2.2012,-2.4785,-2.5527,-2.748,-3.248,-3.5098,-3.8184,-4.2695,-4.5195,0.0,0.0,0.0,-5.0879,0.0,0.0,0.0,-5.1406,-5.1406,-5.1406,-5.1406,-5.1406,-5.1406,-5.1406,-5.1406,-5.1406,-5.1406,-5.1406,-5.1406,-5.1406,-5.1406,-5.1406,-5.1406,-5.1406,0.0,0.0,-5.1406,-5.1406,-5.1406,-5.1406,-5.1406,-5.1406,-5.1406,-5.1406,-5.1289,-5.0488,-4.9863,-4.9199,-4.7901,-4.7114,-4.6625,-4.6273,-4.6053,-4.5911,-4.5853,-4.5757,-4.5665,-4.562,-4.5594,-4.5306,-4.4105,-4.3451,-4.2777,-4.1546,-4.0873,-4.0496,-4.0496,-4.0496,-4.0496,-4.0496,-4.0496,-4.0496,-4.0496,-4.0496,-4.0496,-4.0496,-4.0227,-4.0015,-4.0015,-3.8642,-3.745,-3.675,-3.625,-3.5846,-3.5519,-3.5942,-3.6365,-3.6692,-3.7199,-3.7892,-3.8757,-3.8779,-3.9052,-3.9576,-3.9263,-3.9112,-3.9099,-3.8815,-3.8707,-3.5996,-3.7363,-3.8008,-3.7129,-3.5137,-3.2441,-2.875,-2.6094,-2.3672,-2.1133,-2.0605,-2.0605,-2.0605,-2.0605,-2.1094,-2.2578,-2.3223,-2.5059,-2.9375,-3.2187,-3.5527,-4.0254,0.0,-4.5683,0.0,-4.959,0.0,0.0,0.0,0.0,-5.1406,-5.1406,-5.1406,-5.1406,-5.1406,-5.1406,-5.1406,-5.1406,-5.1406,-5.1406,-5.1406,-5.1406,-5.1406,-5.1406,-5.1406,-5.1406,0.0,0.0,0.0,-5.1406,-5.1406,-5.1406,-5.1406,-5.1406,-5.1406,-5.1406,-5.125,-5.0937,-5.0098,-4.9218,-4.8295,-4.7332,-4.6552,-4.6004,-4.6004,-4.5911,-4.5803,-4.5803,-4.57,-4.5594,-4.5594,-4.5594,-4.5325,-4.4201,-4.3508,-4.2797,-4.1662,-4.0931,-4.0496,-4.0496,-4.0496,-4.0496,-4.0496,-4.0496,-4.0496,-4.0496,-4.0496,-4.0496,-4.0496,-4.0496,-4.0419,-4.0169,-3.8546,-3.7353,-3.7123,-3.6327,-3.5729,-3.5403,-3.6202,-3.6786,-3.6965,-3.7882,-3.8796,-3.965,-3.9412,-3.9593,-4.0213,-3.9557,-3.9238,-3.9238,-3.8873,-3.8707,-3.4043,-3.5996,-3.7109,-3.623,-3.4707,-3.2285,-2.7988,-2.5664,-2.3672,-2.1133,-2.0605,-2.0605,-2.0605,-2.0605,-2.0898,-2.1777,-2.3301,-2.5918,-3.0273,-3.3086,-3.5996,0.0,0.0,-4.4062,-4.4961,-4.8164,0.0,0.0,0.0,0.0,-5.1406,-5.1406,-5.1406,-5.1406,-5.1406,-5.1406,-5.1406,-5.1406,-5.1406,-5.1406,-5.1406,-5.1406,-5.1406,-5.1406,-5.1406,0.0,0.0,0.0,0.0,-5.1406,-5.1406,-5.1406,-5.1406,-5.1406,-5.1406,-5.1406,-5.0898,-5.0098,-4.9219,-4.8253,-4.7264,-4.6403,-4.5974,-4.5803,-4.5803,-4.5803,-4.5803,-4.5803,-4.57,-4.5594,-4.5594,-4.5594,-4.519,-4.3508,-4.3104,-4.2624,-4.09,-4.0516,-4.0496,-4.0496,-4.0496,-4.0496,-4.0496,-4.0496,-4.0496,-4.0496,-4.0496,-4.0496,-4.0496,-4.0496,-4.0189,-3.94,-3.9284,-3.8911,-3.8065,-3.7199,-3.6228,-3.5179,-3.6109,-3.6976,-3.7562,-3.8684,-3.9669,-4.0477,-4.0477,-4.0489,-4.0489,-3.9884,-3.9599,-3.9587,-3.8984,-3.8707,-2.9219,-3.0703,-3.1836,-3.0957,-2.9434,-2.7637,-2.5664,-2.3906,-2.2285,-2.0898,-2.0605,-2.0605,-2.0605,-2.0605,-2.1465,-2.4062,-2.4941,-2.6602,-3.0371,-3.3086,0.0,-3.8672,-4.3359,-4.6465,0.0,0.0,0.0,0.0,0.0,0.0,-4.9687,-4.9687,-4.9961,-5.0566,-5.0586,-5.0586,-5.0586,-5.0586,-5.0859,-5.1406,-5.1406,-5.1406,-5.1406,-5.1406,0.0,0.0,0.0,0.0,0.0,-5.1406,-5.1406,-5.1406,-5.1406,-5.1406,-5.1406,-5.1406,-5.0898,-5.0078,-4.9199,-4.8234,-4.7235,-4.6284,-4.5886,-4.5776,-4.5685,-4.5657,-4.5657,-4.5657,-4.5627,-4.5594,-4.5594,-4.5171,-4.4432,-4.3355,-4.2643,-4.1893,-4.0746,-4.0496,-4.0496,-4.0496,-4.0496,-4.0496,-4.0496,-4.0496,-4.0496,-4.0496,-4.0496,-4.0496,-4.0496,-4.0496,-4.04,-4.015,-3.9631,-3.87,-3.7238,-3.6688,-3.6123,-3.5426,-3.6599,-3.748,-3.7859,-3.9331,-4.0246,-4.0496,-4.0496,-4.0496,-4.0496,-3.9894,-3.9389,-3.8984,-3.9344,-3.9515,-2.625,-2.7539,-2.8496,-2.7949,-2.6758,-2.5391,-2.4219,-2.2891,-2.1641,-2.0781,-2.0605,-2.0605,-2.0605,-2.0605,-2.1309,-2.3437,-2.4316,-2.5937,-2.9434,0.0,0.0,-3.9121,0.0,0.0,0.0,0.0,0.0,0.0,0.0,0.0,-4.8906,-4.8845,-4.8942,-4.9219,-4.9531,-4.9707,-4.9707,-5.0039,-5.0449,-5.0957,-5.1208,-5.1321,-5.1321,-5.1321,0.0,0.0,0.0,0.0,0.0,-5.1406,-5.1406,-5.1406,-5.1406,-5.1406,-5.1367,-5.1055,-5.043,-4.957,-4.8649,-4.7687,-4.6723,-4.6066,-4.5802,-4.5708,-4.5637,-4.5594,-4.5594,-4.5594,-4.5594,-4.5518,-4.519,-4.4701,-4.4008,-4.2874,-4.22,-4.1566,-4.0689,-4.0496,-4.0496,-4.0496,-4.0496,-4.0496,-4.0496,-4.0496,-4.0496,-4.0496,-4.0496,-4.0496,-4.0496,-4.0496,-4.0381,-4.0073,-3.9881,-3.9016,-3.7156,-3.6564,-3.6112,-3.5676,-3.6892,-3.7825,-3.8323,-3.9727,-4.0496,-4.0496,-4.0496,-4.0496,-4.0496,-3.9894,-3.9444,-3.9166,-3.9662,-4.0065,0.0,-2.5879,-2.6621,-2.6562,-2.5937,-2.4922,-2.3379,-2.2383,0.0,-2.0762,-2.0605,-2.0644,-2.0762,-2.0723,-2.0781,-2.1094,-2.2441,-2.4687,0.0,-3.1074,0.0,0.0,-4.2851,0.0,0.0,0.0,0.0,0.0,0.0,0.0,-4.8691,-4.8576,-4.82,-4.7499,-4.8261,-4.873,-4.8808,-4.9609,-5.0039,-5.0097,-5.0773,-5.1099,-5.1099,-5.1157,0.0,0.0,0.0,0.0,0.0,-5.1386,-5.1386,-5.1386,-5.1386,-5.1386,-5.1308,-5.0508,-4.9648,-4.8769,-4.7749,-4.6748,-4.59,-4.5802,-4.57,-4.5594,-4.5594,-4.5594,-4.5594,-4.5594,-4.5556,-4.5325,-4.4509,-4.4201,-4.3739,-4.2181,-4.175,-4.1489,-4.0669,-4.0496,-4.0496,-4.0496,-4.0496,-4.0496,-4.0496,-4.0496,-4.0496,-4.0496,-4.0496,-4.0496,-4.0496,-4.0496,-4.0208,-3.9477,-4.0038,-3.9673,-3.7737,-3.687,-3.6321,-3.6031,-3.7053,-3.804,-3.8888,-3.9939,-4.0496,-4.0496,-4.0496,-4.0481,-4.043,-3.9931,-3.9762,-3.99,-4.0026,-4.0469,-1.9648,0.0,-2.2949,-2.2266,-2.1953,-2.1699,0.0,-2.1055,-2.0859,-2.0644,-2.0605,-2.0996,-2.2285,-2.2012,-2.2676,-2.5957,-2.6816,-2.8281,-3.1719,0.0,0.0,-4.2793,-4.4648,-4.5859,0.0,0.0,0.0,0.0,0.0,-4.6873,-4.6754,-4.6722,-4.6582,-4.6307,-4.6502,-4.7025,-4.7891,-4.8017,-4.8394,-4.9057,-4.977,-5.0135,-5.0155,-5.0828,0.0,0.0,0.0,0.0,-5.1172,-5.1172,-5.1196,-5.1242,-5.1242,-5.1318,-5.1308,-5.0508,-4.9648,-4.8769,-4.7749,-4.6748,-4.5867,-4.5691,-4.5637,-4.5594,-4.5594,-4.5594,-4.5594,-4.5594,-4.5133,-4.4566,-4.4355,-4.3355,-4.2297,-4.1885,-4.1296,-4.0746,-4.0535,-4.0496,-4.0496,-4.0496,-4.0496,-4.0496,-4.0496,-4.0496,-4.0496,-4.0496,-4.0496,-4.0496,-4.0496,-4.0496,-4.0439,-4.0246,-4.0206,-3.9652,-3.8306,-3.802,-3.7675,-3.7158,-3.7809,-3.8518,-3.9188,-4.005,-4.0496,-4.0496,-4.0496,-4.0274,-3.981,-4.0287,-4.0309,-3.9918,-4.1148,-4.1846,-1.8008,-1.9629,-2.1191,-2.0723,-2.0898,-2.1191,-2.1191,-2.0898,-2.0605,-2.0605,-2.0605,-2.0996,-2.2305,-2.2519,-2.3379,-2.6074,-2.7519,0.0,0.0,0.0,-4.1816,-4.3496,-4.4883,0.0,0.0,0.0,0.0,0.0,0.0,-4.6175,-4.6091,-4.6004,-4.5951,-4.5899,-4.5862,-4.616,-4.6819,-4.7137,-4.7548,-4.8016,-4.8764,-4.9104,-4.9143,-5.0006,-5.0414,0.0,0.0,0.0,-5.1089,-5.1089,-5.1111,-5.1147,-5.1147,-5.0943,-5.0571,-4.9808,-4.8955,-4.8073,-4.7064,-4.6294,-4.5731,-4.5632,-4.5594,-4.5594,-4.5594,-4.5594,-4.5594,-4.5594,-4.4979,-4.4201,-4.3855,-4.2777,-4.1692,-4.1296,-4.0835,-4.0496,-4.0496,-4.0496,-4.0496,-4.0496,-4.0496,-4.0496,-4.0496,-4.0496,-4.0496,-4.0496,-4.0496,-4.0496,-4.0496,-4.0389,-4.0321,-4.0321,-4.0043,-3.9553,-3.8782,-3.8851,-3.8658,-3.7962,-3.8226,-3.8839,-3.9808,-4.0265,-4.0496,-4.0496,-4.0496,-4.0193,-3.9599,-4.004,-4.0328,-4.0469,-4.135,-4.2139,-1.793,-1.9375,-2.0723,-2.0469,-2.1152,-2.1894,-2.1894,-2.123,-2.0684,-2.0937,-2.0898,-2.1172,-2.2441,-2.3281,-2.4121,-2.5215,0.0,0.0,-3.5918,-3.9355,-4.2012,-4.3691,-4.4668,0.0,0.0,0.0,0.0,0.0,0.0,-4.6082,-4.6061,-4.5885,-4.5814,-4.5862,-4.5796,-4.579,-4.5842,-4.661,-4.6989,-4.7009,-4.7727,-4.8085,-4.8123,-4.8975,-4.9374,-4.9427,0.0,0.0,-5.0856,-5.0986,-5.1042,-5.1063,-5.1084,-5.0573,-4.9701,-4.8981,-4.8164,-4.7255,-4.6251,-4.577,-4.5594,-4.5594,-4.5594,-4.5594,-4.5594,-4.5594,-4.5575,-4.5441,-4.4778,-4.3932,-4.3104,-4.2258,-4.1412,-4.0689,-4.0496,-4.0496,-4.0496,-4.0496,-4.0496,-4.0496,-4.0496,-4.0496,-4.0496,-4.0496,-4.0496,-4.0496,-4.0496,-4.0481,-4.043,-4.0232,-4.0081,-4.0022,-3.9712,-3.9426,-3.9205,-3.9389,-3.9274,-3.8696,-3.8669,-3.9202,-4.0442,-4.0465,-4.0449,-4.0449,-4.0397,-4.0082,-3.951,-3.9661,-4.02,-4.1095,-4.1224,-4.2084,-1.7598,-1.9805,-2.1348,-1.9863,-2.0703,-2.1894,-2.1894,-2.123,-2.1016,-2.25,-2.2207,-2.2637,-2.5664,-2.6328,-2.7187,-2.9512,0.0,-3.5019,0.0,0.0,-4.2851,-4.459,0.0,0.0,0.0,0.0,0.0,0.0,0.0,0.0,-4.585,-4.5828,-4.5742,-4.5645,-4.5643,-4.5643,-4.5657,-4.5886,-4.6015,-4.6015,-4.6765,-4.712,-4.7139,-4.7967,-4.8333,-4.8372,0.0,-4.9667,-4.9725,-5.0457,-5.0839,-5.0945,-5.1067,-5.0573,-4.9709,-4.9104,-4.825,-4.7255,-4.6251,-4.577,-4.5594,-4.5594,-4.5594,-4.5594,-4.5594,-4.5594,-4.546,-4.4701,-4.3912,-4.3085,-4.222,-4.1354,-4.0669,-4.0535,-4.0496,-4.0496,-4.0496,-4.0496,-4.0496,-4.0496,-4.0496,-4.0496,-4.0496,-4.0496,-4.0496,-4.0496,-4.0496,-4.0425,-4.0186,-4.012,-3.9992,-3.972,-3.9377,-3.9264,-3.9498,-3.9302,-3.9376,-3.9802,-3.9832,-4.0043,-4.0489,-4.0267,-4.0158,-4.0158,-3.9882,-3.9557,-3.9192,-3.9856,-4.0511,-4.1113,-4.1809,-4.2598,-1.6387,-1.8496,-2.043,-2.0078,-2.2344,-2.4531,-2.4062,-2.3633,-2.3574,-2.4394,-2.4238,-2.457,-2.6621,-2.7773,-2.9551,-3.3086,0.0,-3.7539,-3.9609,-4.1348,-4.2871,0.0,0.0,0.0,0.0,0.0,0.0,0.0,0.0,0.0,-4.5816,-4.5725,-4.5657,-4.5594,-4.5594,-4.5594,-4.5594,-4.5657,-4.5685,-4.5704,-4.6042,-4.6201,-4.622,-4.7067,-4.7451,-4.7509,0.0,-4.8702,-4.874,-4.9125,-4.9324,-4.9399,-4.9455,-4.8977,-4.8154,-4.7508,-4.6981,-4.6514,-4.6056,-4.577,-4.5594,-4.5594,-4.5594,-4.5594,-4.5594,-4.5594,-4.5325,-4.4008,-4.3393,-4.2893,-4.2019,-4.1143,-4.0496,-4.0496,-4.0496,-4.0496,-4.0496,-4.0496,-4.0496,-4.0496,-4.0496,-4.0496,-4.0496,-4.0496,-4.0496,-4.0496,-4.0372,-4.0232,-4.011,-3.9786,-3.9505,-3.9339,-3.9068,-3.8937,-3.9087,-3.9275,-3.9587,-4.0071,-4.0251,-4.0372,-4.0489,-4.0232,-4.0101,-4.0101,-3.9775,-3.9445,-3.9112,-3.9904,-4.0581,-4.1113,-4.1937,-4.2727,-1.6191,-1.793,-1.9805,-2.0684,-2.3379,-2.5898,-2.623,-2.584,-2.5684,-2.6719,-2.6758,-2.6875,-2.7754,-2.9492,0.0,-3.5976,-3.7891,-3.9277,-4.0332,-4.1777,0.0,0.0,0.0,0.0,0.0,0.0,0.0,0.0,0.0,0.0,-4.5168,-4.5244,-4.5306,-4.5306,-4.5498,-4.5594,-4.5594,-4.5594,-4.5594,-4.5594,-4.5594,-4.5594,-4.5614,-4.6297,-4.6605,-4.6644,-4.7471,-4.7817,-4.7836,-4.8029,-4.8105,-4.8105,-4.813,-4.7676,-4.6914,-4.615,-4.5896,-4.5894,-4.5886,-4.5757,-4.5594,-4.5594,-4.5594,-4.5594,-4.5594,-4.5594,-4.5248,-4.3566,-4.3104,-4.2854,-4.1777,-4.0989,-4.0496,-4.0496,-4.0496,-4.0496,-4.0496,-4.0496,-4.0496,-4.0496,-4.0496,-4.0496,-4.0496,-4.0496,-4.0496,-4.0496,-4.0258,-4.0081,-3.9992,-3.9481,-3.9072,-3.9008,-3.8815,-3.8765,-3.8888,-3.9457,-3.9924,-4.0177,-4.033,-4.0417,-4.0417,-4.0053,-3.987,-3.987,-3.9559,-3.9262,-3.9013,-3.9816,-4.0507,-4.1113,-4.1937,-4.2727,-1.8574,-1.9746,-2.0723,-2.1582,-2.2031,-2.3281,-2.7226,-2.623,-2.5644,-2.9687,-2.9883,-2.959,-3.0469,-3.2656,-3.5234,-3.7969,-3.9199,-4.0371,0.0,0.0,0.0,0.0,0.0,0.0,0.0,0.0,0.0,0.0,0.0,0.0,-4.3299,-4.3978,-4.4393,-4.4393,-4.519,-4.5594,-4.5594,-4.5594,-4.5594,-4.5594,-4.5594,-4.5594,-4.5594,-4.5671,-4.5691,-4.5748,-4.6605,-4.6981,-4.7038,-4.7798,-4.8105,-4.8105,-4.8245,-4.7902,-4.7245,-4.6194,-4.5853,-4.5885,-4.5832,-4.573,-4.5594,-4.5594,-4.5594,-4.5594,-4.5594,-4.5594,-4.5248,-4.3566,-4.3104,-4.2701,-4.1035,-4.0554,-4.0496,-4.0496,-4.0496,-4.0496,-4.0496,-4.0496,-4.0496,-4.0496,-4.0496,-4.0496,-4.0496,-4.0496,-4.0496,-4.0496,-4.0258,-3.9992,-3.9668,-3.9314,-3.8994,-3.8747,-3.8704,-3.8931,-3.9481,-4.0082,-4.0457,-4.0473,-4.0269,-4.0129,-4.0129,-3.9498,-3.916,-3.916,-3.8898,-3.875,-3.8735,-3.9543,-4.0336,-4.1113,-4.1937,-4.2727,-1.75,-1.9102,-2.0801,-2.168,-2.3086,-2.4961,-2.7676,-2.8789,-3.0019,-3.2715,-3.3008,-3.2871,-3.3203,0.0,-3.6816,-3.8359,-3.9785,-4.0937,0.0,0.0,0.0,0.0,0.0,0.0,0.0,0.0,0.0,0.0,0.0,0.0,0.0,-4.3393,-4.3778,-4.4278,-4.4624,-4.5056,-4.5594,-4.5594,-4.5594,-4.5594,-4.5594,-4.5594,-4.5594,-4.5594,-4.5594,-4.5614,-4.5951,-4.6086,-4.6124,-4.6413,-4.6547,-4.6537,-4.6593,-4.6525,-4.6353,-4.5944,-4.5821,-4.5825,-4.5803,-4.5715,-4.5594,-4.5594,-4.5594,-4.5594,-4.5594,-4.5229,-4.4547,-4.3412,-4.272,-4.2008,-4.0804,-4.0496,-4.0496,-4.0496,-4.0496,-4.0496,-4.0496,-4.0496,-4.0496,-4.0496,-4.0496,-4.0496,-4.0496,-4.0496,-4.043,-4.0286,-3.9983,-3.9668,-3.9327,-3.9027,-3.88,-3.8704,-3.8707,-3.8888,-3.9364,-3.9622,-3.9974,-4.0473,-4.0241,-4.0101,-4.0101,-3.9469,-3.9112,-3.9112,-3.8844,-3.8946,-3.9441,-4.0249,-4.1056,-4.1882,-4.2671,-4.3221,-1.7598,-1.9238,-2.1211,-2.207,-2.4219,-2.6641,-2.8652,-3.0723,-3.2832,-3.5059,-3.5293,-3.5273,-3.582,-3.668,0.0,0.0,-4.0234,0.0,0.0,0.0,0.0,0.0,0.0,0.0,0.0,0.0,0.0,0.0,0.0,0.0,0.0,-4.2547,-4.3066,-4.3893,-4.4162,-4.472,-4.5594,-4.5594,-4.5594,-4.5594,-4.5594,-4.5594,-4.5594,-4.5594,-4.5594,-4.5594,-4.5594,-4.5594,-4.5594,-4.5594,-4.5594,-4.5594,-4.5594,-4.5688,-4.5796,-4.5754,-4.5749,-4.579,-4.5754,-4.568,-4.5594,-4.5594,-4.5594,-4.5594,-4.5594,-4.519,-4.4489,-4.3393,-4.2662,-4.195,-4.0804,-4.0496,-4.0496,-4.0496,-4.0496,-4.0496,-4.0496,-4.0496,-4.0496,-4.0496,-4.0496,-4.0496,-4.0496,-4.0441,-4.0321,-4.0129,-3.9712,-3.9352,-3.9139,-3.8869,-3.8707,-3.8707,-3.8707,-3.8822,-3.9091,-3.9463,-3.9905,-4.0473,-4.0213,-4.0012,-3.9943,-3.9327,-3.8971,-3.8971,-3.9028,-3.935,-3.99,-4.0965,-4.1772,-4.2323,-4.313,-4.3515,-1.9531,-2.0566,-2.2109,-2.291,-2.5098,-2.7715,-3.0332,-3.1601,-3.3203,-3.6621,-3.6641,-3.6562,-3.8281,-3.7891,0.0,-3.9629,0.0,0.0,0.0,0.0,0.0,0.0,0.0,0.0,0.0,0.0,0.0,0.0,0.0,0.0,0.0,-4.1316,-4.22,-4.3066,-4.3874,-4.4701,-4.5575,-4.5594,-4.5594,-4.5594,-4.5594,-4.5594,-4.5594,-4.5594,-4.5594,-4.5594,-4.5594,-4.5594,-4.5594,-4.5594,-4.5594,-4.5594,-4.5594,-4.5688,-4.5776,-4.566,-4.5669,-4.5769,-4.5651,-4.5594,-4.5594,-4.5594,-4.5594,-4.5594,-4.5594,-4.5594,-4.5229,-4.3566,-4.3085,-4.2681,-4.0958,-4.0496,-4.0496,-4.0496,-4.0496,-4.0496,-4.0496,-4.0496,-4.0496,-4.0496,-4.0496,-4.0496,-4.0516,-4.0286,-4.0101,-4.011,-3.9529,-3.9112,-3.9099,-3.8855,-3.8707,-3.8707,-3.8707,-3.8707,-3.8707,-3.98,-4.0489,-4.0496,-4.0129,-3.98,-3.9611,-3.9027,-3.8707,-3.8707,-3.9496,-3.9918,-3.9918,-4.1515,-4.2304,-4.2323,-4.313,-4.3515,-1.8789,-2.0547,-2.3008,-2.3809,-2.6894,-3.0254,-3.2207,-3.3809,-3.5684,-3.8535,-3.8926,-3.8711,-3.8613,-3.8887,0.0,-3.9824,0.0,0.0,0.0,0.0,0.0,0.0,0.0,0.0,0.0,0.0,0.0,0.0,0.0,0.0,0.0,-4.0746,-4.1296,-4.2162,-4.3008,-4.3855,-4.4682,-4.5287,-4.5594,-4.5594,-4.5594,-4.5594,-4.5594,-4.5594,-4.5594,-4.5594,-4.5594,-4.5594,-4.5594,-4.5594,-4.5594,-4.5594,-4.5594,-4.5618,-4.5648,-4.562,-4.5637,-4.564,-4.562,-4.5594,-4.5594,-4.5594,-4.5594,-4.5594,-4.5594,-4.4786,-4.3739,-4.3239,-4.222,-4.115,-4.0631,-4.0496,-4.0496,-4.0496,-4.0496,-4.0496,-4.0496,-4.0496,-4.0496,-4.0496,-4.0496,-4.0689,-4.1316,-4.0689,-4.0412,-4.1366,-4.0209,-3.9136,-3.8859,-3.8747,-3.8707,-3.8707,-3.8707,-3.8707,-3.8707,-3.9022,-3.9599,-4.0457,-4.0397,-4.0091,-3.9622,-3.9565,-3.9533,-3.9533,-4.0341,-4.102,-4.1589,-4.2066,-4.2598,-4.3149,-4.3404,-4.3515,-2.0644,-2.2578,-2.5078,-2.6602,-2.9219,-3.2129,-3.4844,-3.6289,-3.7676,-3.9941,-4.0137,-3.9844,-3.9668,-3.9785,0.0,0.0,0.0,0.0,0.0,0.0,0.0,0.0,0.0,0.0,0.0,0.0,0.0,0.0,0.0,0.0,0.0,-4.0496,-4.0893,-4.1769,-4.2316,-4.3143,-4.4297,-4.4816,-4.5267,-4.5594,-4.5594,-4.5594,-4.5594,-4.5594,-4.5594,-4.5594,-4.5594,-4.5594,-4.5594,-4.5594,-4.5594,-4.5594,-4.5594,-4.5594,-4.5594,-4.5594,-4.5594,-4.5594,-4.5594,-4.5594,-4.5594,-4.5594,-4.5594,-4.5537,-4.519,-4.4374,-4.3431,-4.2777,-4.1835,-4.0931,-4.0593,-4.0496,-4.0496,-4.0496,-4.0496,-4.0496,-4.0496,-4.0496,-4.0496,-4.0496,-4.0496,-4.0669,-4.1181,-4.0585,-4.0285,-4.1098,-3.9995,-3.897,-3.8719,-3.8707,-3.8707,-3.8707,-3.8707,-3.8707,-3.8707,-3.8707,-3.9216,-4.0422,-4.1766,-4.1934,-4.0599,-4.0251,-4.0157,-4.0377,-4.1167,-4.1827,-4.2304,-4.2616,-4.302,-4.3515,-4.3515,-4.3515,-2.3652,-2.5449,-2.7539,-3.0234,-3.1738,-3.3594,-3.7578,-3.8476,-3.9004,-4.082,-4.0566,-4.0254,-4.1055,-4.0547,-4.0273,0.0,0.0,0.0,0.0,0.0,0.0,0.0,0.0,0.0,0.0,0.0,0.0,0.0,0.0,0.0,0.0,-4.0496,-4.0854,-4.1662,-4.175,-4.2527,-4.4066,-4.4143,-4.4586,-4.5364,-4.5364,-4.5421,-4.5479,-4.5556,-4.5594,-4.5594,-4.5594,-4.5594,-4.5594,-4.5594,-4.5594,-4.5594,-4.5594,-4.5594,-4.5594,-4.5594,-4.5594,-4.5594,-4.5594,-4.5594,-4.5594,-4.5594,-4.5556,-4.5325,-4.4528,-4.4182,-4.3758,-4.2239,-4.1731,-4.1527,-4.0804,-4.0554,-4.0535,-4.0708,-4.0689,-4.0631,-4.0631,-4.065,-4.065,-4.065,-4.0573,-4.0496,-4.0496,-4.0203,-3.9913,-3.9819,-3.9429,-3.9038,-3.8744,-3.8964,-3.9019,-3.8726,-3.8964,-3.9148,-3.9148,-3.9148,-3.9615,-4.0697,-4.3812,-4.4614,-4.2427,-4.1078,-4.0618,-4.115,-4.1992,-4.2415,-4.2415,-4.313,-4.3515,-4.3515,-4.3515,-4.3515,-2.1504,-2.3652,-2.6777,-3.0078,-3.3066,-3.5605,-3.7207,-3.7578,-3.8262,-4.0703,-4.1055,-4.0976,-4.1172,-4.1055,0.0,0.0,0.0,0.0,0.0,0.0,0.0,0.0,0.0,0.0,0.0,0.0,0.0,0.0,0.0,0.0,-4.0496,-4.0496,-4.0593,-4.0766,-4.145,-4.1962,-4.2335,-4.3028,-4.3451,0.0,-4.3643,-4.397,-4.4605,-4.5287,-4.5594,-4.5594,-4.5594,-4.5594,-4.5594,-4.5594,-4.5594,-4.5594,-4.5594,-4.5594,-4.5594,-4.5594,-4.5594,-4.5594,-4.5594,-4.5594,-4.5594,-4.5594,-4.5152,-4.4528,-4.4355,-4.3374,-4.2258,-4.1904,-4.1316,-4.0893,-4.1393,-4.1008,-4.0843,-4.222,-4.2027,-4.1527,-4.1527,-4.1681,-4.1824,-4.1824,-4.1112,-4.0496,-4.0496,-4.0422,-4.0043,-3.9105,-4.0962,-4.1552,-3.9019,-4.091,-4.1497,-3.8982,-4.0965,-4.2486,-4.2486,-4.2486,-4.258,-4.2838,-4.4573,-4.5377,-4.4844,-4.2324,-4.1185,-4.1734,-4.2725,-4.3239,-4.3239,-4.3423,-4.3515,-4.3515,-4.3515,-4.3515,-2.2109,-2.4336,-2.7246,-3.1133,-3.4062,-3.623,-3.7109,-3.7305,-3.7812,-3.959,-4.0293,-4.0586,-4.0586,0.0,0.0,0.0,0.0,0.0,0.0,0.0,0.0,0.0,0.0,0.0,0.0,0.0,0.0,0.0,0.0,-4.0496,-4.0496,-4.0496,-4.0496,-4.0496,-4.0931,-4.1373,-4.1788,-4.2258,-4.2701,-4.3104,-4.3104,-4.3316,-4.3778,-4.5037,-4.5594,-4.5594,-4.5594,-4.5594,-4.5594,-4.5594,-4.5594,-4.5594,-4.5594,-4.5594,-4.5594,-4.5594,-4.5344,-4.4979,-4.4979,-4.472,-4.4393,-4.4393,-4.4105,-4.3643,-4.3239,-4.2489,-4.1712,-4.1296,-4.0854,-4.0593,-4.1066,-4.1143,-4.1239,-4.1739,-4.1835,-4.1835,-4.197,-4.2104,-4.2035,-4.1497,-4.1574,-4.1739,-4.1739,-4.1054,-4.0606,-4.0945,-4.2415,-4.2892,-4.1203,-4.2451,-4.2872,-4.1185,-4.2488,-4.3515,-4.3515,-4.3515,-4.3515,-4.3515,-4.419,-4.4893,-4.5577,-4.3437,-4.2378,-4.267,-4.3221,-4.3515,-4.3515,-4.3515,-4.3515,-4.3515,-4.3515,-4.3515,-2.2715,-2.5332,-2.8184,-3.2187,-3.4492,-3.5996,-3.6875,-3.707,-3.7285,-3.8008,-3.8965,-3.9707,0.0,0.0,0.0,0.0,0.0,0.0,0.0,0.0,0.0,0.0,0.0,0.0,0.0,0.0,0.0,0.0,0.0,-4.0496,-4.0496,-4.0496,-4.0496,-4.0496,-4.0496,-4.0854,-4.1566,-4.1585,-4.195,-4.2643,-4.2797,-4.2874,-4.2931,-4.447,-4.5248,-4.5383,-4.5383,-4.546,-4.5594,-4.5594,-4.5594,-4.5594,-4.5441,-4.5479,-4.5556,-4.5287,-4.4797,-4.4278,-4.4143,-4.3662,-4.3104,-4.3104,-4.3008,-4.2739,-4.2019,-4.1692,-4.1431,-4.0708,-4.0496,-4.0535,-4.0689,-4.1143,-4.1489,-4.117,-4.1566,-4.2085,-4.2305,-4.2574,-4.2516,-4.1554,-4.2527,-4.3457,-4.3206,-4.1963,-4.1593,-4.3256,-4.3515,-4.3515,-4.3515,-4.3515,-4.3515,-4.3515,-4.3515,-4.3515,-4.3515,-4.3515,-4.3515,-4.3515,-4.3515,-4.4016,-4.5203,-4.4117,-4.3515,-4.3515,-4.3515,-4.3515,-4.3515,-4.3515,-4.3515,-4.3515,-4.3515,-4.3515,-1.9648,-2.3965,-2.8809,-3.1641,-3.3633,-3.5098,-3.5976,-3.6172,-3.6211,0.0,-3.7637,0.0,0.0,0.0,0.0,0.0,0.0,0.0,0.0,0.0,0.0,0.0,0.0,0.0,0.0,0.0,0.0,0.0,-4.0496,-4.0496,-4.0496,-4.0496,-4.0496,-4.0496,-4.0496,-4.0554,-4.0669,-4.0669,-4.0727,-4.0862,-4.1604,-4.1962,-4.2,-4.2989,-4.3816,-4.447,-4.447,-4.4893,-4.5594,-4.5594,-4.5594,-4.5518,-4.4759,-4.494,-4.5421,-4.397,-4.3797,-4.4201,-4.3508,-4.3181,-4.3104,-4.3104,-4.2585,-4.1942,-4.1827,-4.1277,-4.065,-4.0535,-4.0496,-4.0669,-4.1431,-4.1143,-4.115,-4.2997,-4.3181,-4.2931,-4.297,-4.4124,-4.5094,-4.496,-4.5114,-4.4888,-4.3654,-4.3241,-4.3178,-4.3475,-4.3515,-4.3515,-4.3515,-4.3515,-4.3515,-4.3515,-4.3515,-4.3515,-4.3515,-4.3515,-4.3515,-4.3515,-4.3515,-4.358,-4.3775,-4.3597,-4.3515,-4.3515,-4.3515,-4.3515,-4.3515,-4.3515,-4.3515,-4.3515,-4.3515,-4.3515,-2.0586,-2.4102,-2.7598,-3.0703,-3.2734,-3.4199,-3.5078,-3.5644,-3.5996,-3.5948,-3.6552,0.0,0.0,0.0,0.0,0.0,0.0,0.0,0.0,0.0,0.0,0.0,0.0,0.0,0.0,0.0,0.0,0.0,-4.0496,-4.0496,-4.0496,-4.0496,-4.0496,-4.0496,-4.0496,-4.0496,-4.0496,-4.0496,-4.0496,-4.0496,-4.0893,-4.1066,-4.1085,-4.147,-4.2374,-4.3624,-4.3624,-4.3855,-4.4201,-4.4201,-4.4201,-4.4162,-4.3778,-4.3855,-4.4105,-4.3374,-4.3008,-4.2854,-4.2489,-4.2047,-4.1643,-4.1643,-4.1373,-4.1066,-4.1066,-4.0804,-4.0496,-4.0496,-4.0496,-4.0593,-4.0969,-4.0785,-4.0997,-4.297,-4.3989,-4.4489,-4.4489,-4.5075,-4.5594,-4.5594,-4.495,-4.4233,-4.3614,-4.3515,-4.3515,-4.3515,-4.3515,-4.3515,-4.3515,-4.3515,-4.3515,-4.3515,-4.3515,-4.3515,-4.3515,-4.3515,-4.3515,-4.3515,-4.3515,-4.3515,-4.3515,-4.3515,-4.3515,-4.3515,-4.3515,-4.3515,-4.3515,-4.3515,-4.3515,-4.3515,-4.3515,-4.3515,-2.0644,-2.3105,-2.5234,-2.8691,-3.0995,-3.2693,0.0,0.0,-3.5592,0.0,0.0,0.0,0.0,0.0,0.0,0.0,0.0,0.0,0.0,0.0,0.0,0.0,0.0,0.0,0.0,0.0,0.0,0.0,-3.9861,-3.9958,-4.0189,-4.0208,-4.0285,-4.0496,-4.0496,-4.0496,-4.0496,-4.0496,-4.0496,-4.0496,-4.0496,-4.0496,-4.0496,-4.0496,-4.1208,-4.245,-4.2662,-4.2893,-4.3104,-4.3104,-4.3104,-4.3085,-4.2854,-4.2893,-4.3047,-4.2604,-4.2162,-4.1769,-4.1546,-4.1046,-4.0496,-4.0496,-4.0496,-4.0496,-4.0496,-4.0496,-4.0496,-4.0496,-4.0496,-4.0481,-4.0362,-4.0319,-4.0703,-4.2464,-4.3932,-4.5075,-4.5518,-4.5594,-4.5485,-4.5131,-4.4219,-4.3515,-4.3515,-4.3515,-4.3515,-4.3515,-4.3515,-4.3515,-4.3515,-4.3515,-4.3515,-4.3515,-4.3515,-4.3515,-4.3515,-4.3515,-4.3515,-4.3515,-4.3515,-4.3515,-4.3515,-4.3515,-4.3515,-4.3515,-4.3515,-4.3515,-4.3515,-4.3515,-4.3515,-4.3515,-4.3515,-4.3515,-1.7519,-1.9531,-2.1679,-2.5043,-2.7808,-3.0102,0.0,0.0,0.0,0.0,0.0,0.0,0.0,0.0,0.0,0.0,0.0,0.0,0.0,0.0,0.0,0.0,0.0,0.0,0.0,0.0,0.0,0.0,-3.8123,-3.8488,-3.9323,-3.9361,-3.9708,-4.0477,-4.0496,-4.0496,-4.0496,-4.0496,-4.0496,-4.0496,-4.0496,-4.0496,-4.0496,-4.0496,-4.0554,-4.0689,-4.1508,-4.2335,-4.3104,-4.3104,-4.3104,-4.3028,-4.22,-4.2374,-4.2893,-4.1247,-4.1123,-4.1673,-4.0854,-4.0535,-4.0496,-4.0496,-4.0496,-4.0496,-4.0496,-4.0496,-4.0496,-4.0496,-4.0496,-4.0414,-4.0024,-3.9789,-4.0084,-4.182,-4.2739,-4.3662,-4.5267,-4.5594,-4.5213,-4.3884,-4.3548,-4.3515,-4.3515,-4.3515,-4.3515,-4.3515,-4.3515,-4.3515,-4.3515,-4.3515,-4.3515,-4.3515,-4.3515,-4.3515,-4.3515,-4.3515,-4.3515,-4.3515,-4.3515,-4.3515,-4.3515,-4.3515,-4.3515,-4.3515,-4.3515,-4.3515,-4.3515,-4.3515,-4.3515,-4.3515,-4.3515,-4.3515,-1.7285,-1.8457,-1.9765,-2.3201,-2.5963,-2.8286,-2.9973,-3.2068,-3.3793,0.0,0.0,0.0,0.0,0.0,0.0,0.0,0.0,0.0,0.0,0.0,0.0,0.0,0.0,0.0,0.0,0.0,0.0,0.0,0.0,-3.8373,-3.9246,-3.9304,-3.9669,-4.0477,-4.0496,-4.0496,-4.0496,-4.0496,-4.0496,-4.0496,-4.0496,-4.0496,-4.0496,-4.0496,-4.0496,-4.0516,-4.0843,-4.1143,-4.1439,-4.1439,-4.1439,-4.1401,-4.1085,-4.1162,-4.1362,-4.0727,-4.0708,-4.0912,-4.0612,-4.0496,-4.0496,-4.0496,-4.0496,-4.0496,-4.0496,-4.0496,-4.0496,-4.0496,-4.0496,-4.0473,-4.0328,-3.9656,-3.9668,-4.2181,-4.3758,-4.4883,-4.5479,-4.5594,-4.5173,-4.3756,-4.3515,-4.3515,-4.3515,-4.3515,-4.3515,-4.3515,-4.3515,-4.3515,-4.3515,-4.3515,-4.3515,-4.3515,-4.3515,-4.3515,-4.3515,-4.3515,-4.3515,-4.3515,-4.3515,-4.3515,-4.3515,-4.3515,-4.3515,-4.3515,-4.3515,-4.3515,-4.3515,-4.3515,-4.3515,-4.3515,-4.3515,-4.3515,-1.648,-1.7319,-1.8293,-2.1446,-2.3689,-2.5728,-2.8006,0.0,-3.2046,0.0,0.0,0.0,0.0,0.0,0.0,0.0,0.0,0.0,0.0,0.0,0.0,0.0,0.0,0.0,0.0,0.0,0.0,0.0,0.0,0.0,-3.8373,-3.843,-3.8931,-4.0054,-4.0362,-4.0496,-4.0496,-4.0496,-4.0496,-4.0496,-4.0496,-4.0496,-4.0496,-4.0496,-4.0496,-4.0496,-4.0496,-4.0496,-4.0496,-4.0496,-4.0496,-4.0496,-4.0496,-4.0496,-4.0496,-4.0496,-4.0496,-4.0496,-4.0496,-4.0496,-4.0496,-4.0496,-4.0496,-4.0496,-4.0496,-4.0496,-4.0496,-4.0496,-4.0496,-4.0496,-4.0496,-3.9757,-3.9645,-4.2158,-4.421,-4.5594,-4.5594,-4.5594,-4.5173,-4.3756,-4.3515,-4.3515,-4.3515,-4.3515,-4.3515,-4.3515,-4.3515,-4.3515,-4.3515,-4.3515,-4.3515,-4.3515,-4.3515,-4.3515,-4.3515,-4.3515,-4.3515,-4.3515,-4.3515,-4.3515,-4.3515,-4.3515,-4.3515,-4.3515,-4.3515,-4.3515,-4.3515,-4.3515,-4.3515,-4.3515,-4.3515,-4.4066,0.0,0.0,0.0,-1.9594,0.0,0.0,-2.5702,0.0,-2.9223,0.0,0.0,0.0,0.0,0.0,0.0,0.0,0.0,0.0,0.0,0.0,0.0,0.0,0.0,0.0,0.0,0.0,0.0,0.0,-3.55,-3.5846,-3.6654,-3.675,-3.7546,-3.9207,-4.0073,-4.0496,-4.0458,-4.0496,-4.0496,-4.0496,-4.0496,-4.0496,-4.0496,-4.0496,-4.0496,-4.0496,-4.0496,-4.0496,-4.0496,-4.0496,-4.0496,-4.0496,-4.0496,-4.0496,-4.0496,-4.0496,-4.0496,-4.0496,-4.0496,-4.0496,-4.0496,-4.0496,-4.0496,-4.0496,-4.0496,-4.0496,-4.0496,-4.0496,-4.0496,-4.0489,-4.0465,-4.0014,-4.0021,-4.1791,-4.3928,-4.5594,-4.5594,-4.5594,-4.5173,-4.3756,-4.3515,-4.3515,-4.3515,-4.3515,-4.3515,-4.3515,-4.3515,-4.3515,-4.3515,-4.3515,-4.3515,-4.3515,-4.3515,-4.3515,-4.3515,-4.3515,-4.3515,-4.3515,-4.3515,-4.3515,-4.3515,-4.3515,-4.3515,-4.3515,-4.3515,-4.3515,-4.3515,-4.3515,-4.3515,-4.3515,-4.3515,-4.5223,-1.5178,0.0,0.0,0.0,0.0,0.0,0.0,0.0,0.0,0.0,0.0,0.0,0.0,0.0,0.0,0.0,0.0,0.0,0.0,0.0,0.0,0.0,0.0,0.0,0.0,0.0,0.0,0.0,-3.55,-3.5846,-3.6654,-3.7892,-3.8507,-3.8354,-3.9746,-4.0227,-3.965,-4.0208,-4.0496,-4.0496,-4.0496,-4.0496,-4.0496,-4.0496,-4.0496,-4.0496,-4.0496,-4.0496,-4.0496,-4.0496,-4.0496,-4.0496,-4.0496,-4.0496,-4.0496,-4.0496,-4.0496,-4.0496,-4.0496,-4.0496,-4.0496,-4.0496,-4.0496,-4.0496,-4.0496,-4.0496,-4.0496,-4.0496,-4.0496,-4.0292,-3.942,-3.9078,-3.9917,-4.3736,-4.514,-4.5594,-4.5594,-4.5594,-4.5173,-4.3756,-4.3515,-4.3515,-4.3515,-4.3515,-4.3515,-4.3515,-4.3515,-4.3515,-4.3515,-4.3515,-4.3515,-4.3515,-4.3515,-4.3515,-4.3515,-4.3515,-4.3515,-4.3515,-4.3515,-4.3515,-4.3515,-4.3515,-4.3515,-4.3515,-4.3515,-4.3515,-4.3515,-4.3515,-4.3515,-4.3515,-4.3515,-4.5223,-1.6316,-1.666,-1.7142,-1.75,0.0,0.0,0.0,-2.2319,0.0,0.0,0.0,0.0,0.0,0.0,0.0,0.0,0.0,0.0,0.0,0.0,0.0,0.0,0.0,0.0,0.0,-3.55,-3.55,-3.55,-3.55,-3.5692,-3.6173,-3.7488,-3.7988,-3.7469,-3.8757,-3.9219,-3.8757,-3.9592,-3.9996,-3.9996,-4.0342,-4.0496,-4.0496,-4.0496,-4.0496,-4.0496,-4.0496,-4.0496,-4.0496,-4.0496,-4.0496,-4.0496,-4.0496,-4.0496,-4.0496,-4.0496,-4.0441,-4.0339,-4.0339,-4.0239,-4.0148,-4.0285,-4.0339,-4.0356,-4.0465,-4.0496,-4.0496,-4.0496,-4.0138,-3.9587,-3.8873,-3.8707,-3.9719,-4.375,-4.4719,-4.4719,-4.4719,-4.4719,-4.4476,-4.3662,-4.3515,-4.3515,-4.3515,-4.3515,-4.3515,-4.3515,-4.3515,-4.3515,-4.3515,-4.3515,-4.3515,-4.3515,-4.3515,-4.3515,-4.3515,-4.3515,-4.3515,-4.3515,-4.3515,-4.3515,-4.3515,-4.3515,-4.3515,-4.3515,-4.3515,-4.3515,-4.3515,-4.3515,-4.4176,-4.5498,-4.5498,-4.6507,-1.8036,-1.8045,-1.8254,-1.8846,-1.8561,0.0,-2.0639,-2.1293,-2.2135,0.0,0.0,0.0,0.0,0.0,0.0,0.0,0.0,0.0,0.0,0.0,0.0,0.0,0.0,0.0,-3.5365,-3.5442,-3.55,-3.55,-3.55,-3.55,-3.55,-3.625,-3.6654,-3.6577,-3.7507,-3.795,-3.7853,-3.8815,-3.9304,-3.9304,-4.0112,-4.0496,-4.0496,-4.0496,-4.0496,-4.0496,-4.0496,-4.0496,-4.0496,-4.0496,-4.0496,-4.0496,-4.0496,-4.0496,-4.0496,-4.0465,-4.0294,-4.0091,-4.0061,-3.9859,-3.9656,-3.9992,-4.0101,-4.0148,-4.0433,-4.0473,-4.0414,-4.0328,-3.9529,-3.8707,-3.8707,-3.8707,-3.9515,-4.2727,-4.3515,-4.3515,-4.3515,-4.3515,-4.3515,-4.3515,-4.3515,-4.3515,-4.3515,-4.3515,-4.3515,-4.3515,-4.3515,-4.3515,-4.3515,-4.3515,-4.3515,-4.3515,-4.3515,-4.3515,-4.3515,-4.3515,-4.3515,-4.3515,-4.3515,-4.3515,-4.3515,-4.3515,-4.3515,-4.3515,-4.3515,-4.3515,-4.3515,-4.3515,-4.5149,-4.8306,-4.8306,-4.8306,-1.9965,-2.0273,-2.0485,-1.9296,0.0,0.0,-1.8796,-2.0023,-2.1639,0.0,0.0,0.0,0.0,0.0,0.0,0.0,0.0,0.0,0.0,0.0,0.0,0.0,0.0,0.0,-3.4449,-3.5084,-3.55,-3.55,-3.55,-3.55,-3.55,-3.625,-3.6404,-3.575,-3.7219,-3.7661,-3.6962,-3.8507,-3.9304,-3.9304,-4.0112,-4.0496,-4.0496,-4.0496,-4.0496,-4.0496,-4.0496,-4.0496,-4.0496,-4.0496,-4.0496,-4.0496,-4.0496,-4.0496,-4.0473,-4.0269,-4.0139,-4.0071,-3.9786,-3.9656,-3.9656,-3.9992,-4.0101,-4.0148,-4.0433,-4.0266,-3.9893,-3.9229,-3.8873,-3.8707,-3.8707,-3.8707,-3.9515,-4.2727,-4.3515,-4.3515,-4.3515,-4.3515,-4.3515,-4.3515,-4.3515,-4.3515,-4.3515,-4.3515,-4.3515,-4.3515,-4.3515,-4.3515,-4.3515,-4.3515,-4.3515,-4.3515,-4.3515,-4.3515,-4.3515,-4.3515,-4.3515,-4.3515,-4.3515,-4.3515,-4.3515,-4.3515,-4.3515,-4.3515,-4.3515,-4.3515,-4.3515,-4.3515,-4.5149,-4.8306,-4.8306,-4.8306,-2.1889,-2.1831,-2.1831,-2.0566,0.0,0.0,0.0,-1.9654,-2.0615,-2.1889,0.0,0.0,0.0,0.0,0.0,0.0,0.0,0.0,0.0,0.0,0.0,0.0,0.0,0.0,-3.3545,-3.3949,-3.4391,-3.4814,-3.525,-3.55,-3.55,-3.5885,-3.5923,-3.5519,-3.6327,-3.6538,-3.6115,-3.7373,-3.8219,-3.8661,-3.9496,-4.0112,-4.0496,-4.0496,-4.0496,-4.0496,-4.0496,-4.0496,-4.0496,-4.0496,-4.0496,-4.0496,-4.0496,-4.0496,-4.0473,-4.0195,-3.9992,-3.9797,-3.9481,-3.9262,-3.9189,-3.9493,-3.9701,-3.9891,-4.0014,-3.9832,-3.9524,-3.9119,-3.8848,-3.8707,-3.8707,-3.8707,-3.9515,-4.2727,-4.3515,-4.3515,-4.3515,-4.3515,-4.3515,-4.3515,-4.3515,-4.3515,-4.3515,-4.3515,-4.3515,-4.3515,-4.3515,-4.3515,-4.3515,-4.3515,-4.3515,-4.3515,-4.3515,-4.3515,-4.3515,-4.3515,-4.3515,-4.3515,-4.3515,-4.3515,-4.3515,-4.3515,-4.3515,-4.3515,-4.3515,-4.4287,-4.5883,-4.5883,-4.6728,-4.8306,-4.8306,-4.8306,0.0,-2.3778,0.0,0.0,0.0,-2.125,0.0,0.0,0.0,-2.1758,0.0,0.0,0.0,0.0,0.0,0.0,0.0,0.0,0.0,0.0,0.0,0.0,0.0,0.0,0.0,-3.2429,-3.2833,-3.3878,-3.4468,-3.4904,-3.5231,-3.5404,-3.55,-3.55,-3.55,-3.55,-3.55,-3.6308,-3.7038,-3.7757,-3.8623,-3.94,-4.0015,-4.0015,-4.0015,-4.0035,-4.0208,-4.0265,-4.0285,-4.0439,-4.0496,-4.0496,-4.0496,-4.0496,-4.0465,-4.012,-3.9829,-3.9552,-3.9171,-3.8884,-3.8732,-3.9008,-3.9327,-3.9587,-3.951,-3.9383,-3.9255,-3.9208,-3.896,-3.8707,-3.8707,-3.8707,-3.9368,-4.1956,-4.3056,-4.3515,-4.3515,-4.3515,-4.3515,-4.3515,-4.3515,-4.3515,-4.3515,-4.3515,-4.3515,-4.3515,-4.3515,-4.3515,-4.3515,-4.3515,-4.3515,-4.3515,-4.3515,-4.3515,-4.3515,-4.3515,-4.3515,-4.3515,-4.3515,-4.3515,-4.3515,-4.3515,-4.3515,-4.3515,-4.3515,-4.5076,-4.8306,-4.8306,-4.8306,-4.8306,-4.8306,-4.8306,0.0,0.0,0.0,0.0,-2.4856,0.0,0.0,0.0,-2.1816,-1.9838,0.0,0.0,0.0,0.0,0.0,0.0,0.0,0.0,0.0,0.0,0.0,0.0,0.0,0.0,0.0,-3.0673,-3.1346,-3.2929,-3.2487,-3.2776,-3.4263,-3.5084,-3.55,-3.55,-3.55,-3.55,-3.55,-3.6308,-3.675,-3.6865,-3.7738,-3.82,-3.8277,-3.8277,-3.8277,-3.8334,-3.9111,-3.9438,-3.9496,-4.0208,-4.0496,-4.0496,-4.0496,-4.0496,-4.043,-3.9882,-3.9634,-3.9517,-3.8942,-3.8719,-3.8732,-3.9008,-3.9327,-3.9534,-3.9238,-3.9152,-3.9077,-3.8833,-3.8735,-3.8707,-3.8707,-3.8707,-3.8799,-3.9166,-4.1423,-4.3515,-4.3515,-4.3515,-4.3515,-4.3515,-4.3515,-4.3515,-4.3515,-4.3515,-4.3515,-4.3515,-4.3515,-4.3515,-4.3515,-4.3515,-4.3515,-4.3515,-4.3515,-4.3515,-4.3515,-4.3515,-4.3515,-4.3515,-4.3515,-4.3515,-4.3515,-4.3515,-4.3515,-4.3515,-4.3515,-4.5076,-4.8306,-4.8306,-4.8306,-4.8306,-4.8306,-4.8306,0.0,0.0,0.0,0.0,0.0,0.0,-2.1173,0.0,-2.1177,0.0,0.0,0.0,0.0,0.0,0.0,0.0,0.0,0.0,0.0,0.0,0.0,0.0,0.0,0.0,0.0,0.0,0.0,0.0,-3.1135,-3.191,-3.409,-3.4545,-3.4988,-3.5481,-3.55,-3.55,-3.55,-3.5827,-3.6231,-3.6692,-3.7065,-3.7507,-3.8007,-3.8007,-3.8007,-3.8027,-3.8392,-3.8834,-3.9323,-3.9669,-4.0073,-4.0496,-4.0496,-4.0397,-4.0213,-3.9775,-3.9481,-3.9257,-3.8848,-3.8707,-3.8732,-3.9008,-3.9077,-3.9073,-3.9104,-3.8985,-3.8826,-3.8735,-3.8707,-3.8707,-3.8707,-3.8707,-3.8707,-3.8707,-3.9735,-4.1222,-4.3111,-4.3515,-4.3515,-4.3515,-4.3515,-4.3515,-4.3515,-4.3515,-4.3515,-4.3515,-4.3515,-4.3515,-4.3515,-4.3515,-4.3515,-4.3515,-4.3515,-4.3515,-4.3515,-4.3515,-4.3515,-4.3515,-4.3515,-4.3515,-4.3515,-4.3515,-4.3515,-4.3515,-4.5333,-4.6948,-4.8306,-4.8306,-4.8306,-4.8306,-4.8306,-4.8306,-2.8582,0.0,0.0,0.0,0.0,0.0,0.0,0.0,0.0,0.0,0.0,0.0,0.0,0.0,0.0,-2.0673,0.0,-2.147,0.0,0.0,0.0,0.0,0.0,0.0,0.0,0.0,0.0,0.0,0.0,-3.0212,-3.3006,-3.3583,-3.4237,-3.5122,-3.5385,-3.55,-3.55,-3.55,-3.5788,-3.6365,-3.6365,-3.6692,-3.7315,-3.7315,-3.7315,-3.7334,-3.7546,-3.8142,-3.895,-3.9207,-3.965,-4.0189,-4.0419,-4.0123,-3.9618,-3.9603,-3.9377,-3.9058,-3.8788,-3.8707,-3.8735,-3.8937,-3.8855,-3.8735,-3.8919,-3.884,-3.8707,-3.8707,-3.8707,-3.8707,-3.8707,-3.8707,-3.8707,-3.8707,-3.8707,-3.9588,-4.2817,-4.3515,-4.3515,-4.3515,-4.3515,-4.3515,-4.3515,-4.3515,-4.3515,-4.3515,-4.3515,-4.3515,-4.3515,-4.3515,-4.3515,-4.3515,-4.3515,-4.3515,-4.3515,-4.3515,-4.3515,-4.3515,-4.3515,-4.3515,-4.3515,-4.3515,-4.3901,-4.48,-4.7113,-4.8306,-4.8306,-4.8306,-4.8306,-4.8306,-4.8306,-4.8306,0.0,0.0,0.0,-2.6135,0.0,0.0,0.0,0.0,-2.2489,0.0,0.0,0.0,0.0,0.0,-2.2447,-2.16,-2.0846,0.0,0.0,0.0,0.0,0.0,0.0,0.0,0.0,0.0,0.0,0.0,0.0,0.0,-3.0346,-3.2064,-3.3333,-3.4205,-3.5064,-3.55,-3.55,-3.55,-3.5519,-3.5538,-3.5538,-3.5558,-3.5577,-3.5577,-3.5577,-3.5615,-3.6404,-3.7238,-3.8104,-3.8957,-3.9323,-3.9419,-4.0208,-3.9623,-3.8456,-3.9297,-3.9377,-3.9058,-3.8788,-3.8707,-3.8707,-3.8704,-3.8707,-3.8707,-3.8704,-3.8707,-3.8707,-3.8707,-3.8707,-3.8707,-3.8707,-3.8707,-3.8707,-3.8707,-3.8707,-3.9588,-4.2817,-4.3515,-4.3515,-4.3515,-4.3515,-4.3515,-4.3515,-4.3515,-4.3515,-4.3515,-4.3515,-4.3515,-4.3515,-4.3515,-4.3515,-4.3515,-4.3515,-4.3515,-4.3515,-4.3515,-4.3515,-4.3515,-4.3515,-4.3515,-4.3515,-4.3515,-4.4966,-4.8104,-4.8251,-4.8306,-4.8306,-4.8306,-4.8306,-4.8306,-4.8306,-4.8306,0.0,0.0,-2.9804,-2.7363,0.0,0.0,0.0,0.0,0.0,0.0,0.0,0.0,0.0,-2.2797,-2.2331,-2.0923,-2.0845,-2.0183,0.0,0.0,0.0,0.0,0.0,0.0,0.0,0.0,0.0,0.0,-2.5178,0.0,0.0,-3.1987,-3.3295,-3.4167,-3.5045,-3.55,-3.55,-3.55,-3.55,-3.55,-3.55,-3.55,-3.55,-3.55,-3.55,-3.5519,-3.5788,-3.6385,-3.7219,-3.8084,-3.843,-3.8527,-3.9381,-3.9136,-3.8414,-3.9267,-3.9275,-3.8815,-3.8735,-3.834,-3.7991,-3.8524,-3.8707,-3.8707,-3.8707,-3.8707,-3.8707,-3.8707,-3.8707,-3.8707,-3.8707,-3.8707,-3.8707,-3.8707,-3.8707,-3.9588,-4.2817,-4.3515,-4.3515,-4.3515,-4.3515,-4.3515,-4.3515,-4.3515,-4.3515,-4.3515,-4.3515,-4.3515,-4.3515,-4.3515,-4.3515,-4.3515,-4.3515,-4.3515,-4.3515,-4.3515,-4.3515,-4.3515,-4.3515,-4.3515,-4.3515,-4.5553,-4.7186,-4.8288,-4.8306,-4.8306,-4.8306,-4.8306,-4.8306,-4.8306,-4.8306,-4.8306,-2.9995,-3.0142,0.0,-2.7863,-2.6675,0.0,-2.3247,0.0,0.0,0.0,0.0,0.0,0.0,0.0,-2.3009,-2.2212,-2.1388,-1.9764,0.0,-1.674,0.0,0.0,0.0,0.0,0.0,0.0,-2.2182,-2.3975,-2.4005,0.0,0.0,0.0,-3.2545,-3.3705,-3.4885,-3.55,-3.55,-3.55,-3.55,-3.55,-3.55,-3.55,-3.55,-3.55,-3.55,-3.55,-3.55,-3.5962,-3.6731,-3.7315,-3.7546,-3.7661,-3.8834,-3.876,-3.8066,-3.8538,-3.8525,-3.8303,-3.8597,-3.8358,-3.8025,-3.8524,-3.8707,-3.8707,-3.8707,-3.8707,-3.8707,-3.8707,-3.8707,-3.8707,-3.8707,-3.8707,-3.8707,-3.8707,-3.8707,-3.9588,-4.2817,-4.3515,-4.3515,-4.3515,-4.3515,-4.3515,-4.3515,-4.3515,-4.3515,-4.3515,-4.3515,-4.3515,-4.3515,-4.3515,-4.3515,-4.3515,-4.3515,-4.3515,-4.3515,-4.3515,-4.3515,-4.3515,-4.3515,-4.3515,-4.3515,-4.6599,-4.8306,-4.8306,-4.8306,-4.8306,-4.8306,-4.8306,-4.8306,-4.8306,-4.8306,-4.8306]},{"header":{"parameterUnit":"m.s-1","parameterCategory":1,"la1":30.6,"la2":29.2853,"lo1":-89.7004,"lo2":-87.6739,"dy":0.0162,"dx":0.0183,"nx":112,"ny":82,"refTime":"2026-05-21T12:00:00:Z","depth":0,"parameterNumber":3,"parameterNumberName":"V-component_of_WINDS"},"data":[0.0,0.0,0.0,0.0,0.0,0.0,0.0,0.0,0.0,0.0,0.0,0.0,0.0,0.0,0.0,0.0,0.0,0.0,0.0,0.0,0.0,0.0,0.0,0.0,0.0,0.0,0.0,0.0,0.0,0.0,0.0,0.0,0.0,0.0,0.0,0.0,0.0,0.0,0.0,0.0,0.0,0.0,0.0,0.0,0.0,0.0,0.0,0.0,0.0,0.0,0.0,0.0,0.0,0.0,0.0,0.0,0.0,0.0,0.0,0.0,0.0,0.0,0.0,0.0,0.0,0.0,0.0,0.0,0.0,0.0,0.0,0.0,0.0,0.0,0.0,0.0,0.0,0.0,0.0,0.0,0.0,0.0,0.0,0.0,0.0,0.0,0.0,0.0,0.0,0.0,0.1743,0.1024,0.0375,0.0993,0.3382,0.3438,0.4048,0.5683,0.0,0.0,0.0,0.0,0.0,0.0,0.0,0.0,0.0,0.0,0.0,0.0,0.0,0.0,0.0,0.0,0.0,0.0,0.0,0.0,0.0,0.0,0.0,0.0,0.0,0.0,0.0,0.0,0.0,0.0,0.0,0.0,0.0,0.0,0.0,0.0,0.0,0.0,0.0,0.0,0.0,0.0,0.0,0.0,0.0,0.0,0.0,0.0,0.0,0.0,0.0,0.0,0.0,0.0,0.0,0.0,0.0,0.0,0.0,0.0,0.0,0.0,0.0,0.0,0.0,0.0,0.0,0.0,0.0,0.0,0.0,0.0,0.0,0.0,0.0,0.0,0.0,0.0,0.0,0.0,0.0,0.0,0.0,0.0,0.0,0.0,0.0,0.0,0.0,0.0,0.0,0.0,0.0,0.0,0.0,0.0,0.0,0.0,0.0,0.0,0.0,0.0,0.0,0.0,0.0861,0.0222,0.0048,0.0993,0.3382,0.3304,0.3902,0.5676,0.0,0.0,0.0,0.0,0.0,0.0,0.0,0.0,0.0,0.0,0.0,0.0,0.0,0.0,0.0,0.0,0.0,0.0,0.0,0.0,0.0,0.0,0.0,0.0,0.0,0.0,0.0,0.0,0.0,0.0,0.0,0.0,0.0,0.0,0.0,0.0,0.0,0.0,0.0,0.0,0.0,0.0,0.0,0.0,0.0,0.0,0.0,0.0,0.0,0.0,0.0,0.0,0.0,0.0,0.0,0.0,0.0,0.0,0.0,0.0,0.0,0.0,0.0,0.0,0.0,0.0,0.0,0.0,0.0,0.0,0.0,0.0,0.0,0.0,0.0,0.0,0.0,0.0,0.0,0.0,0.0,0.0,0.0,0.0,0.0,0.0,0.0,0.0,0.0,0.0,0.0,0.0,0.0,0.0,0.0,0.0,0.0,0.0,0.0,0.0,0.0,0.0,0.0,0.0396,0.0317,0.0047,0.0642,0.1785,0.3475,0.3979,0.4646,0.5748,0.5308,0.0,0.0,0.0,0.0,0.0,0.0,0.0,0.0,0.0,0.0,0.0,0.0,0.0,0.0,0.0,0.0,0.0,0.0,0.0,0.0,0.0,0.0,0.0,0.0,0.0,0.0,0.0,0.0,0.0,0.0,0.0,0.0,0.0,0.0,0.0,0.0,0.0,0.0,0.0,0.0,0.0,0.0,0.0,0.0,0.0,0.0,0.0,0.0,0.0,0.0,0.0,0.0,0.0,0.0,0.0,0.0,0.0,0.0,0.0,0.0,0.0,0.0,0.0,0.0,0.0,0.0,0.0,0.0,0.0,0.0,0.0,0.0,0.0,0.0,0.0,0.0,0.0,0.0,0.0,0.0,0.0,0.0,0.0,0.0,0.0,0.0,0.0,0.0,0.0,0.0,0.0,0.0,0.0,0.0,0.0,0.0,0.0,0.0,0.0,0.0,0.0,0.0,0.0,0.0131,0.0434,0.1391,0.2576,0.395,0.4667,0.522,0.5781,0.5304,0.0,0.0,0.0,0.0,0.0,0.0,0.0,0.0,0.0,0.0,0.0,0.0,0.0,0.0,0.0,0.0,0.0,0.0,0.0,0.0,0.0,0.0,0.0,0.0,0.0,0.0,0.0,0.0,0.0,0.0,0.0,0.0,0.0,0.0,0.0,0.0,0.0,0.0,0.0,0.0,0.0,0.0,0.0,0.0,0.0,0.0,0.0,0.0,0.0,0.0,0.0,0.0,0.0,0.0,0.0,0.0,0.0,0.0,0.0,0.0,0.0,0.0,0.0,0.0,0.0,0.0,0.0,0.0,0.0,0.0,0.0,0.0,0.0,0.0,0.0,0.0,0.0,0.0,0.0,0.0,0.0,0.0,0.0,0.0,0.0,0.0,0.0,0.0,0.0,0.0,0.0,0.0,0.0,0.0,0.0,0.0,0.0,0.0,0.0,0.0,0.0,0.0,0.0,0.0463,0.1712,0.1921,0.2921,0.5277,0.5029,0.505,0.5768,0.5467,0.0,0.0,0.0,0.0,0.0,0.0,0.0,0.0,0.0,0.0,0.0,0.0,0.0,0.0,0.0,0.0,0.0,0.0,0.0,0.0,0.0,0.0,0.0,0.0,0.0,0.0,0.0,0.0,0.0,0.0,0.0,0.0,0.0,0.0,0.0,0.0,0.0,0.0,0.0,0.0,0.0,0.0,0.0,0.0,0.0,0.0,0.0,0.0,0.0,0.0,0.0,0.0,0.0,0.0,0.0,0.0,0.0,0.0,0.0,0.0,0.0,0.0,0.0,0.0,0.0,0.0,0.0,0.0,0.0,0.0,0.0,0.0,0.0,0.0,0.0,0.0,0.0,0.0,0.0,0.0,0.0,0.0,0.0,0.0,0.0,0.0,0.0,0.0,0.0,0.0,0.0,0.0,0.0,0.0,0.0,0.0,0.0,0.0,0.0,0.0,0.0,0.0,0.075,0.1462,0.0,0.3403,0.4687,0.5509,0.588,0.5978,0.5683,0.0,0.0,0.0,0.0,0.0,0.0,0.0,0.0,0.0,0.0,0.0,0.0,0.0,0.0,0.0,0.0,0.0,0.0,0.0,0.0,0.0,0.0,0.0,0.0,0.0,0.0,0.0,0.0,0.0,0.0,0.0,0.0,0.0,0.0,0.0,0.0,0.0,0.0,0.0,0.0,0.0,0.0,0.0,0.0,0.0,0.0,0.0,0.0,0.0,0.0,0.0,0.0,0.0,0.0,0.0,0.0,0.0,0.0,0.0,0.0,0.0,0.0,0.0,0.0,0.0,0.0,0.0,0.0,0.0,0.0,0.0,0.0,0.0,0.0,0.0,0.0,0.0,0.0,0.0,0.0,0.0,0.0,0.0,0.0,0.0,0.0,0.0,0.0,0.0,0.0,0.0,0.0,0.0,0.0,0.0,0.0,0.0,0.0,0.0,0.0,0.0,0.0,0.0,0.1178,0.2157,0.0,0.451,0.5909,0.6222,0.6524,0.6393,0.5637,0.0,0.0,0.0,0.0,0.0,0.0,0.0,0.0,0.0,0.0,0.0,0.0,0.0,0.0,0.0,0.0,0.0,0.0,0.0,0.0,0.0,0.0,0.0,0.0,0.0,0.0,0.0,0.0,0.0,0.0,0.0,0.0,0.0,0.0,0.0,0.0,0.0,0.0,0.0,0.0,0.0,0.0,0.0,0.0,0.0,0.0,0.0,0.0,0.0,0.0,0.0,0.0,0.0,0.0,0.0,0.0,0.0,0.0,0.0,0.0,0.0,0.0,0.0,0.0,0.0,0.0,0.0,0.0,0.0,0.0,0.0,0.0,0.0,0.0,0.0,0.0,0.0,0.0,0.0,0.0,0.0,0.0,0.0,0.0,0.0,0.0,0.0,0.0,0.0,0.0,0.0,0.0,0.0,0.0,0.0,0.0,0.0,0.0,0.0,0.0,0.0,0.0,0.0,0.1203,0.252,0.3847,0.5069,0.6296,0.7516,0.6822,0.6108,0.0,0.0,0.0,0.0,0.0,0.0,0.0,0.0,0.0,0.0,0.0,0.0,0.0,0.0,0.0,0.0,0.0,0.0,0.0,0.0,0.0,0.0,0.0,0.0,0.0,0.0,0.0,0.0,0.0,0.0,0.0,0.0,0.0,0.0,0.0,0.0,0.0,0.0,0.0,0.0,0.0,0.0,0.0,0.0,0.0,0.0,0.0,0.0,0.0,0.0,0.0,0.0,0.0,0.0,0.0,0.0,0.0,0.0,0.0,0.0,0.0,0.0,0.0,0.0,0.0,0.0,0.0,0.0,0.0,0.0,0.0,0.0,0.0,0.0,0.0,0.0,0.0,0.0,0.0,0.0,0.0,0.0,0.0,0.0,0.0,0.0,0.0,0.0,0.0,0.0,0.0,0.0,0.0,0.0,0.0,0.0,0.0,0.0,0.0,0.0,0.0,0.0,0.0,0.0,0.2008,0.3573,0.3964,0.582,0.7215,0.7557,0.6868,0.6166,0.5504,0.0,0.0,0.0,0.0,0.0,0.0,0.0,0.0,0.0,0.0,0.0,0.0,0.0,0.0,0.0,0.0,0.0,0.0,0.0,0.0,0.0,0.0,0.0,0.0,0.0,0.0,0.0,0.0,0.0,0.0,0.0,0.0,0.0,0.0,0.0,0.0,0.0,0.0,0.0,0.0,0.0,0.0,0.0,0.0,0.0,0.0,0.0,0.0,0.0,0.0,0.0,0.0,0.0,0.0,0.0,0.0,0.0,0.0,0.0,0.0,0.0,0.0,0.0,0.0,0.0,0.0,0.0,0.0,0.0,0.0,0.0,0.0,0.0,0.0,0.0,0.0,0.0,0.0,0.0,0.0,0.0,0.0,0.0,0.0,0.0,0.0,0.0,0.0,0.0,0.0,0.0,0.0,0.0,0.0,0.0,0.0,0.0,0.0,0.0,0.0,0.0,0.0,0.0,0.2332,0.401,0.3998,0.6166,0.76,0.76,0.6909,0.6218,0.5528,0.0,0.0,0.0,0.0,0.0,0.0,0.0,0.0,0.0,0.0,0.0,0.0,0.0,0.0,0.0,0.0,0.0,0.0,0.0,0.0,0.0,0.0,0.0,0.0,0.0,0.0,0.0,0.0,0.0,0.0,0.0,0.0,0.0,0.0,0.0,0.0,0.0,0.0,0.0,0.0,0.0,0.0,0.0,0.0,0.0,0.0,0.0,0.0,0.0,0.0,0.0,0.0,0.0,0.0,0.0,0.0,0.0,0.0,0.0,0.0,0.0,0.0,0.0,0.0,0.0,0.0,0.0,0.0,0.0,0.0,0.0,0.0,0.0,0.0,0.0,0.0,0.0,0.0,0.0,0.0,0.0,0.0,0.0,0.0,0.0,0.0,0.0,0.0,0.0,0.0,0.0,0.0,0.0,0.0,0.0,0.0,0.0,0.0,0.0,0.0,0.0,0.0,0.0,0.2345,0.3972,0.3967,0.6153,0.758,0.758,0.6898,0.6262,0.5647,0.0,0.0,0.0,0.0,0.0,0.0,0.0,0.0,0.0,0.0,0.0,0.0,0.0,0.0,0.0,0.0,0.0,0.0,0.0,0.0,0.0,0.0,0.0,0.0,0.0,0.0,0.0,0.0,0.0,0.0,0.0,0.0,0.0,0.0,0.0,0.0,0.0,0.0,0.0,0.0,0.0,0.0,0.0,0.0,0.0,0.0,0.0,0.0,0.0,0.0,0.0,0.0,0.0,0.0,0.0,0.0,0.0,0.0,0.0,0.0,0.4815,0.0,0.0,0.0,0.0,0.0,0.0,0.0,0.0,0.0,0.0,0.0,0.0,0.0,0.0,0.0,0.0,0.0,0.0,0.0,0.0,0.0,0.0,0.0,0.0,0.0,0.0,0.0,0.0,0.0,0.0,0.0,0.0,0.0,0.0,0.0,0.0,0.0,0.0,0.0,0.0,0.0,0.0,0.224,0.3826,0.3832,0.6023,0.7421,0.7421,0.688,0.6306,0.5786,0.5732,0.0,0.0,0.0,0.0,0.0,0.0,0.0,0.0,0.0,0.0,0.0,0.0,0.0,0.0,0.0,0.0,0.0,0.0,0.0,0.0,0.0,0.0,0.0,0.0,0.0,0.0,0.0,0.0,0.0,0.0,0.0,0.0,0.0,0.0,0.0,0.0,0.0,0.0,0.0,0.0,0.0,0.0,0.0,0.0,0.0,0.0,0.0,0.0,0.0,0.0,0.0,0.0,0.0,0.0,0.0,0.0,0.0,0.0,0.0,0.0,0.5487,0.0,0.0,0.0,0.0,0.0,0.0,0.0,0.0,0.0,0.0,0.0,0.0,0.0,0.0,0.0,0.0,0.0,0.0,0.0,0.0,0.0,0.0,0.0,0.0,0.0,0.0,0.0,0.0,0.0,0.0,0.0,0.0,0.0,0.0,0.0,0.0,0.0,0.0,0.0,0.0,0.0789,0.2568,0.4001,0.4591,0.6307,0.7415,0.7415,0.6885,0.6424,0.6081,0.6399,0.0,0.0,0.0,0.0,0.0,0.0,0.0,0.0,0.0,0.0,0.0,0.0,0.0,0.0,0.0,0.0,0.0,0.0,0.0,0.0,0.0,0.0,0.0,0.0,0.0,0.0,0.0,0.0,0.0,0.0,0.0,0.0,0.0,0.0,0.0,0.0,0.0,0.0,0.0,0.0,0.0,0.0,0.0,0.0,0.0,0.0,0.0,0.0,0.0,0.0,0.0,0.0,0.0,0.0223,0.1136,0.2575,0.3607,0.496,0.6447,0.6729,0.627,0.5333,0.0,0.0,0.0,0.0,0.0,0.0,0.0,0.0,0.0,0.0,0.0,0.0,0.0,0.0,0.0,0.0,0.0,0.0,0.0,0.0,0.0,0.0,0.0,0.0,0.0,0.2701,0.2372,0.0,0.0,0.0,0.0,0.0,0.0,0.0,0.0,0.0,0.0,0.0,0.0,0.1673,0.3134,0.4476,0.5443,0.6642,0.7322,0.7299,0.6929,0.6573,0.632,0.6995,0.7097,0.0,0.0,0.0,0.0,0.0,0.0,0.0,0.0,0.0,0.0,0.0,0.0,0.0,0.0,0.0,0.0,0.0,0.0,0.0,0.0,0.0,0.0,0.0,0.0,0.0,0.0,0.0,0.0,0.0,0.0,0.0,0.0,0.2904,0.298,0.0,0.0,0.0,0.0,0.0,0.0,0.0,0.0,0.0,0.0,0.0,0.0,0.0,0.0239,0.0128,0.0135,0.0093,0.0,0.1157,0.2521,0.3959,0.5319,0.6769,0.8175,0.8201,0.0,0.6816,0.677,0.0,0.0,0.0,0.0,0.0,0.0,0.0,0.0,0.0,0.0,0.0,0.0,0.0,0.0,0.0,0.0,0.0,0.0,0.0,0.0,0.0,0.0,0.2067,0.1827,0.1094,0.038,0.0,0.0109,0.039,0.1376,0.0706,0.0,0.0,0.0,0.0,0.0,0.0,0.0,0.1763,0.3776,0.5257,0.5413,0.6453,0.7078,0.6953,0.681,0.6573,0.632,0.6726,0.7047,0.7137,0.731,0.0,0.0,0.0,0.0,0.0,0.0,0.0,0.0,0.0,0.0,0.0,0.0,0.0,0.0,0.0,0.0,0.0,0.0,0.0,0.0,0.0,0.0,0.0,0.0,0.0,0.0,0.0,0.0,0.0,0.3084,0.31,0.3357,0.2237,0.1656,0.0,0.0,0.0,0.0,0.0,0.0,0.0,0.0,0.0,0.0,0.0,0.0,0.0,0.0,0.0,0.0,0.0586,0.1675,0.3079,0.37,0.4804,0.6278,0.6278,0.6453,0.6784,0.7127,0.7099,0.6746,0.0,0.0,0.0,0.0,0.6182,0.6014,0.6501,0.6094,0.0,0.0,0.0,0.0,0.0,0.0,0.0,0.0,0.0,0.0,0.0,0.0,0.0,0.1712,0.1352,0.1208,0.1886,0.1485,0.1177,0.0,0.1303,0.1059,0.155,0.0,0.0,0.0,0.0,0.2893,0.3573,0.4662,0.5657,0.6287,0.6786,0.7038,0.69,0.679,0.661,0.6433,0.6869,0.706,0.6953,0.7639,0.7791,0.0,0.0,0.0,0.0,0.0,0.0,0.0,0.0,0.0,0.0,0.0,0.0,0.0,0.0,0.0,0.0,0.0,0.0,0.0,0.0,0.0,0.0,0.0,0.0,0.0,0.0,0.0,0.0,0.3141,0.319,0.3315,0.2269,0.1632,0.0,0.0,0.0,0.0,0.0,0.0,0.0,0.0,0.0,0.0,0.0,0.0,0.0,0.0,0.0,0.0,0.0,0.0775,0.218,0.218,0.3017,0.4526,0.4526,0.5048,0.6046,0.6921,0.7375,0.7506,0.7129,0.6963,0.6949,0.7099,0.7136,0.72,0.7465,0.6976,0.624,0.6328,0.0,0.3902,0.4208,0.0,0.0,0.0,0.0,0.0209,0.1118,0.1324,0.1338,0.1325,0.1323,0.159,0.2494,0.1981,0.1627,0.0,0.2402,0.2287,0.2907,0.0,0.0,0.0,0.0,0.4121,0.5036,0.5562,0.616,0.7007,0.7065,0.6984,0.6839,0.6729,0.6576,0.6467,0.6812,0.696,0.6792,0.7872,0.8099,0.7332,0.0,0.0,0.0,0.0,0.0,0.0,0.0,0.0,0.0,0.0,0.0,0.0,0.0,0.0,0.0,0.0,0.0,0.0,0.0,0.0,0.0,0.0,0.0,0.0,0.0,0.0,0.0,0.0,0.0,0.2624,0.183,0.0,0.0,0.0,0.0,0.0037,0.0,0.0,0.0,0.0,0.0,0.0,0.0,0.0,0.0,0.0,0.0,0.0,0.0,0.0783,0.218,0.218,0.3017,0.4526,0.4526,0.4524,0.4675,0.5892,0.7024,0.7938,0.7821,0.7675,0.757,0.7712,0.7858,0.7938,0.7951,0.7905,0.7902,0.7888,0.6101,0.4199,0.5341,0.3051,0.0,0.0,0.0994,0.0,0.0094,0.0096,0.0097,0.0096,0.0097,0.0097,0.0186,0.0139,0.1129,0.0,0.4295,0.3467,0.3312,0.0,0.3298,0.3339,0.4284,0.5118,0.5336,0.6331,0.7051,0.7095,0.6977,0.6836,0.6725,0.6573,0.6463,0.632,0.6335,0.6561,0.7047,0.7697,0.799,0.7874,0.7879,0.0,0.0,0.0,0.0,0.0,0.0,0.0,0.0,0.0,0.0,0.0,0.0,0.0,0.0,0.0,0.0,0.0,0.0,0.0,0.0,0.0,0.0,0.0,0.0,0.0,0.0,0.0,0.0,0.2651,0.1949,0.0,0.133,0.0523,0.0,0.0,0.0,0.0,0.0,0.0,0.0,0.0,0.0,0.0,0.0,0.0,0.0,0.0,0.0,0.028,0.0784,0.0784,0.1064,0.1623,0.1623,0.2125,0.3069,0.3472,0.4972,0.7133,0.7936,0.8211,0.8174,0.8225,0.8275,0.8323,0.8323,0.7698,0.6735,0.567,0.466,0.3783,0.338,0.2268,0.1112,0.0804,0.0382,0.0,0.0,0.0,0.0,0.0,0.0,0.0196,0.1012,0.1786,0.2929,0.5013,0.4333,0.3824,0.5149,0.5442,0.542,0.5301,0.582,0.6283,0.6343,0.6786,0.7095,0.7095,0.697,0.6825,0.6712,0.6559,0.6369,0.6129,0.6112,0.6124,0.613,0.7421,0.7909,0.7398,0.8478,0.8377,0.0,0.0,0.0,0.0,0.0,0.0,0.0,0.0,0.0,0.0,0.0,0.0,0.0,0.0,0.0,0.0,0.0,0.0,0.0,0.0,0.0,0.0,0.0,0.0,0.0,0.0,0.1979,0.1817,0.1378,0.1022,0.087,0.0357,0.0,0.0,0.0,0.0,0.0,0.0,0.0,0.0,0.0,0.0,0.0,0.0,0.0,0.0,0.0,0.0,0.0,0.0,0.0,0.0,0.0,0.056,0.151,0.2012,0.3329,0.5207,0.6611,0.777,0.8581,0.8094,0.8204,0.8575,0.8037,0.7163,0.6066,0.4394,0.3571,0.3133,0.2663,0.1901,0.112,0.0789,0.0347,0.0,0.0,0.0,0.0,0.0,0.0,0.0198,0.1031,0.2148,0.3344,0.4566,0.4659,0.5013,0.6417,0.6712,0.6712,0.6515,0.6739,0.6903,0.695,0.7038,0.7095,0.7095,0.6923,0.681,0.6709,0.6468,0.6261,0.6115,0.601,0.5864,0.5671,0.7188,0.7745,0.7101,0.8525,0.8784,0.7792,0.0,0.0,0.0,0.0,0.0,0.0,0.0,0.0,0.0,0.0,0.0,0.0,0.0,0.0,0.0,0.0,0.0,0.0,0.0,0.0,0.0,0.0,0.0,0.0,0.0609,0.0794,0.0082,0.0,0.0,0.0,0.0,0.0,0.0,0.0,0.0,0.0,0.0,0.0,0.0,0.0,0.0,0.0,0.0,0.0,0.0,0.0,0.0,0.0,0.0,0.0,0.0,0.0,0.0,0.0112,0.1566,0.218,0.2347,0.3911,0.6255,0.8602,0.7149,0.7537,0.8527,0.6901,0.6371,0.6082,0.4429,0.2993,0.2176,0.3463,0.2045,0.0253,0.1562,0.1009,0.0,0.0,0.0,0.0,0.0,0.0,0.0,0.0,0.0966,0.2222,0.3378,0.5478,0.7051,0.6916,0.6893,0.6893,0.6893,0.6893,0.0,0.7078,0.7095,0.7095,0.7092,0.6875,0.6698,0.6695,0.6285,0.6091,0.6276,0.5962,0.5793,0.5786,0.7021,0.7543,0.721,0.8006,0.8422,0.8422,0.0,0.0,0.0,0.0,0.0,0.0,0.0,0.0,0.0,0.0,0.0,0.0,0.0,0.0,0.0,0.0,0.0,0.0,0.0,0.0,0.0,0.0,0.0,0.0,0.0169,0.0224,0.0047,0.0,0.0,0.0,0.0,0.0,0.0,0.0,0.0,0.0,0.0,0.0,0.0,0.0,0.0,0.0,0.0,0.0,0.0,0.0,0.0,0.0,0.0,0.0,0.0,0.0,0.0,0.0056,0.0448,0.1231,0.2347,0.3911,0.4972,0.5641,0.5252,0.5363,0.547,0.3943,0.3383,0.3153,0.1581,0.0866,0.0646,0.1008,0.0575,0.0052,0.0463,0.0306,0.0,0.0,0.0,0.0,0.0,0.0,0.0,0.0,0.1656,0.3223,0.3534,0.5486,0.7085,0.7045,0.7038,0.7038,0.7038,0.7038,0.0,0.7092,0.7095,0.7058,0.6953,0.6814,0.6654,0.6546,0.6224,0.6,0.5932,0.5752,0.5599,0.5521,0.7043,0.8452,0.9619,0.919,0.8978,0.0,0.0,0.0,0.0,0.0,0.0,0.0,0.0,0.0,0.0,0.0,0.0,0.0,0.0,0.0,0.0,0.0,0.0,0.0,0.0,0.0,0.0,0.0,0.0,0.0,0.0,0.0,0.0,0.0,0.0,0.0,0.0,0.0,0.0,0.0,0.0,0.0,0.0,0.0,0.0,0.0,0.0,0.0,0.0,0.0,0.0,0.0,0.0,0.0,0.0,0.0,0.0,0.0,0.0,0.0,0.0,0.0504,0.0,0.0,0.0,0.0,0.0,0.4526,0.4303,0.2738,0.218,0.1954,0.0499,0.0,0.0,0.0,0.0,0.0,0.0,0.0,0.0,0.0,0.0,0.0,0.0,0.0,0.0151,0.0706,0.2295,0.3747,0.4316,0.5874,0.0,0.7095,0.7095,0.7095,0.7095,0.7095,0.7095,0.7095,0.7095,0.7041,0.6903,0.6793,0.6637,0.6525,0.62,0.0,0.0,0.0,0.5793,0.627,0.7592,0.0,0.0,0.0,0.0,0.0,0.0,0.0,0.0,0.9291,0.9232,0.0,0.0,0.0,0.0,0.0,0.0,0.0,0.0,0.0,0.0,0.0,0.0,0.0,0.0,0.0,0.0,0.0,0.0,0.0,0.0,0.0,0.0,0.0,0.0,0.0,0.0,0.0,0.0,0.0,0.0,0.0,0.0,0.0,0.0,0.0,0.0,0.0,0.0,0.0,0.0,0.0,0.0,0.0,0.0,0.0,0.0,0.0,0.0,0.0,0.0,0.0,0.0,0.0,0.1623,0.3968,0.3968,0.3968,0.3801,0.2403,0.0,0.0,0.0448,0.0,0.0,0.0,0.0,0.0,0.0,0.0,0.0,0.0,0.0,0.0,0.0,0.0101,0.0555,0.1762,0.2977,0.4173,0.5355,0.6424,0.7095,0.7095,0.7095,0.7095,0.7095,0.7095,0.7095,0.7095,0.7095,0.7034,0.6876,0.0,0.0,0.6504,0.619,0.5993,0.5993,0.5873,0.633,0.757,0.8487,0.937,1.023,1.0521,1.0814,1.1042,1.1262,1.1409,1.1402,0.9846,0.9679,0.0,0.0,0.0,0.0,0.0,0.0,0.0,0.0,0.0,0.0,0.0,0.0,0.0,0.0,0.0,0.0,0.0,0.0,0.0,0.0,0.0,0.0,0.0,0.0,0.0,0.0,0.0,0.0,0.0,0.0,0.0,0.0,0.0,0.0,0.0,0.0,0.0,0.0,0.0,0.0,0.0,0.0,0.0,0.0,0.0,0.0,0.0,0.0,0.0,0.0,0.0,0.0,0.0,0.0336,0.0896,0.0896,0.0896,0.084,0.0504,0.0448,0.0392,0.0112,0.0,0.0,0.0,0.0,0.0,0.0,0.0,0.0,0.0,0.0,0.0,0.0,0.0807,0.1661,0.1963,0.3705,0.5308,0.5546,0.6424,0.7095,0.7095,0.7095,0.7095,0.7095,0.7095,0.7095,0.7095,0.7095,0.6994,0.6773,0.6719,0.659,0.6364,0.6135,0.5993,0.5993,0.6609,0.7408,0.8334,0.9326,1.0248,1.1136,1.1196,1.1283,1.1309,1.1362,1.155,1.1806,1.1189,1.1169,0.0,0.0,0.0,0.0,0.0,0.0,0.0,0.0,0.0,0.0,0.0,0.0,0.0,0.0,0.0,0.0,0.0,0.0,0.0,0.0,0.0,0.0,0.0,0.0,0.0,0.0,0.0,0.0,0.0,0.0,0.0,0.0,0.0,0.0,0.0,0.0,0.0,0.0,0.0,0.0,0.0,0.0,0.0,0.0,0.0,0.0,0.0,0.0,0.0,0.0,0.0,0.0,0.0,0.0,0.0,0.0,0.0,0.0,0.0,0.0,0.0,0.0,0.0,0.0,0.0,0.0,0.0,0.0,0.0,0.0,0.0,0.0,0.0151,0.0857,0.1511,0.2364,0.3718,0.4825,0.5782,0.6449,0.6888,0.7095,0.7095,0.7095,0.7095,0.7095,0.7095,0.7095,0.7095,0.7034,0.6906,0.6725,0.663,0.6498,0.632,0.6118,0.6213,0.6726,0.7497,0.8373,0.9329,1.0239,1.0977,1.1389,1.157,1.165,1.165,1.179,1.1944,1.2084,1.2084,1.2201,0.0,0.0,0.0,0.0,0.0,0.0,0.0,0.0,0.0,0.0,0.0,0.0,0.0,0.0,0.0,0.0,0.0,0.0,0.0,0.0,0.0,0.0,0.0,0.0,0.0,0.0,0.0,0.0,0.0,0.0,0.0,0.0,0.0,0.0,0.0,0.0,0.0,0.0,0.0,0.0,0.0,0.0,0.0,0.0,0.0,0.0,0.0,0.0,0.0,0.0,0.0,0.0,0.0,0.0,0.0,0.0,0.0,0.0,0.0,0.0,0.0,0.0,0.0,0.0,0.0,0.0,0.0,0.0,0.0,0.0,0.0,0.0202,0.0656,0.1762,0.2414,0.3369,0.5527,0.5996,0.6305,0.7406,0.735,0.7095,0.7095,0.7095,0.7095,0.7095,0.7095,0.7095,0.7095,0.6974,0.6829,0.6715,0.6563,0.6453,0.6313,0.6146,0.648,0.7513,0.8314,0.9182,1.0178,1.1102,1.1562,1.1562,1.1646,1.1693,1.1693,1.1717,1.1857,1.2094,1.2478,1.2725,0.0,0.0,0.0,0.0,0.0,0.0,0.0,0.0,0.0,0.0,0.0,0.0,0.0,0.0,0.0,0.0,0.0,0.0,0.0,0.0,0.0,0.0,0.0,0.0,0.0,0.0,0.0,0.0,0.0,0.0,0.0,0.0,0.0,0.0,0.0,0.0,0.0,0.0,0.0,0.0,0.0,0.0,0.0,0.0,0.0,0.0,0.0,0.0,0.0,0.0,0.0,0.0,0.0,0.0,0.0,0.0,0.0,0.0,0.0,0.0,0.0,0.0,0.0,0.0,0.0,0.0,0.0,0.0,0.0,0.0,0.0,0.0907,0.1812,0.1962,0.3819,0.5627,0.5929,0.6731,0.7409,0.7553,0.735,0.7095,0.7095,0.7095,0.7095,0.7095,0.7095,0.7095,0.7095,0.6974,0.6829,0.6715,0.6563,0.6453,0.6313,0.6282,0.6692,0.7711,0.867,0.9665,1.0664,1.1678,1.2204,1.2204,1.1366,1.0928,1.0928,1.0198,1.0318,1.1319,1.1802,1.2407,0.0,0.0,0.0,0.0,0.0,0.0,0.0,0.0,0.0,0.0,0.0,0.0,0.0,0.0,0.0,0.0,0.0,0.0,0.0,0.0,0.0,0.0,0.0,0.0,0.0,0.0,0.0,0.0,0.0,0.0,0.0,0.0,0.0,0.0,0.0,0.0,0.0,0.0,0.0,0.0,0.0,0.0,0.0,0.0,0.0,0.0,0.0,0.0,0.0,0.0,0.0,0.0,0.0,0.0,0.0,0.0,0.0,0.0,0.0,0.0,0.0,0.0,0.0,0.0,0.0,0.0,0.0,0.0,0.0,0.0202,0.0958,0.1561,0.2414,0.3969,0.5175,0.6229,0.6983,0.7417,0.76,0.76,0.735,0.7095,0.7095,0.7095,0.7095,0.7095,0.7095,0.7065,0.6984,0.6846,0.6705,0.6471,0.6426,0.6364,0.6306,0.63,0.6984,0.8575,0.9069,1.0008,1.162,1.2077,1.2305,1.2305,1.1885,1.1657,1.1657,1.1511,1.169,1.2139,1.2658,1.3072,-0.0347,-0.0461,-0.048,-0.0462,-0.0453,-0.0398,-0.0081,0.0,0.0,0.0,0.0,0.0,0.0,0.0,0.0,0.0,0.0,0.0,0.0,0.0,0.0,0.0,0.0,0.0,0.0,0.0,0.0,0.0,0.0,0.0,0.0,0.0,0.0,0.0,0.0,0.0,0.0,0.0,0.0,0.0,0.0,0.0,0.0,0.0,0.0,0.0,0.0,0.0,0.0,0.0,0.0,0.0,0.0,0.0,0.0,0.0,0.0,0.0,0.0,0.0,0.0,0.0,0.0,0.0,0.0,0.0,0.0,0.0,0.0259,0.0756,0.1762,0.2565,0.3568,0.5527,0.6279,0.6833,0.7789,0.7807,0.76,0.76,0.735,0.7095,0.7095,0.7095,0.7095,0.7095,0.7095,0.7045,0.6903,0.6759,0.6539,0.6327,0.63,0.63,0.63,0.63,0.7176,0.9183,0.9296,1.0201,1.2224,1.2305,1.2305,1.2305,1.2033,1.1885,1.1885,1.1973,1.215,1.2531,1.3022,1.3424,-0.1264,-0.1642,-0.1697,-0.1601,-0.1641,-0.1434,-0.0258,0.0,0.0,0.0,0.0,0.0,0.0,0.0,0.0,0.0,0.0,0.0,0.0,0.0,0.0,0.0,0.0,0.0,0.0,0.0,0.0,0.0,0.0,0.0,0.0,0.0,0.0,0.0,0.0,0.0,0.0,0.0,0.0,0.0,0.0,0.0,0.0,0.0,0.0,0.0,0.0,0.0,0.0,0.0,0.0,0.0,0.0,0.0,0.0,0.0,0.0,0.0,0.0,0.0,0.0,0.0,0.0,0.0,0.0,0.0,0.0,0.0,0.0921,0.1963,0.2013,0.392,0.5879,0.5979,0.6983,0.7939,0.7988,0.7807,0.76,0.76,0.735,0.7095,0.7095,0.7095,0.7095,0.7095,0.7095,0.7045,0.6903,0.6664,0.6463,0.6317,0.63,0.63,0.63,0.63,0.7176,0.9183,0.9296,1.0201,1.2224,1.2305,1.2305,1.2305,1.1354,1.0864,1.082,1.0268,1.0584,1.1742,1.2165,1.2972,-0.142,-0.1781,-0.1796,-0.1755,-0.1783,-0.1496,-0.0265,0.0,0.0,0.0,0.0,0.0,0.0,0.0,0.0,0.0,0.0,0.0,0.0,0.0,0.0,0.0,0.0,0.0,0.0,0.0,0.0,0.0,0.0,0.0,0.0,0.0,0.0,0.0,0.0,0.0,0.0,0.0,0.0,0.0,0.0,0.0,0.0,0.0,0.0,0.0,0.0,0.0,0.0,0.0,0.0,0.0,0.0,0.0,0.0,0.0,0.0,0.0,0.0,0.0,0.0,0.0,0.0,0.0,0.0,0.0,0.0159,0.1094,0.1635,0.2414,0.4171,0.5325,0.6229,0.7135,0.7686,0.7961,0.7909,0.7736,0.757,0.7468,0.7282,0.7095,0.7095,0.7095,0.7095,0.7095,0.693,0.6831,0.6783,0.6515,0.6354,0.6306,0.63,0.63,0.63,0.63,0.7176,0.9183,0.9296,1.0201,1.2224,1.2305,1.2305,1.2305,1.1959,1.1805,1.1811,1.1994,1.2307,1.2691,1.3256,1.3688,-0.1943,-0.2417,-0.2438,-0.2341,-0.2371,-0.2023,-0.0358,0.0,0.0,0.0,0.0,0.0,0.0,0.0,0.0,0.0,0.0,0.0,0.0,0.0,0.0,0.0,0.0,0.0,0.0,0.0,0.0,0.0,0.0,0.0,0.0,0.0,0.0,0.0,0.0,0.0,0.0,0.0,0.0,0.0,0.0,0.0,0.0,0.0,0.0,0.0,0.0,0.0,0.0056,0.056,0.0448,0.0056,0.056,0.0448,0.0,0.0,0.0,0.0,0.0,0.0,0.0,0.0,0.0,0.0,0.0,0.0,0.0263,0.1597,0.2335,0.3215,0.5425,0.6379,0.6933,0.7789,0.7988,0.7948,0.7845,0.7699,0.7553,0.7446,0.7248,0.7095,0.7095,0.7095,0.7095,0.7095,0.6893,0.6763,0.6709,0.6484,0.63,0.63,0.63,0.63,0.63,0.6641,0.7557,0.9183,0.9631,1.0571,1.2224,1.2305,1.2305,1.2305,1.2405,1.2496,1.2496,1.3066,1.3327,1.338,1.3861,1.4088,-0.2728,-0.3411,-0.3451,-0.3262,-0.3389,-0.2903,-0.0538,0.0,0.0,0.0,0.0,0.0,0.0,0.0,0.0,0.0,0.0,0.0,0.0,0.0,0.0,0.0,0.0,0.0,0.0,0.0,0.0,0.0,0.0,0.0,0.0,0.0,0.0,0.0,0.0,0.0,0.0,0.0,0.0,0.0,0.0,0.0,0.0,0.0,0.0,0.0,0.0,0.0,0.0112,0.151,0.1287,0.0112,0.1566,0.1231,0.0,0.0,0.0,0.0,0.0,0.0,0.0,0.0,0.0,0.0,0.0,0.0,0.031,0.1721,0.3015,0.4316,0.5727,0.7033,0.7988,0.7988,0.7988,0.7944,0.7834,0.7695,0.7553,0.739,0.7241,0.7095,0.7095,0.7095,0.7095,0.7095,0.6977,0.6832,0.6729,0.6494,0.631,0.631,0.6303,0.63,0.63,0.7176,0.8161,0.9221,1.0153,1.1124,1.2261,1.2261,1.2261,1.2305,1.263,1.2784,1.2784,1.3347,1.36,1.3613,1.3948,1.4088,-0.1806,-0.2251,-0.223,-0.2204,-0.2227,-0.1871,-0.0352,0.0,0.0,0.0,0.0,0.0,0.0,0.0,0.0,0.0,0.0,0.0,0.0,0.0,0.0,0.0,0.0,0.0,0.0,0.0,0.0,0.0,0.0,0.0,0.0,0.0,0.0,0.0,0.0,0.0,0.0,0.0,0.0,0.0,0.0,0.0,0.0,0.0,0.0,0.0,0.0,0.0,0.0056,0.0392,0.0336,0.0056,0.0392,0.0336,0.0,0.0,0.0,0.0,0.0,0.0,0.0,0.0,0.0,0.0,0.0,0.0,0.0465,0.2829,0.3715,0.4518,0.688,0.7739,0.7988,0.7988,0.7988,0.7921,0.7709,0.7624,0.7519,0.7251,0.7122,0.7095,0.7095,0.7095,0.7095,0.7095,0.6977,0.6873,0.6832,0.6607,0.6457,0.6457,0.6364,0.63,0.63,0.6528,0.7442,0.9183,0.8841,0.9701,1.2187,1.1583,1.1539,1.2298,1.263,1.2784,1.2784,1.3347,1.36,1.3613,1.3948,1.4088,-0.1471,-0.1816,-0.1808,-0.1785,-0.1822,-0.149,-0.0255,0.0,0.0,0.0,0.0,0.0,0.0,0.0,0.0,0.0,0.0,0.0,0.0,0.0,0.0,0.0,0.0,0.0,0.0,0.0,0.0,0.0,0.0,0.0,0.0,0.0,0.0,0.0,0.0,0.0,0.0,0.0,0.0,0.0,0.0,0.0,0.0,0.0,0.0,0.0,0.0,0.0392,0.1008,0.1679,0.1567,0.1008,0.1735,0.1176,0.0,0.0,0.0,0.0,0.0,0.0,0.0,0.0,0.0,0.0,0.0,0.0,0.0562,0.3225,0.4016,0.4616,0.7282,0.7988,0.7988,0.7988,0.7938,0.7879,0.7648,0.7546,0.7428,0.7142,0.7095,0.7095,0.7095,0.7095,0.7095,0.7095,0.7028,0.6977,0.6977,0.6759,0.6546,0.6518,0.6443,0.6368,0.6306,0.6718,0.7442,0.8575,0.8542,0.9221,1.0913,1.0864,1.1087,1.162,1.2535,1.2991,1.2991,1.3547,1.3841,1.38,1.4008,1.4088,-0.1299,-0.1545,-0.1567,-0.1567,-0.1583,-0.1281,-0.0245,0.0,0.0,0.0,0.0,0.0,0.0,0.0,0.0,0.0,0.0,0.0,0.0,0.0,0.0,0.0,0.0,0.0,0.0,0.0,0.0,0.0,0.0,0.0,0.0,0.0,0.0,0.0,0.0,0.0,0.0,0.0,0.0,0.0,0.0,0.0,0.0,0.0,0.0,0.0,0.0,0.0,0.2012,0.3353,0.313,0.2069,0.3353,0.2294,0.0,0.0,0.0,0.0,0.0,0.0,0.0,0.0,0.0,0.0,0.0,0.0,0.0555,0.3265,0.4016,0.4616,0.7282,0.7988,0.7988,0.7988,0.7923,0.7773,0.7631,0.7461,0.7299,0.7122,0.7095,0.7095,0.7095,0.7095,0.7095,0.7095,0.7095,0.7095,0.7095,0.6902,0.6671,0.6559,0.6525,0.6453,0.6313,0.7099,0.7668,0.7783,0.8504,0.9031,0.9296,1.0002,1.0447,1.0602,1.2182,1.3008,1.3008,1.376,1.4088,1.4088,1.4088,1.4088,-0.0265,-0.0313,-0.0314,-0.0314,-0.0305,-0.0251,-0.004,0.0,0.0,0.0,0.0,0.0,0.0,0.0,0.0,0.0,0.0,0.0,0.0,0.0,0.0,0.0,0.0,0.0,0.0,0.0,0.0,0.0,0.0,0.0,0.0,0.0,0.0,0.0,0.0,0.0,0.0,0.0,0.0,0.0,0.0,0.0,0.0,0.0,0.0,0.0,0.0,0.0,0.0392,0.0672,0.0616,0.0392,0.0672,0.0448,0.0,0.0,0.0,0.0,0.0,0.0,0.0,0.0,0.0,0.0,0.0,0.0,0.0555,0.3265,0.4016,0.4616,0.7282,0.7988,0.7988,0.7988,0.7923,0.7773,0.7631,0.738,0.7129,0.7102,0.7095,0.7095,0.7095,0.7095,0.7095,0.7095,0.7095,0.7095,0.7095,0.695,0.6831,0.6678,0.6549,0.6453,0.6313,0.6451,0.6911,0.7744,0.7173,0.7553,0.9221,0.8651,0.8727,0.9561,1.1155,1.1948,1.1948,1.3415,1.4088,1.4088,1.4088,1.4088,0.0,0.0,0.0,0.0,0.0,0.0,0.0,0.0,0.0,0.0,0.0,0.0,0.0,0.0,0.0,0.0,0.0,0.0,0.0,0.0,0.0,0.0,0.0,0.0,0.0,0.0,0.0,0.0,0.0,0.0,0.0,0.0,0.0,0.0,0.0,0.0,0.0,0.0,0.0,0.0,0.0,0.0,0.0,0.0,0.0,0.0,0.0,0.0,0.1119,0.1119,0.1119,0.1119,0.1119,0.0672,0.0,0.0,0.0,0.0,0.0,0.0,0.0,0.0,0.0,0.0,0.0,0.0512,0.146,0.3466,0.4518,0.5472,0.7484,0.7988,0.7988,0.7988,0.7865,0.7662,0.7512,0.7302,0.7095,0.7095,0.7095,0.7095,0.7095,0.7095,0.7095,0.7095,0.7095,0.7095,0.7095,0.7038,0.691,0.6725,0.6563,0.6453,0.6313,0.63,0.649,0.6984,0.6567,0.6718,0.7706,0.7783,0.8056,0.8613,1.0666,1.1727,1.1816,1.3355,1.4088,1.4088,1.4088,1.4088,0.0,0.0,0.0,0.0,0.0,0.0,0.0,0.0,0.0,0.0,0.0,0.0,0.0,0.0,0.0,0.0,0.0,0.0,0.0,0.0,0.0,0.0,0.0,0.0,0.0,0.0,0.0,0.0,0.0,0.0,0.0,0.0,0.0,0.0,0.0,0.0,0.0,0.0,0.0,0.0,0.0,0.0,0.0,0.0,0.0,0.0,0.0,0.0,0.0,0.1733,0.1733,0.1733,0.1733,0.1008,0.0,0.0,0.0,0.0,0.0,0.0,0.0,0.0,0.0,0.0,0.0,0.0918,0.2264,0.3615,0.497,0.6331,0.7637,0.7988,0.7975,0.7911,0.777,0.755,0.7363,0.7224,0.7095,0.7095,0.7095,0.7095,0.7095,0.7095,0.7095,0.7095,0.7095,0.7095,0.7095,0.7068,0.6964,0.6773,0.6644,0.6538,0.6361,0.6344,0.633,0.6303,0.63,0.6313,0.6344,0.7111,0.7575,0.7709,0.9908,1.11,1.1236,1.2903,1.3688,1.373,1.3997,1.4088,0.0,0.0,0.0,0.0,0.0,0.0,0.0,0.0,0.0,0.0,0.0,0.0,0.0,0.0,0.0,0.0,0.0,0.0,0.0,0.0,0.0,0.0,0.0,0.0,0.0,0.0,0.0,0.0,0.0,0.0,0.0,0.0,0.0,0.0,0.0,0.0,0.0,0.0,0.0,0.0,0.0,0.0,0.0,0.0,0.0,0.0,0.0,0.0,0.0,0.0224,0.0224,0.0224,0.0224,0.0112,0.0,0.0,0.0,0.0,0.0,0.0,0.0,0.0,0.0,0.0,0.0,0.0959,0.2264,0.3615,0.497,0.6331,0.7637,0.7988,0.7924,0.7702,0.7617,0.7519,0.7179,0.7105,0.7095,0.7095,0.7095,0.7095,0.7095,0.7095,0.7095,0.7095,0.7095,0.7095,0.7095,0.6984,0.6896,0.6869,0.6852,0.677,0.6518,0.6494,0.6436,0.631,0.63,0.6358,0.6487,0.657,0.6683,0.6798,0.8238,0.8965,0.8983,1.1352,1.2456,1.2504,1.3597,1.4088,0.0,0.0,0.0,0.0,0.0,0.0,0.0,0.0,0.0,0.0,0.0,0.0,0.0,0.0,0.0,0.0,0.0,0.0,0.0,0.0,0.0,0.0,0.0,0.0,0.0,0.0,0.0,0.0,0.0,0.0,0.0,0.0,0.0,0.0,0.0,0.0,0.0,0.0,0.0,0.0,0.0,0.0,0.0,0.0,0.0,0.0,0.0,0.0,0.0,0.0,0.0,0.0,0.0,0.0,0.0,0.0,0.0,0.0,0.0,0.0,0.0107,0.0941,0.1182,0.1221,0.1212,0.2716,0.4522,0.5072,0.6176,0.7335,0.7839,0.7988,0.7938,0.7777,0.7662,0.7543,0.7326,0.7207,0.7095,0.7095,0.7095,0.7095,0.7095,0.7095,0.7095,0.7095,0.7095,0.7095,0.7095,0.7048,0.7011,0.7011,0.6814,0.6603,0.6521,0.6433,0.6361,0.6303,0.6378,0.6453,0.6511,0.6559,0.6681,0.6834,0.8066,0.8747,0.8819,1.1166,1.2285,1.2328,1.3555,1.4088,0.0,0.0,0.0,0.0,0.0,0.0,0.0,0.0,0.0,0.0,0.0,0.0,0.0,0.0,0.0,0.0,0.0,0.0,0.0,0.0,0.0,0.0,0.0,0.0,0.0,0.0,0.0,0.0,0.0,0.0,0.0,0.0,0.0,0.0,0.0,0.0,0.0,0.0,0.0,0.0,0.0,0.0,0.0,0.0,0.0,0.0,0.0,0.0,0.0,0.0,0.0,0.0,0.0,0.0,0.0,0.0,0.0,0.0,0.0,0.0268,0.0738,0.1705,0.2542,0.3167,0.3167,0.4522,0.5979,0.5979,0.6983,0.7988,0.7988,0.7988,0.7941,0.7794,0.7672,0.7546,0.7346,0.7217,0.7095,0.7095,0.7095,0.7095,0.7095,0.7095,0.7095,0.7095,0.7095,0.7095,0.7095,0.7095,0.7082,0.7038,0.6797,0.6586,0.6546,0.6446,0.6461,0.6721,0.6587,0.6652,0.6976,0.685,0.6841,0.6947,0.7795,0.828,0.8364,1.0692,1.1809,1.1809,1.3385,1.4088,0.0,0.0,0.0,0.0,0.0,0.0,0.0,0.0,0.0,0.0,0.0,0.0,0.0,0.0,0.0,0.0,0.0,0.0,0.0,0.0,0.0,0.0,0.0,0.0,0.0,0.0,0.0,0.0,0.0,0.0,0.0,0.0,0.0,0.0,0.0,0.0,0.0,0.0,0.0,0.0,0.0,0.0,0.0,0.0,0.0,0.0,0.0,0.0,0.0,0.0,0.0,0.0,0.0,0.0,0.0,0.0,0.0,0.0,0.0,0.0895,0.196,0.1975,0.382,0.5979,0.5979,0.5979,0.5979,0.5979,0.6983,0.7988,0.7988,0.7988,0.7917,0.7672,0.76,0.7516,0.7166,0.7098,0.7095,0.7095,0.7095,0.7095,0.7095,0.7095,0.7095,0.7095,0.7095,0.7095,0.7095,0.7095,0.7041,0.6903,0.6883,0.6861,0.6712,0.6559,0.6878,0.7718,0.6978,0.702,0.8156,0.7344,0.695,0.7092,0.7092,0.7139,0.7139,0.9483,1.0611,1.0654,1.2997,1.4088,0.0,0.0,0.0,0.0,0.0,0.0,0.0,0.0,0.0,0.0,0.0,0.0,0.0,0.0,0.0,0.0,0.0,0.0,0.0,0.0,0.0,0.0,0.0,0.0,0.0,0.0,0.0,0.0,0.0,0.0,0.0,0.0,0.0,0.0,0.0,0.0,0.0,0.0,0.0,0.0,0.0,0.0,0.0,0.0,0.0,0.0,0.0,0.0,0.0,0.0,0.0,0.0,0.0,0.0,0.0,0.0,0.0,0.0,0.0,0.0895,0.2166,0.3084,0.457,0.6179,0.7083,0.7385,0.7385,0.7385,0.7686,0.7988,0.7988,0.7914,0.7834,0.7645,0.7519,0.7387,0.7139,0.7095,0.7095,0.7095,0.7095,0.7095,0.7095,0.7095,0.7095,0.7095,0.7095,0.7095,0.7095,0.7095,0.7078,0.7034,0.6943,0.6824,0.6566,0.7173,0.7308,0.6806,0.7322,0.7498,0.7188,0.7068,0.7051,0.7095,0.7095,0.7095,0.7095,0.944,1.1434,1.2997,1.3932,1.4382,0.0,0.0,0.0,0.0,0.0,0.0,0.0,0.0,0.0,0.0,0.0,0.0,0.0,0.0,0.0,0.0,0.0,0.0,0.0,0.0,0.0,0.0,0.0,0.0,0.0,0.0,0.0,0.0,0.0,0.0,0.0,0.048,0.0534,0.0,0.0,0.0,0.0,0.0,0.0,0.0,0.0559,0.084,0.084,0.084,0.0,0.0,0.0,0.0,0.0,0.0,0.0,0.0,0.0,0.0,0.0,0.0,0.0,0.0054,0.0584,0.1613,0.296,0.4334,0.5675,0.6933,0.7739,0.7988,0.7988,0.7988,0.7988,0.7975,0.7917,0.7882,0.776,0.756,0.7441,0.7329,0.7129,0.7095,0.7095,0.7095,0.7095,0.7095,0.7095,0.7095,0.7095,0.7095,0.7095,0.7095,0.7095,0.7095,0.7075,0.7021,0.6987,0.7055,0.7222,0.7688,0.7841,0.7543,0.7926,0.7954,0.7362,0.7184,0.7095,0.7095,0.7095,0.7095,0.7095,0.944,1.1871,1.4255,1.4436,1.4583,0.0,0.0,0.0,0.0,0.0,0.0,0.0,0.0,0.0,0.0,0.0,0.0,0.0,0.0,0.0,0.0,0.0,0.0,0.0,0.0,0.0,0.0,0.0,0.0,0.0,0.0,0.0,0.0,0.0,0.0,0.0159,0.1325,0.1473,0.0311,0.0263,0.0213,0.0,0.0108,0.0164,0.0164,0.1662,0.2343,0.2343,0.2345,0.0,0.0,0.0,0.0,0.0,0.0336,0.028,0.0168,0.0168,0.0112,0.0,0.0,0.0,0.0213,0.1511,0.2859,0.4218,0.5675,0.6983,0.7988,0.7988,0.7988,0.7988,0.7988,0.7982,0.7941,0.7848,0.7794,0.7712,0.7438,0.7409,0.7316,0.7125,0.7095,0.7095,0.7095,0.7095,0.7095,0.7095,0.7095,0.7095,0.7095,0.7095,0.7095,0.7095,0.7095,0.7045,0.6916,0.7105,0.7577,0.8452,0.8301,0.8511,0.936,0.8725,0.8346,0.831,0.7538,0.7095,0.7095,0.7095,0.7183,0.7356,0.954,1.1967,1.4522,1.4519,1.473,0.0,0.0,0.0,0.0,0.0,0.0,0.0,0.0,0.0,0.0,0.0,0.0,0.0,0.0,0.0,0.0,0.0,0.0,0.0,0.0,0.0,0.0,0.0,0.0,0.0,0.0,0.0,0.0,0.0,0.046,0.148,0.1836,0.2339,0.3035,0.3048,0.2053,0.0,0.0995,0.1531,0.1552,0.3044,0.3726,0.3727,0.3889,0.0,0.0,0.0,0.0,0.3466,0.3466,0.2739,0.1677,0.1677,0.1008,0.0,0.0,0.0,0.0213,0.1511,0.2859,0.4366,0.6778,0.7739,0.7988,0.7988,0.7988,0.7988,0.7988,0.7907,0.7858,0.7821,0.7645,0.7458,0.7433,0.7282,0.7139,0.7102,0.7095,0.7095,0.7095,0.7095,0.7095,0.7095,0.7095,0.7095,0.7095,0.7095,0.7095,0.7095,0.7095,0.7085,0.7051,0.7906,0.8836,0.9684,0.97,0.9393,0.8707,0.9339,0.8981,0.7307,0.7152,0.7095,0.7095,0.7095,0.7965,0.9788,1.0607,1.218,1.4529,1.4977,1.5231,0.0,0.0,0.0,0.0,0.0,0.0,0.0,0.0,0.0,0.0,0.0,0.0,0.0,0.0,0.0,0.0,0.0,0.0,0.0,0.0,0.0,0.0,0.0,0.0,0.0,0.0,0.0,0.0,0.0,0.1209,0.1962,0.3167,0.3869,0.4016,0.4618,0.3937,0.184,0.2573,0.2908,0.2937,0.4427,0.5161,0.5165,0.5366,0.541,0.0,0.0,0.0,0.4526,0.4526,0.4023,0.324,0.324,0.2726,0.1876,0.125,0.0961,0.1101,0.2467,0.4203,0.6071,0.7534,0.7988,0.7988,0.7988,0.7988,0.7988,0.7988,0.788,0.7794,0.7733,0.7543,0.7398,0.7282,0.72,0.7095,0.7095,0.7095,0.7095,0.7095,0.7095,0.7095,0.7095,0.7095,0.7095,0.7095,0.7095,0.7095,0.7095,0.7577,0.7929,0.7929,0.8969,1.0091,1.1075,1.0683,1.0043,0.9289,0.9841,0.9235,0.7064,0.7055,0.7095,0.7095,0.7095,0.8269,1.0611,1.0776,1.2185,1.473,1.505,1.5337,0.0,0.0,0.0,0.0,0.0,0.0,0.0,0.0,0.0,0.0,0.0,0.0,0.0,0.0,0.0,0.0,0.0,0.0,0.0,0.0,0.0,0.0,0.0,0.0,0.0,0.0,0.0,0.0,0.0,0.2163,0.2565,0.4772,0.5575,0.4618,0.5724,0.5774,0.4616,0.4385,0.4318,0.432,0.586,0.6597,0.6603,0.672,0.6829,0.6727,0.0,0.0,0.5121,0.519,0.5027,0.4804,0.4582,0.4369,0.4021,0.246,0.1945,0.2166,0.3539,0.5772,0.7988,0.7988,0.7988,0.7988,0.7988,0.7988,0.7985,0.7961,0.7896,0.7746,0.76,0.7451,0.7302,0.7129,0.7095,0.7095,0.7095,0.7095,0.7095,0.7095,0.7095,0.7095,0.7095,0.7095,0.7095,0.7095,0.7095,0.7183,0.7356,0.8277,0.8978,0.9148,1.0178,1.1166,1.1986,1.1295,1.0615,1.0053,1.0001,0.9141,0.7177,0.7272,0.736,0.736,0.7533,0.8703,1.0864,1.0906,1.2338,1.5008,1.5055,1.5317,0.0,0.0,0.0,0.0,0.0,0.0,0.0,0.0,0.0,0.0,0.0,0.0,0.0,0.0,0.0,0.0,0.0,0.0,0.0,0.0,0.0,0.0,0.0,0.0,0.0,0.0,0.0,0.0,0.0,0.0,0.5275,0.5779,0.6429,0.7332,0.7587,0.7587,0.7385,0.6245,0.5701,0.5701,0.725,0.7991,0.7994,0.8135,0.8197,0.8203,0.0,0.8033,0.8043,0.8161,0.7485,0.6255,0.4973,0.4369,0.3912,0.1286,0.1053,0.2166,0.3539,0.5772,0.7988,0.7988,0.7988,0.7988,0.7988,0.7988,0.7965,0.7882,0.7743,0.7597,0.7444,0.7292,0.7125,0.7102,0.7095,0.7095,0.7095,0.7095,0.7095,0.7095,0.7095,0.7095,0.7095,0.7095,0.7095,0.7095,0.7095,0.7492,0.8496,0.8803,0.9279,1.0226,1.1338,1.1724,1.0907,1.1595,1.1198,0.9235,0.9104,0.8511,0.7139,0.8101,0.8627,0.8627,0.9575,1.0692,1.2029,1.2328,1.3358,1.5015,1.5217,1.5504,0.0,0.0,0.0,0.0,0.0,0.0,0.0,0.0,0.0,0.0,0.0,0.0,0.0,0.0,0.0,0.0,0.0,0.0,0.0,0.0,0.0,0.0,0.0,0.0,0.0,0.0,0.0,0.0,0.0,0.0,0.5879,0.6681,0.7385,0.7988,0.7988,0.7988,0.7988,0.7385,0.7083,0.7086,0.7808,0.8147,0.815,0.8299,0.8367,0.8377,0.0,0.8587,0.8594,0.8662,0.8309,0.7603,0.695,0.6557,0.6073,0.3218,0.2565,0.3151,0.3776,0.5772,0.7988,0.7988,0.7988,0.7988,0.7988,0.7988,0.7941,0.776,0.7651,0.7563,0.7456,0.7255,0.7095,0.7095,0.7095,0.7095,0.7095,0.7095,0.7095,0.7095,0.7095,0.7095,0.7095,0.7095,0.7095,0.7095,0.7665,0.8277,0.8846,0.9966,1.0956,1.1466,1.2553,1.3075,1.2559,1.1821,1.0654,0.9021,0.8281,0.7665,0.7139,0.8277,0.889,0.889,1.0009,1.1171,1.2285,1.263,1.3578,1.5015,1.5264,1.5551,0.0,0.0,0.0,0.0,0.0,0.0,0.0,0.0,0.0,0.0,0.0,0.0,0.0,0.0,0.0,0.0,0.0,0.0,0.0,0.0,0.0,0.0,0.0,0.0,0.0,0.0,0.0,0.0,0.0,0.0,0.6298,0.7368,0.7938,0.7938,0.7971,0.7988,0.7988,0.7988,0.7988,0.7988,0.7988,0.7988,0.7992,0.8163,0.8218,0.8225,0.837,0.8431,0.8435,0.8469,0.8482,0.8482,0.8108,0.7498,0.6646,0.5054,0.4268,0.4066,0.4368,0.6024,0.7988,0.7988,0.7988,0.7988,0.7988,0.7988,0.7928,0.7682,0.76,0.7556,0.7366,0.7227,0.7095,0.7095,0.7095,0.7095,0.7095,0.7095,0.7095,0.7095,0.7095,0.7095,0.7095,0.7095,0.7095,0.7095,0.8145,0.8978,0.9279,1.1042,1.2413,1.2674,1.3555,1.387,1.3343,1.1128,0.9401,0.854,0.7885,0.7536,0.7536,0.8925,0.971,0.971,1.0832,1.1863,1.2723,1.3033,1.38,1.5015,1.5264,1.5551,0.0,0.0,0.0,0.0,0.0,0.0,0.0,0.0,0.0,0.0,0.0,0.0,0.0,0.0,0.0,0.0,0.0,0.0,0.0,0.0,0.0,0.0,0.0,0.0,0.0,0.0,0.0,0.0,0.0,0.0,0.7392,0.7705,0.7828,0.7828,0.7917,0.7988,0.7988,0.7988,0.7988,0.7988,0.7988,0.7988,0.7988,0.8002,0.8005,0.8015,0.8218,0.8337,0.8347,0.8428,0.8482,0.8374,0.6995,0.4823,0.2734,0.5008,0.5072,0.4166,0.5425,0.6783,0.7988,0.7988,0.7988,0.7988,0.7988,0.7988,0.7928,0.7682,0.76,0.7529,0.7189,0.7105,0.7095,0.7095,0.7095,0.7095,0.7095,0.7095,0.7095,0.7095,0.7095,0.7095,0.7095,0.7095,0.7095,0.7095,0.8145,0.9279,1.0351,1.1552,1.2717,1.3864,1.4039,1.3215,1.1042,0.8703,0.7316,0.7228,0.8193,0.8759,0.8759,1.0907,1.2066,1.2066,1.3252,1.3913,1.3955,1.4246,1.4581,1.5015,1.5264,1.5551,0.0,0.0,0.0,0.0,0.0,0.0,0.0,0.0,0.0,0.0,0.0,0.0,0.0,0.0,0.0,0.0,0.0,0.0,0.0,0.0,0.0,0.0,0.0,0.0,0.0,0.0,0.0,0.0,0.0,0.0,0.0,0.7651,0.7719,0.7807,0.7868,0.7894,0.7988,0.7988,0.7988,0.7988,0.7988,0.7988,0.7988,0.7988,0.7988,0.7992,0.8102,0.8126,0.8133,0.8184,0.8208,0.8153,0.7588,0.6177,0.4616,0.5641,0.5677,0.5322,0.5827,0.6883,0.7988,0.7988,0.7988,0.7988,0.7988,0.7924,0.7855,0.7655,0.7533,0.7407,0.7149,0.7095,0.7095,0.7095,0.7095,0.7095,0.7095,0.7095,0.7095,0.7095,0.7095,0.7095,0.7095,0.7095,0.7356,0.8105,0.9231,1.0351,1.1509,1.2681,1.3597,1.4039,1.4088,1.3343,1.152,1.0524,0.9183,0.7228,0.8233,0.889,0.889,1.1085,1.2285,1.2285,1.347,1.4175,1.4355,1.4649,1.4943,1.5244,1.5531,1.5678,0.0,0.0,0.0,0.0,0.0,0.0,0.0,0.0,0.0,0.0,0.0,0.0,0.0,0.0,0.0,0.0,0.0,0.0,0.0,0.0,0.0,0.0,0.0,0.0,0.0,0.0,0.0,0.0,0.0,0.0,0.0,0.7502,0.7594,0.774,0.7787,0.7885,0.7988,0.7988,0.7988,0.7988,0.7988,0.7988,0.7988,0.7988,0.7988,0.7988,0.7988,0.7988,0.7988,0.7988,0.7988,0.7988,0.7988,0.7185,0.6029,0.6481,0.6379,0.6079,0.6481,0.7235,0.7988,0.7988,0.7988,0.7988,0.7988,0.7917,0.7845,0.7651,0.7522,0.7397,0.7149,0.7095,0.7095,0.7095,0.7095,0.7095,0.7095,0.7095,0.7095,0.7095,0.7095,0.7095,0.7095,0.7404,0.7929,0.8759,1.0178,1.1423,1.22,1.3336,1.4088,1.4088,1.4088,1.3652,1.2607,1.1176,0.9396,0.7228,0.8364,0.9192,0.9405,1.1649,1.2851,1.2851,1.3773,1.4322,1.4522,1.491,1.5204,1.5404,1.5698,1.5784,0.0,0.0,0.0,0.0,0.0,0.0,0.0,0.0,0.0,0.0,0.0,0.0,0.0,0.0,0.0,0.0,0.0,0.0,0.0,0.0,0.0,0.0,0.0,0.0,0.0,0.0,0.0,0.0,0.0,0.0,0.0,0.7285,0.7441,0.7594,0.7736,0.7882,0.7985,0.7988,0.7988,0.7988,0.7988,0.7988,0.7988,0.7988,0.7988,0.7988,0.7988,0.7988,0.7988,0.7988,0.7988,0.7988,0.7988,0.7185,0.6179,0.7487,0.7182,0.6229,0.7537,0.7988,0.7988,0.7988,0.7988,0.7988,0.7988,0.7988,0.7924,0.7682,0.7597,0.7526,0.7176,0.7095,0.7095,0.7095,0.7095,0.7095,0.7095,0.7095,0.7095,0.7095,0.7095,0.7095,0.7098,0.8105,0.889,0.8938,1.0869,1.2285,1.2328,1.3379,1.4088,1.4088,1.4088,1.4088,1.4088,0.9831,0.7139,0.7095,0.8575,0.9831,1.0567,1.2869,1.4088,1.4088,1.4376,1.4529,1.4529,1.511,1.5398,1.5404,1.5698,1.5784,0.0,0.0,0.0,0.0,0.0,0.0,0.0,0.0,0.0,0.0,0.0,0.0,0.0,0.0,0.0,0.0,0.0,0.0,0.0,0.0,0.0,0.0,0.0,0.0,0.0,0.0,0.0,0.0,0.0,0.0,0.0,0.7139,0.7282,0.7434,0.7584,0.7733,0.7879,0.7934,0.7988,0.7988,0.7988,0.7988,0.7988,0.7988,0.7988,0.7988,0.7988,0.7988,0.7988,0.7988,0.7988,0.7988,0.7988,0.7736,0.7434,0.7839,0.7739,0.7484,0.7839,0.7988,0.7988,0.7988,0.7988,0.7988,0.7988,0.7847,0.7712,0.7624,0.7444,0.721,0.7119,0.7095,0.7095,0.7095,0.7095,0.7095,0.7095,0.7095,0.7095,0.7095,0.7095,0.7129,0.7285,0.8186,0.9283,1.041,1.134,1.2339,1.3428,1.3864,1.4088,1.4088,1.4088,1.4088,1.4088,1.282,1.0611,0.7316,0.7533,0.8659,1.0524,1.3046,1.4389,1.4389,1.4683,1.493,1.5137,1.5311,1.5504,1.5705,1.5744,1.5784,0.0,0.0,0.0,0.0,0.0,0.0,0.0,0.0,0.0,0.0,0.0,0.0,0.0,0.0,0.0,0.0,0.0,0.0,0.0,0.0,0.0,0.0,0.0,0.0,0.0,0.0,0.0,0.0,0.0,0.0,0.0,0.7095,0.721,0.7412,0.7461,0.7607,0.7811,0.7902,0.7931,0.7988,0.7988,0.7988,0.7988,0.7988,0.7988,0.7988,0.7988,0.7988,0.7988,0.7988,0.7988,0.7988,0.7988,0.7988,0.7988,0.7988,0.7988,0.7988,0.7988,0.7988,0.7988,0.7988,0.7988,0.7978,0.7917,0.7824,0.7658,0.7543,0.7377,0.7217,0.7112,0.7095,0.7095,0.7095,0.7095,0.7095,0.7095,0.7095,0.7095,0.7095,0.7095,0.7125,0.7261,0.8303,0.9486,1.0437,1.18,1.3039,1.3997,1.4088,1.4088,1.4088,1.4088,1.4088,1.4088,1.4088,1.2083,0.7401,0.7318,0.8532,1.0878,1.3273,1.4616,1.4696,1.4983,1.5224,1.5398,1.5511,1.5658,1.5784,1.5784,1.5784,0.0,0.0,0.0,0.0,0.0,0.0,0.0,0.0,0.0,0.0,0.0,0.0,0.0,0.0,0.0,0.0,0.0,0.0,0.0,0.0,0.0,0.0,0.0,0.0,0.0,0.0,0.0,0.0,0.0,0.0,0.0,0.7095,0.7204,0.7346,0.7409,0.7499,0.777,0.7784,0.7862,0.7948,0.7948,0.7958,0.7968,0.7982,0.7988,0.7988,0.7988,0.7988,0.7988,0.7988,0.7988,0.7988,0.7988,0.7988,0.7988,0.7988,0.7988,0.7988,0.7988,0.7988,0.7988,0.7988,0.7982,0.7941,0.7851,0.779,0.7716,0.7448,0.7405,0.7322,0.7149,0.7105,0.7102,0.7132,0.7129,0.7119,0.7119,0.7122,0.7122,0.7122,0.7109,0.7095,0.7095,0.8317,0.9444,0.9836,1.2385,1.4208,1.4102,1.4182,1.4202,1.4095,1.4182,1.4249,1.4249,1.4249,1.2443,0.8141,0.7972,0.8975,1.1071,1.3446,1.4834,1.5028,1.5284,1.5438,1.5438,1.5698,1.5784,1.5784,1.5784,1.5784,0.0,0.0,0.0,0.0,0.0,0.0,0.0,0.0,0.0,0.0,0.0,0.0,0.0,0.0,0.0,0.0,0.0,0.0,0.0,0.0,0.0,0.0,0.0,0.0,0.0,0.0,0.0,0.0,0.0,0.0,0.7095,0.7095,0.7112,0.7142,0.7309,0.7446,0.7465,0.7587,0.7662,0.0,0.7695,0.7753,0.7865,0.7934,0.7988,0.7988,0.7988,0.7988,0.7988,0.7988,0.7988,0.7988,0.7988,0.7988,0.7988,0.7988,0.7988,0.7988,0.7988,0.7988,0.7988,0.7988,0.7911,0.7851,0.7821,0.7648,0.7451,0.7436,0.7285,0.721,0.7299,0.7231,0.7156,0.7444,0.7411,0.7322,0.7322,0.735,0.7328,0.7328,0.7203,0.7095,0.7095,0.7401,0.8877,1.2565,1.4455,1.5124,1.4202,1.489,1.5104,1.4188,1.491,1.5411,1.5411,1.5411,1.4974,1.3971,1.0188,0.8206,0.8717,1.2738,1.499,1.5138,1.5498,1.5684,1.5684,1.5751,1.5784,1.5784,1.5784,1.5784,0.0,0.0,0.0,0.0,0.0,0.0,0.0,0.0,0.0,0.0,0.0,0.0,0.0,0.0,0.0,0.0,0.0,0.0,0.0,0.0,0.0,0.0,0.0,0.0,0.0,0.0,0.0,0.0,0.0,0.7095,0.7095,0.7095,0.7095,0.7095,0.7217,0.7295,0.7415,0.7451,0.7529,0.76,0.76,0.7638,0.7719,0.7891,0.7988,0.7988,0.7988,0.7988,0.7988,0.7988,0.7988,0.7988,0.7988,0.7988,0.7988,0.7988,0.7944,0.788,0.788,0.7885,0.7828,0.7828,0.7777,0.7695,0.7624,0.7492,0.7402,0.7282,0.7204,0.7112,0.7241,0.7255,0.7272,0.736,0.7377,0.7377,0.74,0.7424,0.7365,0.727,0.7284,0.736,0.736,0.7193,0.8863,1.4148,1.5438,1.5611,1.4997,1.5451,1.5551,1.499,1.5464,1.5784,1.5784,1.5784,1.5784,1.5784,1.3247,1.0623,0.8088,1.2764,1.5424,1.5478,1.5678,1.5784,1.5784,1.5784,1.5784,1.5784,1.5784,1.5784,0.0,0.0,0.0,0.0,0.0,0.0,0.0,0.0,0.0,0.0,0.0,0.0043,0.0,0.0,0.0,0.0,0.0,0.0,0.0,0.0,0.0,0.0,0.0,0.0,0.0,0.0,0.0,0.0,0.0,0.7095,0.7095,0.7095,0.7095,0.7095,0.7095,0.7204,0.7329,0.7333,0.7397,0.7519,0.7546,0.756,0.757,0.7841,0.7928,0.7951,0.7951,0.7965,0.7988,0.7988,0.7988,0.7988,0.7961,0.7968,0.7982,0.7934,0.7899,0.7807,0.7784,0.7699,0.76,0.76,0.7584,0.7536,0.7456,0.7398,0.7305,0.7132,0.7095,0.7102,0.7129,0.7255,0.7316,0.7213,0.7329,0.7421,0.7412,0.7459,0.7449,0.728,0.7499,0.7956,0.884,0.8776,1.0226,1.5053,1.5784,1.5784,1.5784,1.5784,1.5784,1.5784,1.5784,1.5784,1.5784,1.5784,1.5784,1.5784,1.5784,1.3878,0.9505,1.3488,1.5784,1.5784,1.5784,1.5784,1.5784,1.5784,1.5784,1.5784,1.5784,1.5784,0.0,0.0,0.0,0.0,0.0,0.0,0.0,0.0,0.0,0.0,0.0,0.0,0.0,0.0,0.0,0.0,0.0,0.0,0.0,0.0,0.0,0.0,0.0,0.0,0.0,0.0,0.0,0.0,0.7095,0.7095,0.7095,0.7095,0.7095,0.7095,0.7095,0.7105,0.7125,0.7125,0.7136,0.7159,0.7336,0.7446,0.7453,0.758,0.7726,0.7841,0.7841,0.7916,0.7988,0.7988,0.7988,0.7975,0.7892,0.7874,0.7958,0.7753,0.7723,0.7794,0.7672,0.7614,0.76,0.76,0.7509,0.7443,0.7422,0.7278,0.7122,0.7102,0.7095,0.7125,0.7305,0.7255,0.721,0.7533,0.7614,0.757,0.7577,0.778,0.7901,0.7877,0.7904,0.9388,1.3921,1.4678,1.492,1.5663,1.5784,1.5784,1.5784,1.5784,1.5784,1.5784,1.5784,1.5784,1.5784,1.5784,1.5784,1.5784,1.5784,1.5486,1.4806,1.5439,1.5784,1.5784,1.5784,1.5784,1.5784,1.5784,1.5784,1.5784,1.5784,1.5784,0.0,0.0,0.0,0.0,0.0,0.0,0.0,0.0,0.0157,0.0784,0.0877,0.0,0.0,0.0,0.0,0.0,0.0,0.0,0.0,0.0,0.0,0.0,0.0,0.0,0.0,0.0,0.0,0.0,0.7095,0.7095,0.7095,0.7095,0.7095,0.7095,0.7095,0.7095,0.7095,0.7095,0.7095,0.7095,0.721,0.7241,0.7244,0.7312,0.7472,0.7692,0.7692,0.7733,0.7794,0.7794,0.7794,0.7787,0.7719,0.7733,0.7777,0.7648,0.7584,0.7556,0.7492,0.7414,0.7343,0.7343,0.7295,0.7241,0.7241,0.7149,0.7095,0.7095,0.7095,0.7112,0.7224,0.7146,0.7183,0.7577,0.7756,0.7845,0.7845,0.7897,0.7988,0.7988,1.0378,1.3102,1.5391,1.5784,1.5784,1.5784,1.5784,1.5784,1.5784,1.5784,1.5784,1.5784,1.5784,1.5784,1.5784,1.5784,1.5784,1.5784,1.5784,1.5784,1.5784,1.5784,1.5784,1.5784,1.5784,1.5784,1.5784,1.5784,1.5784,1.5784,1.5784,1.5784,0.0,0.0,0.0055,0.0219,0.0304,0.0392,0.0,0.0,0.0971,0.0,0.0,0.0,0.0,0.0,0.0,0.0,0.0,0.0,0.0,0.0,0.0,0.0,0.0,0.0,0.0,0.0,0.0,0.0,0.6984,0.7001,0.7041,0.7045,0.7058,0.7095,0.7095,0.7095,0.7095,0.7095,0.7095,0.7095,0.7095,0.7095,0.7095,0.7095,0.722,0.7485,0.7522,0.7563,0.76,0.76,0.76,0.7597,0.7556,0.7563,0.759,0.7512,0.7434,0.7412,0.7326,0.7238,0.7095,0.7095,0.7095,0.7095,0.7095,0.7095,0.7095,0.7095,0.7095,0.7183,0.7617,0.7837,0.7912,0.7631,0.7746,0.7897,0.7975,0.7988,0.8379,0.9747,1.3151,1.5784,1.5784,1.5784,1.5784,1.5784,1.5784,1.5784,1.5784,1.5784,1.5784,1.5784,1.5784,1.5784,1.5784,1.5784,1.5784,1.5784,1.5784,1.5784,1.5784,1.5784,1.5784,1.5784,1.5784,1.5784,1.5784,1.5784,1.5784,1.5784,1.5784,1.5784,0.0,0.0,0.0166,0.0875,0.1153,0.1446,0.0,0.0,0.0,0.0,0.0,0.0,0.0,0.0,0.0,0.0,0.0,0.0,0.0,0.0,0.0,0.0,0.0,0.0,0.0,0.0,0.0,0.0,0.6722,0.6787,0.6889,0.6896,0.6957,0.7092,0.7095,0.7095,0.7095,0.7095,0.7095,0.7095,0.7095,0.7095,0.7095,0.7095,0.7105,0.7129,0.7319,0.7465,0.76,0.76,0.76,0.7587,0.7441,0.7472,0.7563,0.7227,0.7251,0.7395,0.7204,0.7102,0.7095,0.7095,0.7095,0.7095,0.7095,0.7095,0.7095,0.7095,0.7095,0.7445,0.8965,0.9874,0.9901,0.7893,0.7536,0.7699,0.7931,0.7988,0.9456,1.4418,1.5635,1.5784,1.5784,1.5784,1.5784,1.5784,1.5784,1.5784,1.5784,1.5784,1.5784,1.5784,1.5784,1.5784,1.5784,1.5784,1.5784,1.5784,1.5784,1.5784,1.5784,1.5784,1.5784,1.5784,1.5784,1.5784,1.5784,1.5784,1.5784,1.5784,1.5784,1.5784,0.0,0.0,0.0065,0.0329,0.085,0.139,0.1669,0.2278,0.2994,0.0,0.0,0.0,0.0,0.0,0.0,0.0,0.0,0.0,0.0,0.0,0.0,0.0,0.0,0.0,0.0,0.0,0.0,0.0,0.0,0.6766,0.6876,0.6886,0.695,0.7092,0.7095,0.7095,0.7095,0.7095,0.7095,0.7095,0.7095,0.7095,0.7095,0.7095,0.7095,0.7098,0.7156,0.7255,0.726,0.726,0.726,0.7253,0.7244,0.7258,0.7247,0.7136,0.7132,0.7214,0.7115,0.7095,0.7095,0.7095,0.7095,0.7095,0.7095,0.7095,0.7095,0.7095,0.7095,0.7228,0.7793,1.0394,1.1939,0.839,0.7716,0.7864,0.7968,0.7988,0.955,1.48,1.5784,1.5784,1.5784,1.5784,1.5784,1.5784,1.5784,1.5784,1.5784,1.5784,1.5784,1.5784,1.5784,1.5784,1.5784,1.5784,1.5784,1.5784,1.5784,1.5784,1.5784,1.5784,1.5784,1.5784,1.5784,1.5784,1.5784,1.5784,1.5784,1.5784,1.5784,1.5784,0.0396,0.0435,0.0519,0.0889,0.1397,0.194,0.2358,0.0,0.3757,0.0,0.0,0.0,0.0,0.0,0.0,0.0,0.0,0.0,0.0,0.0,0.0,0.0,0.0,0.0,0.0,0.0,0.0,0.0,0.0,0.0,0.6766,0.6776,0.6865,0.7018,0.7071,0.7095,0.7095,0.7095,0.7095,0.7095,0.7095,0.7095,0.7095,0.7095,0.7095,0.7095,0.7095,0.7095,0.7095,0.7095,0.7095,0.7095,0.7095,0.7095,0.7095,0.7095,0.7095,0.7095,0.7095,0.7095,0.7095,0.7095,0.7095,0.7095,0.7095,0.7095,0.7095,0.7095,0.7095,0.7095,0.7095,1.0005,1.2215,0.9443,0.8394,0.7988,0.7988,0.7988,0.955,1.48,1.5784,1.5784,1.5784,1.5784,1.5784,1.5784,1.5784,1.5784,1.5784,1.5784,1.5784,1.5784,1.5784,1.5784,1.5784,1.5784,1.5784,1.5784,1.5784,1.5784,1.5784,1.5784,1.5784,1.5784,1.5784,1.5784,1.5784,1.5784,1.5784,1.5784,1.5784,1.6039,0.0,0.0,0.0,0.2601,0.0,0.0,0.4388,0.0,0.512,0.0,0.0,0.0,0.0,0.0,0.0,0.0,0.0,0.0,0.0,0.0,0.0,0.0,0.0,0.0,0.0,0.0,0.0,0.0,0.63,0.6361,0.6504,0.6521,0.662,0.6869,0.7021,0.7095,0.7088,0.7095,0.7095,0.7095,0.7095,0.7095,0.7095,0.7095,0.7095,0.7095,0.7095,0.7095,0.7095,0.7095,0.7095,0.7095,0.7095,0.7095,0.7095,0.7095,0.7095,0.7095,0.7095,0.7095,0.7095,0.7095,0.7095,0.7095,0.7095,0.7095,0.7095,0.7095,0.7095,0.7139,0.7272,0.9008,1.077,1.0954,0.9488,0.7988,0.7988,0.7988,0.955,1.48,1.5784,1.5784,1.5784,1.5784,1.5784,1.5784,1.5784,1.5784,1.5784,1.5784,1.5784,1.5784,1.5784,1.5784,1.5784,1.5784,1.5784,1.5784,1.5784,1.5784,1.5784,1.5784,1.5784,1.5784,1.5784,1.5784,1.5784,1.5784,1.5784,1.5784,1.5784,1.646,0.1311,0.0,0.0,0.0,0.0,0.0,0.0,0.0,0.0,0.0,0.0,0.0,0.0,0.0,0.0,0.0,0.0,0.0,0.0,0.0,0.0,0.0,0.0,0.0,0.0,0.0,0.0,0.0,0.63,0.6361,0.6504,0.6681,0.679,0.6763,0.6964,0.7048,0.6947,0.7045,0.7095,0.7095,0.7095,0.7095,0.7095,0.7095,0.7095,0.7095,0.7095,0.7095,0.7095,0.7095,0.7095,0.7095,0.7095,0.7095,0.7095,0.7095,0.7095,0.7095,0.7095,0.7095,0.7095,0.7095,0.7095,0.7095,0.7095,0.7095,0.7095,0.7095,0.7095,0.7878,1.1257,1.265,1.2394,0.9546,0.8417,0.7988,0.7988,0.7988,0.955,1.48,1.5784,1.5784,1.5784,1.5784,1.5784,1.5784,1.5784,1.5784,1.5784,1.5784,1.5784,1.5784,1.5784,1.5784,1.5784,1.5784,1.5784,1.5784,1.5784,1.5784,1.5784,1.5784,1.5784,1.5784,1.5784,1.5784,1.5784,1.5784,1.5784,1.5784,1.5784,1.646,0.2058,0.2138,0.2219,0.2188,0.0,0.0,0.0,0.366,0.0,0.0,0.0,0.0,0.0,0.0,0.0,0.0,0.0,0.0,0.0,0.0,0.0,0.0,0.0,0.0,0.0,0.63,0.63,0.63,0.63,0.6334,0.6419,0.661,0.6698,0.6607,0.6834,0.6915,0.6834,0.6937,0.7007,0.7007,0.7068,0.7095,0.7095,0.7095,0.7095,0.7095,0.7095,0.7095,0.7095,0.7095,0.7095,0.7095,0.7095,0.7095,0.7095,0.7095,0.7404,0.7841,0.7841,0.8141,0.8488,0.8013,0.7841,0.7753,0.7272,0.7095,0.7095,0.7095,0.8532,1.0654,1.3385,1.4088,1.3628,1.1723,1.1253,1.1253,1.1253,1.1253,1.2178,1.5194,1.5784,1.5784,1.5784,1.5784,1.5784,1.5784,1.5784,1.5784,1.5784,1.5784,1.5784,1.5784,1.5784,1.5784,1.5784,1.5784,1.5784,1.5784,1.5784,1.5784,1.5784,1.5784,1.5784,1.5784,1.5784,1.5784,1.5784,1.5784,1.6079,1.656,1.656,1.6927,0.3099,0.3162,0.3219,0.3344,0.3273,0.0,0.3639,0.3754,0.3928,0.0,0.0,0.0,0.0,0.0,0.0,0.0,0.0,0.0,0.0,0.0,0.0,0.0,0.0,0.0,0.6276,0.6289,0.63,0.63,0.63,0.63,0.63,0.6433,0.6504,0.6491,0.6614,0.6692,0.6675,0.6844,0.6886,0.6886,0.7028,0.7095,0.7095,0.7095,0.7095,0.7095,0.7095,0.7095,0.7095,0.7095,0.7095,0.7095,0.7095,0.7095,0.7095,0.7272,0.7969,0.8934,0.9065,0.9753,1.0394,0.9279,0.889,0.8671,0.7448,0.7228,0.7445,0.7793,1.0869,1.4088,1.4088,1.4088,1.4382,1.5551,1.5784,1.5784,1.5784,1.5784,1.5784,1.5784,1.5784,1.5784,1.5784,1.5784,1.5784,1.5784,1.5784,1.5784,1.5784,1.5784,1.5784,1.5784,1.5784,1.5784,1.5784,1.5784,1.5784,1.5784,1.5784,1.5784,1.5784,1.5784,1.5784,1.5784,1.5784,1.5784,1.5784,1.5784,1.6433,1.7582,1.7582,1.7582,0.352,0.3575,0.3612,0.3381,0.0,0.0,0.3293,0.3531,0.3816,0.0,0.0,0.0,0.0,0.0,0.0,0.0,0.0,0.0,0.0,0.0,0.0,0.0,0.0,0.0,0.6074,0.6186,0.63,0.63,0.63,0.63,0.63,0.6433,0.646,0.6344,0.6563,0.6641,0.6559,0.679,0.6886,0.6886,0.7028,0.7095,0.7095,0.7095,0.7095,0.7095,0.7095,0.7095,0.7095,0.7095,0.7095,0.7095,0.7095,0.7095,0.7228,0.8193,0.8715,0.9021,0.9966,1.0394,1.0394,0.9279,0.889,0.8671,0.7448,0.8009,0.9531,1.204,1.3385,1.4088,1.4088,1.4088,1.4382,1.5551,1.5784,1.5784,1.5784,1.5784,1.5784,1.5784,1.5784,1.5784,1.5784,1.5784,1.5784,1.5784,1.5784,1.5784,1.5784,1.5784,1.5784,1.5784,1.5784,1.5784,1.5784,1.5784,1.5784,1.5784,1.5784,1.5784,1.5784,1.5784,1.5784,1.5784,1.5784,1.5784,1.5784,1.5784,1.6433,1.7582,1.7582,1.7582,0.386,0.3849,0.3849,0.3603,0.0,0.0,0.0,0.3488,0.3658,0.386,0.0,0.0,0.0,0.0,0.0,0.0,0.0,0.0,0.0,0.0,0.0,0.0,0.0,0.0,0.5915,0.5986,0.6064,0.6139,0.6255,0.63,0.63,0.6368,0.6375,0.6303,0.6446,0.6484,0.6409,0.659,0.6739,0.6817,0.692,0.7028,0.7095,0.7095,0.7095,0.7095,0.7095,0.7095,0.7095,0.7095,0.7095,0.7095,0.7095,0.7095,0.7228,0.8452,0.9279,0.9923,1.1042,1.1863,1.2169,1.0999,1.0221,0.9623,0.9008,0.9701,1.0961,1.2522,1.3519,1.4088,1.4088,1.4088,1.4382,1.5551,1.5784,1.5784,1.5784,1.5784,1.5784,1.5784,1.5784,1.5784,1.5784,1.5784,1.5784,1.5784,1.5784,1.5784,1.5784,1.5784,1.5784,1.5784,1.5784,1.5784,1.5784,1.5784,1.5784,1.5784,1.5784,1.5784,1.5784,1.5784,1.5784,1.5784,1.5784,1.6119,1.67,1.67,1.7007,1.7582,1.7582,1.7582,0.0,0.4166,0.0,0.0,0.0,0.3771,0.0,0.0,0.0,0.3812,0.0,0.0,0.0,0.0,0.0,0.0,0.0,0.0,0.0,0.0,0.0,0.0,0.0,0.0,0.0,0.5718,0.5789,0.5936,0.6078,0.6194,0.6252,0.6282,0.63,0.63,0.63,0.63,0.63,0.6443,0.6573,0.6658,0.681,0.6903,0.7011,0.7011,0.7011,0.7014,0.7045,0.7055,0.7058,0.7085,0.7095,0.7095,0.7095,0.7095,0.7272,0.8711,0.9792,1.0783,1.2163,1.3294,1.3906,1.2674,1.1509,1.0654,1.0864,1.1386,1.1955,1.2174,1.313,1.4088,1.4088,1.4088,1.4329,1.5271,1.5618,1.5784,1.5784,1.5784,1.5784,1.5784,1.5784,1.5784,1.5784,1.5784,1.5784,1.5784,1.5784,1.5784,1.5784,1.5784,1.5784,1.5784,1.5784,1.5784,1.5784,1.5784,1.5784,1.5784,1.5784,1.5784,1.5784,1.5784,1.5784,1.5784,1.5784,1.6406,1.7582,1.7582,1.7582,1.7582,1.7582,1.7582,0.0,0.0,0.0,0.0,0.4355,0.0,0.0,0.0,0.3822,0.3453,0.0,0.0,0.0,0.0,0.0,0.0,0.0,0.0,0.0,0.0,0.0,0.0,0.0,0.0,0.0,0.5443,0.5562,0.5806,0.5728,0.5779,0.6003,0.6186,0.63,0.63,0.63,0.63,0.63,0.6443,0.6521,0.6542,0.6654,0.6736,0.6749,0.6749,0.6749,0.6759,0.6852,0.691,0.692,0.7045,0.7095,0.7095,0.7095,0.7095,0.7356,0.9575,1.0481,1.0913,1.3124,1.3997,1.3906,1.2674,1.1509,1.0778,1.1809,1.2157,1.2462,1.3561,1.3955,1.4088,1.4088,1.4088,1.4122,1.4255,1.5077,1.5784,1.5784,1.5784,1.5784,1.5784,1.5784,1.5784,1.5784,1.5784,1.5784,1.5784,1.5784,1.5784,1.5784,1.5784,1.5784,1.5784,1.5784,1.5784,1.5784,1.5784,1.5784,1.5784,1.5784,1.5784,1.5784,1.5784,1.5784,1.5784,1.5784,1.6406,1.7582,1.7582,1.7582,1.7582,1.7582,1.7582,0.0,0.0,0.0,0.0,0.0,0.0,0.3757,0.0,0.3734,0.0,0.0,0.0,0.0,0.0,0.0,0.0,0.0,0.0,0.0,0.0,0.0,0.0,0.0,0.0,0.0,0.0,0.0,0.0,0.5525,0.5627,0.5973,0.6091,0.6169,0.6296,0.63,0.63,0.63,0.6358,0.6429,0.6511,0.6536,0.6614,0.6702,0.6702,0.6702,0.6705,0.677,0.6848,0.6889,0.695,0.7021,0.7095,0.7095,0.7533,0.8364,1.0009,1.1042,1.1815,1.3519,1.4088,1.3906,1.2674,1.2462,1.2601,1.2376,1.2808,1.3464,1.3955,1.4088,1.4088,1.4088,1.4088,1.4088,1.4088,1.4462,1.5003,1.5638,1.5784,1.5784,1.5784,1.5784,1.5784,1.5784,1.5784,1.5784,1.5784,1.5784,1.5784,1.5784,1.5784,1.5784,1.5784,1.5784,1.5784,1.5784,1.5784,1.5784,1.5784,1.5784,1.5784,1.5784,1.5784,1.5784,1.5784,1.65,1.7088,1.7582,1.7582,1.7582,1.7582,1.7582,1.7582,0.504,0.0,0.0,0.0,0.0,0.0,0.0,0.0,0.0,0.0,0.0,0.0,0.0,0.0,0.0,0.3668,0.0,0.3762,0.0,0.0,0.0,0.0,0.0,0.0,0.0,0.0,0.0,0.0,0.0,0.5361,0.582,0.5922,0.6037,0.6193,0.6279,0.63,0.63,0.63,0.6351,0.6453,0.6453,0.6511,0.658,0.658,0.658,0.6583,0.662,0.6725,0.6868,0.6869,0.6947,0.7041,0.7082,0.8026,0.942,1.0288,1.1338,1.2456,1.3688,1.4088,1.3955,1.3075,1.3379,1.3955,1.3069,1.3421,1.4088,1.4088,1.4088,1.4088,1.4088,1.4088,1.4088,1.4088,1.4088,1.4409,1.5531,1.5784,1.5784,1.5784,1.5784,1.5784,1.5784,1.5784,1.5784,1.5784,1.5784,1.5784,1.5784,1.5784,1.5784,1.5784,1.5784,1.5784,1.5784,1.5784,1.5784,1.5784,1.5784,1.5784,1.5784,1.5784,1.5979,1.6306,1.7148,1.7582,1.7582,1.7582,1.7582,1.7582,1.7582,1.7582,0.0,0.0,0.0,0.4638,0.0,0.0,0.0,0.0,0.394,0.0,0.0,0.0,0.0,0.0,0.3958,0.3809,0.3699,0.0,0.0,0.0,0.0,0.0,0.0,0.0,0.0,0.0,0.0,0.0,0.0,0.0,0.5385,0.5654,0.5878,0.5993,0.6183,0.63,0.63,0.63,0.6303,0.6306,0.6306,0.631,0.6313,0.6313,0.6313,0.632,0.646,0.6566,0.6719,0.6825,0.6889,0.6906,0.7045,0.8422,1.0349,1.053,1.1338,1.2456,1.3688,1.4088,1.4088,1.4039,1.4088,1.4088,1.4039,1.4088,1.4088,1.4088,1.4088,1.4088,1.4088,1.4088,1.4088,1.4088,1.4088,1.4409,1.5531,1.5784,1.5784,1.5784,1.5784,1.5784,1.5784,1.5784,1.5784,1.5784,1.5784,1.5784,1.5784,1.5784,1.5784,1.5784,1.5784,1.5784,1.5784,1.5784,1.5784,1.5784,1.5784,1.5784,1.5784,1.5784,1.6366,1.7508,1.7562,1.7582,1.7582,1.7582,1.7582,1.7582,1.7582,1.7582,0.0,0.0,0.5423,0.5598,0.0,0.0,0.0,0.0,0.0,0.0,0.0,0.0,0.0,0.3994,0.3938,0.3713,0.4028,0.4152,0.0,0.0,0.0,0.0,0.0,0.0,0.0,0.0,0.0,0.0,0.444,0.0,0.0,0.564,0.5871,0.5986,0.6179,0.63,0.63,0.63,0.63,0.63,0.63,0.63,0.63,0.63,0.63,0.6303,0.6351,0.6457,0.6563,0.6715,0.6776,0.6793,0.69,0.8363,1.0428,1.0567,1.1821,1.3555,1.3955,1.3955,1.3828,1.4021,1.4088,1.4088,1.4088,1.4088,1.4088,1.4088,1.4088,1.4088,1.4088,1.4088,1.4088,1.4088,1.4088,1.4409,1.5531,1.5784,1.5784,1.5784,1.5784,1.5784,1.5784,1.5784,1.5784,1.5784,1.5784,1.5784,1.5784,1.5784,1.5784,1.5784,1.5784,1.5784,1.5784,1.5784,1.5784,1.5784,1.5784,1.5784,1.5784,1.658,1.7174,1.7575,1.7582,1.7582,1.7582,1.7582,1.7582,1.7582,1.7582,1.7582,0.6273,0.6338,0.0,0.6593,0.6097,0.0,0.5742,0.0,0.0,0.0,0.0,0.0,0.0,0.0,0.4031,0.3941,0.4303,0.4427,0.0,0.398,0.0,0.0,0.0,0.0,0.0,0.0,0.3886,0.4174,0.4233,0.0,0.0,0.0,0.5739,0.5905,0.619,0.63,0.63,0.63,0.63,0.63,0.63,0.63,0.63,0.63,0.63,0.63,0.63,0.6381,0.6518,0.658,0.662,0.6641,0.6848,0.8062,0.9756,1.0191,1.187,1.3941,1.4048,1.3961,1.3793,1.4021,1.4088,1.4088,1.4088,1.4088,1.4088,1.4088,1.4088,1.4088,1.4088,1.4088,1.4088,1.4088,1.4088,1.4409,1.5531,1.5784,1.5784,1.5784,1.5784,1.5784,1.5784,1.5784,1.5784,1.5784,1.5784,1.5784,1.5784,1.5784,1.5784,1.5784,1.5784,1.5784,1.5784,1.5784,1.5784,1.5784,1.5784,1.5784,1.5784,1.6961,1.7582,1.7582,1.7582,1.7582,1.7582,1.7582,1.7582,1.7582,1.7582,1.7582]}]]